[[{"header":{"parameterUnit":"m.s-1","parameterCategory":1,"la1":30.6,"la2":28.766,"lo1":-90.7593,"lo2":-88.6598,"dy":0.0162,"dx":0.0183,"nx":116,"ny":114,"refTime":"2024-07-06T12:00:00:Z","depth":0,"parameterNumber":2,"parameterNumberName":"U-component_of_WINDS"},"data":[0.0,0.0,0.0,0.0,0.0,0.0,0.0,0.0,0.0,0.0,0.0,0.0,0.0,0.0,0.0,0.0,0.0,0.0,0.0,0.0,0.0,0.0,0.0,0.0,0.0,0.0,0.0,0.0,0.0,0.0,0.0,0.0,0.0,0.0,0.0,0.0,0.0,0.0,0.0,0.0,0.0,0.0,0.0,0.0,0.0,0.0,0.0,0.0,0.0,0.0,0.0,0.0,0.0,0.0,0.0,0.0,0.0,0.0,0.0,0.0,0.0,0.0,0.0,0.0,0.0,0.0,0.0,0.0,0.0,0.0,0.0,0.0,0.0,0.0,0.0,0.0,0.0,0.0,0.0,0.0,0.0,0.0,0.0,0.0,0.0,0.0,0.0,0.0,0.0,0.0,0.0,0.0,0.0,0.0,0.0,0.0,0.0,0.0,0.0,0.0,0.0,0.0,0.0,0.0,0.0,0.0,0.0,0.0,0.0,0.0,0.0,0.0,0.0,0.0,0.0,0.0,0.0,0.0,0.0,0.0,0.0,0.0,0.0,0.0,0.0,0.0,0.0,0.0,0.0,0.0,0.0,0.0,0.0,0.0,0.0,0.0,0.0,0.0,0.0,0.0,0.0,0.0,0.0,0.0,0.0,0.0,0.0,0.0,0.0,0.0,0.0,0.0,0.0,0.0,0.0,0.0,0.0,0.0,0.0,0.0,0.0,0.0,0.0,0.0,0.0,0.0,0.0,0.0,0.0,0.0,0.0,0.0,0.0,0.0,0.0,0.0,0.0,0.0,0.0,0.0,0.0,0.0,0.0,0.0,0.0,0.0,0.0,0.0,0.0,0.0,0.0,0.0,0.0,0.0,0.0,0.0,0.0,0.0,0.0,0.0,0.0,0.0,0.0,0.0,0.0,0.0,0.0,0.0,0.0,0.0,0.0,0.0,0.0,0.0,0.0,0.0,0.0,0.0,0.0,0.0,0.0,0.0,0.0,0.0,0.0,0.0,0.0,0.0,0.0,0.0,0.0,0.0,0.0,0.0,0.0,0.0,0.0,0.0,0.0,0.0,0.0,0.0,0.0,0.0,0.0,0.0,0.0,0.0,0.0,0.0,0.0,0.0,0.0,0.0,0.0,0.0,0.0,0.0,0.0,0.0,0.0,0.0,0.0,0.0,0.0,0.0,0.0,0.0,0.0,0.0,0.0,0.0,0.0,0.0,0.0,0.0,0.0,0.0,0.0,0.0,0.0,0.0,0.0,0.0,0.0,0.0,0.0,0.0,0.0,0.0,0.0,0.0,0.0,0.0,0.0,0.0,0.0,0.0,0.0,0.0,0.0,0.0,0.0,0.0,0.0,0.0,0.0,0.0,0.0,0.0,0.0,0.0,0.0,0.0,0.0,0.0,0.0,0.0,0.0,0.0,0.0,0.0,0.0,0.0,0.0,0.0,0.0,0.0,0.0,0.0,0.0,0.0,0.0,0.0,0.0,0.0,0.0,0.0,0.0,0.0,0.0,0.0,0.0,0.0,0.0,0.0,0.0,0.0,0.0,0.0,0.0,0.0,0.0,0.0,0.0,0.0,0.0,0.0,0.0,0.0,0.0,0.0,0.0,0.0,0.0,0.0,0.0,0.0,0.0,0.0,0.0,0.0,0.0,0.0,0.0,0.0,0.0,0.0,0.0,0.0,0.0,0.0,0.0,0.0,0.0,0.0,0.0,0.0,0.0,0.0,0.0,0.0,0.0,0.0,0.0,0.0,0.0,0.0,0.0,0.0,0.0,0.0,0.0,0.0,0.0,0.0,0.0,0.0,0.0,0.0,0.0,0.0,0.0,0.0,0.0,0.0,0.0,0.0,0.0,0.0,0.0,0.0,0.0,0.0,0.0,0.0,0.0,0.0,0.0,0.0,0.0,0.0,0.0,0.0,0.0,0.0,0.0,0.0,0.0,0.0,0.0,0.0,0.0,0.0,0.0,0.0,0.0,0.0,0.0,0.0,0.0,0.0,0.0,0.0,0.0,0.0,0.0,0.0,0.0,0.0,0.0,0.0,0.0,0.0,0.0,0.0,0.0,0.0,0.0,0.0,0.0,0.0,0.0,0.0,0.0,0.0,0.0,0.0,0.0,0.0,0.0,0.0,0.0,0.0,0.0,0.0,0.0,0.0,0.0,0.0,0.0,0.0,0.0,0.0,0.0,0.0,0.0,0.0,0.0,0.0,0.0,0.0,0.0,0.0,0.0,0.0,0.0,0.0,0.0,0.0,0.0,0.0,0.0,0.0,0.0,0.0,0.0,0.0,0.0,0.0,0.0,0.0,0.0,0.0,0.0,0.0,0.0,0.0,0.0,0.0,0.0,0.0,0.0,0.0,0.0,0.0,0.0,0.0,0.0,0.0,0.0,0.0,0.0,0.0,0.0,0.0,0.0,0.0,0.0,0.0,0.0,0.0,0.0,0.0,0.0,0.0,0.0,0.0,0.0,0.0,0.0,0.0,0.0,0.0,0.0,0.0,0.0,0.0,0.0,0.0,0.0,0.0,0.0,0.0,0.0,0.0,0.0,0.0,0.0,0.0,0.0,0.0,0.0,0.0,0.0,0.0,0.0,0.0,0.0,0.0,0.0,0.0,0.0,0.0,0.0,0.0,0.0,0.0,0.0,0.0,0.0,0.0,0.0,0.0,0.0,0.0,0.0,0.0,0.0,0.0,0.0,0.0,0.0,0.0,0.0,0.0,0.0,0.0,0.0,0.0,0.0,0.0,0.0,0.0,0.0,0.0,0.0,0.0,0.0,0.0,0.0,0.0,0.0,0.0,0.0,0.0,0.0,0.0,0.0,0.0,0.0,0.0,0.0,0.0,0.0,0.0,0.0,0.0,0.0,0.0,0.0,0.0,0.0,0.0,0.0,0.0,0.0,0.0,0.0,0.0,0.0,0.0,0.0,0.0,0.0,0.0,0.0,0.0,0.0,0.0,0.0,0.0,0.0,0.0,0.0,0.0,0.0,0.0,0.0,0.0,0.0,0.0,0.0,0.0,0.0,0.0,0.0,0.0,0.0,0.0,0.0,0.0,0.0,0.0,0.0,0.0,0.0,0.0,0.0,0.0,0.0,0.0,0.0,0.0,0.0,0.0,0.0,0.0,0.0,0.0,0.0,0.0,0.0,0.0,0.0,0.0,0.0,0.0,0.0,0.0,0.0,0.0,0.0,0.0,0.0,0.0,0.0,0.0,0.0,0.0,0.0,0.0,0.0,0.0,0.0,0.0,0.0,0.0,0.0,0.0,0.0,0.0,0.0,0.0,0.0,0.0,0.0,0.0,0.0,0.0,0.0,0.0,0.0,0.0,0.0,0.0,0.0,0.0,0.0,0.0,0.0,0.0,0.0,0.0,0.0,0.0,0.0,0.0,0.0,0.0,0.0,0.0,0.0,0.0,0.0,0.0,0.0,0.0,0.0,0.0,0.0,0.0,0.0,0.0,0.0,0.0,0.0,0.0,0.0,0.0,0.0,0.0,0.0,0.0,0.0,0.0,0.0,0.0,0.0,0.0,0.0,0.0,0.0,0.0,0.0,0.0,0.0,0.0,0.0,0.0,0.0,0.0,0.0,0.0,0.0,0.0,0.0,0.0,0.0,0.0,0.0,0.0,0.0,0.0,0.0,0.0,0.0,0.0,0.0,0.0,0.0,0.0,0.0,0.0,0.0,0.0,0.0,0.0,0.0,0.0,0.0,0.0,0.0,0.0,0.0,0.0,0.0,0.0,0.0,0.0,0.0,0.0,0.0,0.0,0.0,0.0,0.0,0.0,0.0,0.0,0.0,0.0,0.0,0.0,0.0,0.0,0.0,0.0,0.0,0.0,0.0,0.0,0.0,0.0,0.0,0.0,0.0,0.0,0.0,0.0,0.0,0.0,0.0,0.0,0.0,0.0,0.0,0.0,0.0,0.0,0.0,0.0,0.0,0.0,0.0,0.0,0.0,0.0,0.0,0.0,0.0,0.0,0.0,0.0,0.0,0.0,0.0,0.0,0.0,0.0,0.0,0.0,0.0,0.0,0.0,0.0,0.0,0.0,0.0,0.0,0.0,0.0,0.0,0.0,0.0,0.0,0.0,0.0,0.0,0.0,0.0,0.0,0.0,0.0,0.0,0.0,0.0,0.0,0.0,0.0,0.0,0.0,0.0,0.0,0.0,0.0,0.0,0.0,0.0,0.0,0.0,0.0,0.0,0.0,0.0,0.0,0.0,0.0,0.0,0.0,0.0,0.0,0.0,0.0,0.0,0.0,0.0,0.0,0.0,0.0,0.0,0.0,0.0,0.0,0.0,0.0,0.0,0.0,0.0,0.0,0.0,0.0,0.0,0.0,0.0,0.0,0.0,0.0,0.0,0.0,0.0,0.0,0.0,0.0,0.0,0.0,0.0,0.0,0.0,0.0,0.0,0.0,0.0,0.0,0.0,0.0,0.0,0.0,0.0,0.0,0.0,0.0,0.0,0.0,0.0,0.0,0.0,0.0,0.0,0.0,0.0,0.0,0.0,0.0,0.0,0.0,0.0,0.0,0.0,0.0,0.0,0.0,0.0,0.0,0.0,0.0,0.0,0.0,0.0,0.0,0.0,0.0,0.0,0.0,0.0,0.0,0.0,0.0,0.0,0.0,0.0,0.0,0.0,0.0,0.0,0.0,0.0,0.0,0.0,0.0,0.0,0.0,0.0,0.0,0.0,0.0,0.0,0.0,0.0,0.0,0.0,0.0,0.0,0.0,0.0,0.0,0.0,0.0,0.0,0.0,0.0,0.0,0.0,0.0,0.0,0.0,0.0,0.0,0.0,0.0,0.0,0.0,0.0,0.0,0.0,0.0,0.0,0.0,0.0,0.0,0.0,0.0,0.0,0.0,0.0,0.0,0.0,0.0,0.0,0.0,0.0,0.0,0.0,0.0,0.0,0.0,0.0,0.0,0.0,0.0,0.0,0.0,0.0,0.0,0.0,0.0,0.0,0.0,0.0,0.0,0.0,0.0,0.0,0.0,0.0,0.0,0.0,0.0,0.0,0.0,0.0,0.0,0.0,0.0,0.0,0.0,0.0,0.0,0.0,0.0,0.0,0.0,0.0,0.0,0.0,0.0,0.0,0.0,0.0,0.0,0.0,0.0,0.0,0.0,0.0,0.0,0.0,0.0,0.0,0.0,0.0,0.0,0.0,0.0,0.0,0.0,0.0,0.0,0.0,0.0,0.0,0.0,0.0,0.0,0.0,0.0,0.0,0.0,0.0,0.0,0.0,0.0,0.0,0.0,0.0,0.0,0.0,0.0,0.0,0.0,0.0,0.0,0.0,0.0,0.0,0.0,0.0,0.0,0.0,0.0,0.0,0.0,0.0,0.0,0.0,0.0,0.0,0.0,0.0,0.0,0.0,0.0,0.0,0.0,0.0,0.0,0.0,0.0,0.0,0.0,0.0,0.0,0.0,0.0,0.0,0.0,0.0,0.0,0.0,0.0,0.0,0.0,0.0,0.0,0.0,0.0,0.0,0.0,0.0,0.0,0.0,0.0,0.0,0.0,0.0,0.0,0.0,0.0,0.0,0.0,0.0,0.0,0.0,0.0,0.0,0.0,0.0,0.0,0.0,0.0,0.0,0.0,0.0,0.0,0.0,0.0,0.0,0.0,0.0,0.0,0.0,0.0,0.0,0.0,0.0,0.0,0.0,0.0,0.0,0.0,0.0,0.0,0.0,0.0,0.0,0.0,0.0,0.0,0.0,0.0,0.0,0.0,0.0,0.0,0.0,0.0,0.0,0.0,0.0,0.0,0.0,0.0,0.0,0.0,0.0,0.0,0.0,0.0,0.0,0.0,0.0,0.0,0.0,0.0,0.0,0.0,0.0,0.0,0.0,0.0,0.0,0.0,0.0,0.0,0.0,0.0,0.0,0.0,0.0,0.0,0.0,0.0,0.0,0.0,0.0,0.0,0.0,0.0,0.0,0.0,0.0,0.0,0.0,0.0,0.0,0.0,0.0,0.0,0.0,0.0,0.0,0.0,0.0,0.0,0.0,0.0,0.0,0.0,0.0,0.0,0.0,0.0,0.0,0.0,0.0,0.0,0.0,0.0,0.0,0.0,-1.5764,0.0,0.0,0.0,0.0,0.0,0.0,0.0,0.0,0.0,0.0,0.0,0.0,0.0,0.0,0.0,0.0,0.0,0.0,0.0,0.0,0.0,0.0,0.0,0.0,-0.7971,-0.8033,-0.8287,-0.8152,-0.8191,-0.8515,0.0,0.0,0.0,0.0,0.0,-0.8424,-0.8575,-0.8925,-0.9536,-1.0117,-1.0948,-1.1953,-1.1641,-1.1156,-1.0503,0.0,0.0,0.0,0.0,0.0,0.0,0.0,0.0,0.0,0.0,0.0,0.0,0.0,0.0,0.0,0.0,0.0,0.0,0.0,0.0,0.0,0.0,0.0,0.0,0.0,0.0,0.0,0.0,0.0,0.0,0.0,0.0,0.0,0.0,0.0,0.0,0.0,0.0,0.0,0.0,0.0,0.0,0.0,0.0,0.0,0.0,0.0,0.0,0.0,0.0,0.0,0.0,0.0,0.0,0.0,0.0,0.0,0.0,0.0,0.0,0.0,0.0,0.0,0.0,0.0,0.0,0.0,0.0,0.0,0.0,0.0,-1.7668,0.0,0.0,0.0,0.0,0.0,0.0,0.0,0.0,0.0,0.0,0.0,0.0,0.0,0.0,0.0,0.0,0.0,0.0,0.0,0.0,0.0,-0.7844,-0.8512,-0.8531,-0.8771,-0.9441,-0.9252,-0.9174,-0.9374,0.0,0.0,0.0,0.0,-0.9049,-0.9049,-0.922,-0.9739,-1.0599,-1.1804,-1.3255,-1.4924,-1.4982,-1.4483,0.0,-1.1895,0.0,0.0,0.0,0.0,0.0,0.0,0.0,0.0,0.0,0.0,0.0,0.0,0.0,0.0,0.0,0.0,0.0,0.0,0.0,0.0,0.0,0.0,0.0,0.0,0.0,0.0,0.0,0.0,0.0,0.0,0.0,0.0,0.0,0.0,0.0,0.0,0.0,0.0,0.0,0.0,0.0,0.0,0.0,0.0,0.0,0.0,0.0,0.0,0.0,0.0,0.0,0.0,0.0,0.0,0.0,0.0,0.0,0.0,0.0,0.0,0.0,0.0,0.0,-2.2583,-2.2878,-2.2807,-2.3324,-2.3931,-2.4482,-2.2987,-2.2299,-2.2016,-1.8961,0.0,0.0,0.0,0.0,0.0,0.0,0.0,0.0,0.0,0.0,0.0,0.0,0.0,0.0,0.0,0.0,0.0,0.0,0.0,-0.7835,-0.8448,-0.8502,-0.8892,-0.9842,-0.9426,-0.9491,-1.043,-0.9489,0.0,0.0,-0.9681,-0.9681,-0.9681,-1.0535,-1.1375,-1.2195,-1.4417,-1.6172,-1.7421,0.0,0.0,0.0,-1.5267,-1.372,0.0,0.0,0.0,0.0,0.0,0.0,0.0,0.0,0.0,0.0,0.0,0.0,0.0,0.0,0.0,0.0,0.0,0.0,0.0,0.0,0.0,0.0,0.0,0.0,0.0,0.0,0.0,0.0,0.0,0.0,0.0,0.0,0.0,0.0,0.0,0.0,0.0,0.0,0.0,0.0,0.0,0.0,-1.3896,-1.4509,0.0,0.0,0.0,0.0,0.0,0.0,0.0,0.0,0.0,0.0,0.0,0.0,0.0,-2.2224,-2.278,-2.4732,-2.571,-2.5804,-2.7925,-2.8718,-2.8299,-2.8826,-2.9102,-2.9203,-2.8946,0.0,-2.3133,-2.1825,0.0,0.0,0.0,0.0,0.0,0.0,0.0,0.0,0.0,0.0,0.0,0.0,0.0,0.0,0.0,0.0,0.0,0.0,0.0,0.0,0.0,-1.0249,-1.1152,-1.2329,-1.2347,-1.2216,0.0,0.0,0.0,-1.0315,-1.0313,-1.0462,-1.0801,-1.1576,-1.2975,-1.5029,-1.6579,-1.7874,0.0,0.0,0.0,0.0,-1.8485,-1.7029,0.0,0.0,0.0,0.0,0.0,0.0,0.0,0.0,0.0,0.0,0.0,0.0,0.0,0.0,0.0,0.0,0.0,0.0,0.0,0.0,0.0,0.0,0.0,0.0,0.0,0.0,0.0,0.0,0.0,0.0,0.0,0.0,0.0,0.0,0.0,0.0,0.0,0.0,0.0,0.0,0.0,-1.3896,-1.6005,-1.5922,-1.6439,-1.6475,0.0,0.0,0.0,0.0,0.0,0.0,0.0,0.0,0.0,-2.3568,-2.4776,-2.5803,-2.6663,-2.7893,-2.8502,-2.8554,-2.9599,-2.9965,-2.9749,-2.9977,-3.0086,-3.0086,-3.0086,-2.8985,-2.7025,-2.498,-2.3139,-2.1414,0.0,0.0,0.0,0.0,-1.8358,-1.862,0.0,0.0,0.0,0.0,0.0,0.0,0.0,0.0,0.0,0.0,0.0,0.0,-1.0821,-1.1992,-1.3211,-1.4602,0.0,0.0,0.0,0.0,0.0,-1.1194,-1.1004,-1.122,-1.1817,-1.3024,-1.4826,-1.7217,-1.8489,0.0,0.0,0.0,0.0,0.0,0.0,0.0,0.0,0.0,0.0,0.0,0.0,0.0,0.0,0.0,0.0,0.0,0.0,0.0,0.0,0.0,0.0,0.0,0.0,0.0,0.0,0.0,0.0,0.0,0.0,0.0,0.0,0.0,0.0,0.0,0.0,0.0,0.0,0.0,0.0,0.0,0.0,0.0,0.0,0.0,0.0,0.0,0.0,-1.6017,-1.782,-1.7267,-1.865,-1.9107,0.0,0.0,0.0,0.0,0.0,0.0,-2.3316,-2.441,-2.5456,-2.6502,-2.7825,-2.8967,-2.9893,-3.0434,-3.0771,-3.0903,-3.0903,-3.0903,-3.0903,-3.0903,-3.0903,-3.0903,-3.0903,-3.0903,-3.068,-2.7867,-2.6132,-2.5044,-2.2797,-2.1546,-2.0977,-2.1455,-2.1432,-2.1458,0.0,0.0,0.0,0.0,0.0,0.0,0.0,0.0,0.0,0.0,0.0,-1.0243,0.0,0.0,0.0,0.0,0.0,0.0,0.0,0.0,0.0,-1.2427,-1.1858,-1.1844,-1.244,-1.5304,0.0,0.0,0.0,0.0,0.0,0.0,0.0,0.0,0.0,0.0,0.0,0.0,0.0,0.0,0.0,0.0,0.0,0.0,0.0,0.0,0.0,0.0,0.0,0.0,0.0,0.0,0.0,0.0,0.0,0.0,0.0,0.0,0.0,0.0,0.0,0.0,0.0,0.0,0.0,0.0,0.0,0.0,0.0,0.0,0.0,0.0,0.0,0.0,0.0,0.0,0.0,0.0,0.0,-1.8939,-2.1638,0.0,0.0,0.0,0.0,-2.2739,-2.3713,-2.4952,-2.6573,-2.7693,-2.8751,-2.9809,-3.041,-3.1031,-3.1585,-3.2106,-3.2623,-3.3128,-3.3128,-3.3128,-3.3128,-3.3128,-3.3128,-3.3128,-3.3128,-3.3128,-3.2923,-3.0224,-2.8539,-2.7584,-2.6912,-2.5804,-2.4598,-2.5185,-2.5401,-2.5507,0.0,0.0,0.0,-0.7687,-0.7635,-0.7605,-0.7605,-0.7975,-0.8325,-0.8566,-1.0243,0.0,0.0,0.0,0.0,0.0,0.0,0.0,0.0,0.0,-1.4325,-1.386,-1.3152,-1.3595,-1.5372,-1.7223,-1.8805,0.0,0.0,0.0,0.0,0.0,0.0,0.0,0.0,0.0,0.0,0.0,0.0,0.0,0.0,0.0,0.0,0.0,0.0,0.0,0.0,0.0,0.0,0.0,0.0,0.0,0.0,0.0,0.0,0.0,0.0,0.0,0.0,0.0,0.0,0.0,0.0,0.0,0.0,0.0,0.0,0.0,0.0,0.0,0.0,0.0,0.0,0.0,0.0,0.0,0.0,0.0,0.0,-2.2072,-2.3652,0.0,-2.2787,-2.3592,-2.4566,-2.5421,-2.649,-2.7633,-2.8895,-2.9965,-3.0711,-3.1139,-3.1961,-3.2527,-3.2707,-3.2911,-3.3104,-3.3284,-3.3284,-3.3284,-3.3284,-3.3284,-3.3284,-3.3284,-3.3284,-3.3284,-3.3224,-3.2262,-3.1484,-3.0714,-2.9539,-2.876,-2.8241,-2.7849,-2.7517,-2.7282,-0.7942,-0.7863,0.0,-0.7687,-0.7635,-0.7605,-0.7605,-0.8172,-0.8755,-0.9182,-1.1278,-1.315,0.0,0.0,0.0,0.0,0.0,0.0,0.0,0.0,-1.5663,-1.5125,-1.4787,-1.5597,-1.7661,-1.8997,0.0,0.0,0.0,0.0,0.0,0.0,0.0,0.0,0.0,0.0,0.0,0.0,0.0,0.0,0.0,0.0,-1.4958,0.0,0.0,0.0,0.0,0.0,0.0,0.0,0.0,0.0,0.0,0.0,0.0,0.0,0.0,0.0,0.0,0.0,0.0,0.0,0.0,0.0,0.0,0.0,0.0,0.0,0.0,0.0,0.0,0.0,0.0,0.0,0.0,0.0,0.0,0.0,-2.3833,-2.4001,-2.5576,-2.6178,-2.4951,-2.6105,-2.7212,-2.7945,-2.8979,-2.9881,-3.0579,-3.1681,-3.2259,-3.2259,-3.308,-3.3549,-3.3549,-3.3717,-3.3813,-3.3813,-3.3813,-3.3813,-3.3813,-3.3813,-3.3813,-3.3813,-3.3813,-3.3813,-3.3813,-3.3813,-3.3597,-3.313,-3.1779,-3.1139,-3.0869,-3.0084,-2.9476,-2.9049,-0.8183,-0.7986,-0.7797,-0.779,-0.7687,-0.7605,-0.7605,-0.8186,-0.908,-1.0343,-1.2233,0.0,0.0,0.0,0.0,0.0,0.0,0.0,0.0,-1.7402,-1.655,-1.6172,-1.6756,-1.7757,-1.9134,0.0,0.0,0.0,0.0,0.0,0.0,0.0,0.0,0.0,0.0,0.0,0.0,0.0,0.0,0.0,0.0,0.0,-1.7145,0.0,0.0,0.0,0.0,0.0,0.0,0.0,0.0,0.0,0.0,0.0,0.0,0.0,0.0,0.0,0.0,0.0,0.0,0.0,0.0,0.0,0.0,0.0,0.0,0.0,0.0,0.0,0.0,0.0,0.0,0.0,0.0,0.0,-2.1524,-2.3761,-2.5204,-2.4723,-2.7428,-2.8727,-2.7138,-2.8919,-3.0134,-3.0134,-3.1163,-3.1765,-3.1765,-3.2731,-3.3308,-3.3308,-3.3813,-3.4042,-3.4042,-3.457,-3.4823,-3.4823,-3.4823,-3.4823,-3.4823,-3.4823,-3.4823,-3.4823,-3.4823,-3.4823,-3.4799,-3.4799,-3.4799,-3.4679,-3.3717,-3.3005,-3.2465,-3.1933,-3.1397,-3.0849,-0.7964,-0.7928,-0.7885,-0.7687,-0.7627,-0.7605,-0.7605,-0.8578,-0.9604,-1.0401,-1.2992,0.0,0.0,0.0,0.0,0.0,0.0,0.0,-1.8721,0.0,-1.7217,-1.74,-1.8536,0.0,0.0,0.0,0.0,0.0,0.0,0.0,0.0,0.0,0.0,0.0,0.0,0.0,0.0,0.0,0.0,0.0,0.0,0.0,-1.8729,0.0,0.0,0.0,0.0,0.0,0.0,0.0,0.0,0.0,0.0,0.0,0.0,0.0,0.0,0.0,0.0,0.0,0.0,0.0,0.0,0.0,0.0,0.0,0.0,0.0,0.0,0.0,0.0,0.0,0.0,0.0,0.0,-2.4242,-2.4242,-2.5865,-2.7284,-2.7909,-2.91,-2.9701,-2.9256,-3.0446,-3.1271,-3.1271,-3.2226,-3.2839,-3.2839,-3.3477,-3.379,-3.379,-3.4715,-3.5184,-3.5184,-3.5713,-3.5966,-3.5966,-3.5966,-3.5966,-3.5966,-3.5966,-3.5966,-3.5966,-3.5966,-3.5749,-3.54,-3.54,-3.5172,-3.4715,-3.4042,-3.3494,-3.2958,-3.244,-3.1731,-3.0856,-0.7934,-0.7942,-0.7914,-0.765,-0.7605,-0.7605,-0.7605,-0.8738,-0.9918,-1.0799,-1.3484,0.0,0.0,0.0,0.0,0.0,0.0,0.0,-1.8323,-1.7835,-1.7966,0.0,0.0,0.0,0.0,0.0,0.0,0.0,0.0,0.0,0.0,0.0,0.0,0.0,0.0,0.0,0.0,0.0,0.0,0.0,0.0,0.0,-2.0446,-1.9191,-1.7861,-1.6571,-1.5871,-1.5449,-1.5124,-1.4156,0.0,0.0,0.0,0.0,0.0,0.0,0.0,0.0,0.0,0.0,0.0,0.0,0.0,0.0,0.0,0.0,0.0,0.0,0.0,0.0,0.0,0.0,0.0,0.0,-2.4687,-2.6466,-2.6923,-2.7789,-2.8691,-2.9532,-3.0098,-3.0506,-3.0766,-3.156,-3.2106,-3.2322,-3.3128,-3.3609,-3.3609,-3.4306,-3.4655,-3.4655,-3.5509,-3.5954,-3.5954,-3.6254,-3.6411,-3.6411,-3.6411,-3.6411,-3.6411,-3.6411,-3.6411,-3.6411,-3.6411,-3.623,-3.5954,-3.5954,-3.5761,0.0,0.0,0.0,0.0,0.0,-3.2478,-3.1472,-0.8034,-0.8,-0.7914,-0.765,-0.7605,-0.7605,-0.7605,-0.8738,-1.0049,-1.1329,0.0,0.0,0.0,0.0,0.0,0.0,0.0,0.0,0.0,0.0,0.0,-2.039,0.0,0.0,0.0,0.0,0.0,0.0,0.0,0.0,0.0,0.0,0.0,0.0,0.0,0.0,0.0,0.0,0.0,0.0,0.0,0.0,-2.2172,-2.1079,-2.006,-1.9035,-1.7977,-1.7303,-1.6727,-1.5232,0.0,0.0,0.0,0.0,0.0,0.0,0.0,0.0,0.0,0.0,0.0,0.0,0.0,0.0,0.0,0.0,0.0,0.0,0.0,0.0,0.0,0.0,0.0,0.0,-2.6839,-2.827,-2.9328,-2.9484,-2.9653,-3.0122,-3.0699,-3.1284,-3.1753,-3.231,-3.2863,-3.3344,-3.3897,-3.4174,-3.4174,0.0,0.0,0.0,0.0,-3.6495,-3.6495,-3.6555,-3.6579,-3.6579,-3.6579,-3.6579,-3.6579,-3.6579,-3.6579,-3.6579,-3.6579,-3.6555,-3.6495,-3.6495,-3.6459,-3.6302,-3.5206,-3.4774,-3.4628,-3.4089,-3.3305,-3.2422,-0.8034,-0.8,-0.7914,-0.765,-0.7605,-0.7605,-0.7605,-0.8738,-1.0049,-1.1329,-1.3252,0.0,0.0,0.0,0.0,0.0,0.0,0.0,0.0,0.0,0.0,0.0,0.0,0.0,0.0,0.0,0.0,0.0,0.0,0.0,0.0,0.0,0.0,0.0,0.0,0.0,0.0,0.0,0.0,0.0,0.0,0.0,-2.3284,-2.2192,-2.1162,-2.0153,-1.9071,-1.8891,-1.8987,-1.7832,-1.7159,-1.6762,-1.6558,0.0,0.0,0.0,0.0,0.0,0.0,0.0,0.0,0.0,0.0,0.0,0.0,0.0,0.0,0.0,0.0,0.0,0.0,0.0,0.0,-2.6357,-2.7957,-2.9364,-3.0422,-3.0567,-3.0645,-3.0711,-3.1589,-3.2226,-3.2334,-3.3188,-3.3742,-3.3838,-3.4727,-3.5304,-3.5304,-3.5905,-3.6254,-3.6254,-3.6771,-3.7048,-3.7048,-3.7457,-3.7673,-3.7673,0.0,0.0,-3.7673,-3.7673,-3.7673,-3.7673,-3.7673,-3.7433,-3.7048,-3.7048,-3.6795,-3.6288,-3.5212,-3.4554,-3.4089,-3.3545,-3.2967,-3.2476,-0.8034,-0.8,-0.7914,-0.765,-0.7605,-0.7605,-0.7605,-0.8447,-0.9555,-1.0828,-1.2657,0.0,0.0,0.0,0.0,0.0,0.0,0.0,0.0,0.0,0.0,0.0,0.0,0.0,0.0,0.0,0.0,0.0,0.0,0.0,0.0,0.0,0.0,0.0,0.0,0.0,0.0,0.0,0.0,0.0,0.0,0.0,-2.4389,-2.3025,-2.1886,-2.0935,-2.0394,-2.0021,-1.9688,-1.8867,-1.8241,-1.776,-1.7471,-1.669,-1.575,0.0,0.0,0.0,0.0,0.0,0.0,0.0,0.0,0.0,0.0,0.0,0.0,0.0,0.0,-2.2991,-2.4326,0.0,-2.6959,-2.8294,-2.94,-3.0266,-3.0807,-3.1151,-3.1416,-3.1661,-3.2166,-3.2707,-3.3224,-3.3694,-3.421,-3.4739,-3.5316,-3.5737,-3.6002,-3.6519,-3.6795,-3.6795,-3.7312,-3.7589,-3.7589,-3.7853,-3.7986,-3.7986,-3.7986,-3.7986,-3.7986,-3.7986,-3.7986,-3.7986,-3.7986,-3.7829,-3.7589,-3.7589,-3.7276,-3.6771,-3.62,-3.5515,-3.4776,-3.4478,-3.4053,-3.3621,-0.8034,-0.8,-0.7914,-0.765,-0.7605,-0.7605,-0.7605,-0.8172,-0.9051,-1.0328,-1.1986,-1.3307,-1.405,-1.5037,-1.556,0.0,0.0,0.0,0.0,0.0,0.0,0.0,0.0,0.0,0.0,0.0,0.0,0.0,0.0,0.0,0.0,0.0,0.0,0.0,0.0,0.0,0.0,0.0,0.0,0.0,0.0,0.0,-2.5198,-2.3442,-2.2256,-2.1536,-2.132,-2.061,-1.9724,-1.9167,-1.8638,-1.8145,-1.782,-1.7652,-1.74,-1.6523,-1.6032,0.0,0.0,0.0,0.0,0.0,0.0,0.0,0.0,0.0,-2.1458,-2.3484,-2.4432,-2.5372,-2.7079,-2.7786,-2.8631,-3.0013,-3.0603,-3.0958,-3.1055,-3.144,-3.191,-3.243,-3.2587,-3.302,-3.3898,-3.409,-3.4546,-3.5545,-3.5713,-3.6002,-3.6531,-3.706,-3.7348,-3.7348,-3.7757,-3.7986,-3.7986,-3.7986,-3.7986,-3.7986,-3.7986,-3.7986,-3.7986,-3.7986,-3.7986,-3.7986,-3.7986,-3.7986,-3.7986,-3.7986,-3.7733,-3.7348,-3.7348,-3.6759,-3.5905,-3.5809,-3.5397,-3.4866,-0.8034,-0.8,-0.7914,-0.765,-0.7605,-0.7605,-0.7605,-0.8172,-0.9051,-1.0328,-1.1216,-1.2158,-1.3365,-1.3627,-1.4136,0.0,0.0,0.0,0.0,0.0,0.0,0.0,0.0,0.0,0.0,0.0,0.0,0.0,0.0,0.0,0.0,0.0,0.0,0.0,0.0,0.0,0.0,0.0,0.0,0.0,0.0,0.0,-2.5166,-2.3083,-2.2211,-2.1981,-2.1043,-2.031,-1.9724,-1.9167,-1.8638,-1.8277,-1.8686,-1.8494,-1.8097,-1.7977,0.0,-1.6056,-1.7339,-1.853,0.0,-2.0706,-2.1043,-2.1993,0.0,0.0,-2.5168,-2.6839,-2.7981,-2.8751,-2.8991,-2.946,-3.0037,-3.0718,-3.0874,-3.1091,-3.1548,-3.1669,-3.191,-3.243,-3.2911,-3.3416,-3.3934,-3.4414,-3.4943,-3.5569,-3.605,-3.6543,-3.7072,-3.7601,-3.789,-3.789,-3.795,-3.7986,-3.7986,-3.7986,-3.7986,-3.7986,-3.7986,-3.7986,-3.7986,-3.7986,-3.7986,-3.7986,-3.7986,-3.7986,-3.7986,-3.7986,-3.795,-3.789,-3.789,-3.7529,-3.6952,-3.6495,-3.5974,-3.5498,-0.8034,-0.8,-0.7914,-0.765,-0.7605,-0.7605,-0.7605,-0.7837,-0.8483,-0.9797,-1.0523,-1.1274,-1.2187,-1.2289,-1.2812,-1.4078,0.0,0.0,0.0,0.0,0.0,0.0,0.0,0.0,0.0,0.0,0.0,0.0,0.0,0.0,0.0,0.0,0.0,0.0,0.0,0.0,0.0,0.0,0.0,0.0,0.0,0.0,-2.4721,-2.2896,-2.1813,-2.1211,-2.0754,-2.0033,0.0,0.0,-1.8181,-1.7784,-1.8001,-1.7917,-1.7724,-1.7724,-1.7929,0.0,-2.0839,0.0,0.0,0.0,-2.3896,-2.4904,-2.6166,-2.6586,-2.7079,-2.8366,-2.9232,-2.9845,-3.0158,-3.0398,-3.0766,0.0,-3.1613,-3.1781,-3.1717,-3.1994,-3.2238,-3.2466,-3.2695,-3.3152,-3.391,-3.4186,-3.4799,-3.599,-3.6278,-3.6771,-3.7613,-3.7866,-3.7986,-3.7986,-3.7986,-3.7986,-3.7986,-3.7986,-3.7986,-3.7986,-3.7986,-3.7986,-3.7986,-3.7986,-3.7986,-3.7986,-3.7986,-3.7986,-3.7986,-3.7986,-3.7986,-3.7986,-3.7986,-3.7841,-3.7589,-3.706,-3.6509,-3.6069,-0.8092,-0.8028,-0.7921,-0.7694,-0.7627,-0.7605,-0.7605,-0.7605,-0.8083,-0.9424,-0.9971,-1.0567,-1.1402,-1.1489,-1.2013,-1.3291,-1.4558,-1.6314,0.0,0.0,0.0,0.0,0.0,0.0,0.0,0.0,0.0,0.0,0.0,0.0,0.0,0.0,0.0,0.0,0.0,0.0,0.0,0.0,0.0,0.0,0.0,0.0,-2.4154,-2.2427,-2.1091,-2.0165,-2.0169,-1.9483,0.0,0.0,-1.7495,-1.7171,-1.7171,-1.7267,-1.7496,-1.7941,-1.93,-2.1048,-2.2698,0.0,0.0,-2.4831,-2.6033,-2.7078,-2.7007,-2.7476,-2.8234,-2.9304,-2.9701,-3.0025,-3.0555,-3.0783,0.0,-3.1621,-3.213,-3.2358,-3.1994,-3.225,-3.2442,-3.2286,-3.2274,-3.2683,-3.3729,-3.391,-3.4643,-3.629,-3.6411,-3.6867,-3.7926,-3.7986,-3.7986,-3.7986,-3.7986,-3.7986,-3.7986,-3.7986,-3.7986,-3.7986,-3.7986,-3.7986,-3.7986,-3.7986,-3.7986,-3.7986,-3.7986,-3.7986,-3.7986,-3.7986,-3.7986,-3.7986,-3.7986,-3.7986,-3.7938,-3.7553,-3.7168,-3.6819,-0.8211,-0.8085,-0.7949,-0.7827,-0.7687,-0.7605,-0.7605,-0.7605,-0.8083,-0.9424,-0.9613,-1.0107,-1.1358,-1.1489,-1.2013,-1.3291,-1.4558,-1.6124,-1.81,-1.9986,0.0,0.0,0.0,0.0,0.0,0.0,0.0,0.0,0.0,0.0,0.0,0.0,0.0,0.0,0.0,0.0,0.0,0.0,0.0,0.0,0.0,0.0,-2.3492,-2.1435,-1.9985,-1.9035,-1.9035,0.0,0.0,0.0,-1.6643,-1.6619,-1.6619,-1.6979,0.0,-1.9263,-2.1241,0.0,0.0,0.0,-2.5384,-2.5913,-2.6875,-2.7957,-2.8967,-2.8835,-2.8787,-2.9845,-2.9665,-2.9484,-3.0013,-3.053,-3.1091,-3.1621,-3.213,-3.2491,-3.2478,-3.2491,-3.2298,-3.1801,-3.1729,-3.2163,0.0,-3.3753,-3.4643,-3.629,-3.6411,-3.6867,-3.7926,-3.7986,-3.7986,-3.7986,-3.7986,-3.7986,-3.7986,-3.7986,-3.7986,-3.7986,-3.7986,-3.7986,-3.7986,-3.7986,-3.7986,-3.7986,-3.7986,-3.7986,-3.7986,-3.7986,-3.7986,-3.7986,-3.7986,-3.7986,-3.7986,-3.7962,-3.795,-3.7866,-0.8217,-0.8085,-0.7949,-0.7827,-0.7687,-0.7605,-0.7605,-0.7605,-0.8083,-0.9424,-1.035,0.0,0.0,0.0,0.0,0.0,-1.3891,-1.5457,-1.7417,-1.8927,0.0,0.0,0.0,0.0,0.0,0.0,0.0,0.0,0.0,0.0,0.0,0.0,0.0,0.0,0.0,0.0,0.0,0.0,0.0,0.0,0.0,0.0,-2.2506,-2.0742,-1.9396,-1.8422,0.0,0.0,0.0,0.0,0.0,0.0,-1.6056,0.0,0.0,-1.9107,0.0,-2.2678,0.0,0.0,-2.6561,-2.7476,-2.8234,-2.8871,-2.922,-2.9436,-2.9556,-2.9569,-2.9701,-2.9881,-3.0062,-3.023,-3.053,-3.1103,-3.1913,-3.2503,-3.2503,-3.3092,-3.32,-3.2322,-3.2527,0.0,0.0,0.0,0.0,-3.6266,-3.6411,-3.6867,-3.7926,-3.7986,-3.7986,-3.7986,-3.7986,-3.7986,-3.7986,-3.7986,-3.7986,-3.7986,-3.7986,-3.7986,-3.7986,-3.7986,-3.7986,-3.7986,-3.7986,-3.7986,-3.7986,-3.7986,-3.7986,-3.7986,-3.7986,-3.7986,-3.7986,-3.7986,-3.7986,-3.795,-0.8241,-0.8147,-0.8028,-0.7892,-0.7761,0.0,0.0,0.0,0.0,0.0,0.0,0.0,0.0,0.0,0.0,0.0,0.0,-1.4935,-1.6414,0.0,0.0,0.0,0.0,0.0,0.0,0.0,0.0,0.0,0.0,0.0,0.0,0.0,0.0,0.0,0.0,0.0,0.0,0.0,0.0,0.0,0.0,0.0,-2.135,-1.9738,-1.85,0.0,0.0,0.0,0.0,0.0,0.0,0.0,0.0,0.0,0.0,-2.0141,-2.1909,-2.3725,0.0,-2.6645,-2.7474,-2.8763,-2.9184,-2.9352,-2.9532,-2.9556,-2.9424,-2.9088,-2.8979,-2.8967,-2.8967,-2.8967,-2.9316,-3.041,-3.1492,-3.2334,-3.2731,-3.3513,-3.3682,-3.2887,-3.3248,-3.3633,0.0,0.0,0.0,-3.629,-3.6579,-3.7072,-3.7938,-3.7986,-3.7986,-3.7986,-3.7986,-3.7986,-3.7986,-3.7986,-3.7986,-3.7986,-3.7986,-3.7986,-3.7986,-3.7986,-3.7986,-3.7986,-3.7986,-3.7986,-3.7986,-3.7986,-3.7986,-3.7986,-3.7986,-3.7986,-3.7986,-3.7986,-3.7986,-3.7986,-0.8293,-0.8247,-0.8156,0.0,0.0,0.0,0.0,0.0,0.0,0.0,0.0,0.0,0.0,0.0,0.0,0.0,0.0,0.0,0.0,0.0,0.0,0.0,0.0,0.0,-2.1815,-2.1946,0.0,0.0,0.0,0.0,0.0,0.0,0.0,0.0,0.0,0.0,0.0,0.0,0.0,0.0,0.0,0.0,-2.0053,-1.8484,0.0,0.0,0.0,0.0,0.0,0.0,0.0,0.0,0.0,0.0,0.0,0.0,0.0,-2.5733,-2.7296,-2.775,-2.821,-2.9749,-2.9737,-2.9472,-2.9965,-2.9268,-2.8486,-2.8402,-2.7572,-2.6789,0.0,0.0,-2.7522,-2.9629,-3.097,-3.209,-3.314,-3.3765,-3.3933,0.0,0.0,0.0,0.0,0.0,0.0,-3.6411,0.0,-3.7421,-3.795,-3.7986,-3.7986,-3.7986,-3.7986,-3.7986,-3.7986,-3.7986,-3.7986,-3.7986,-3.7986,-3.7986,-3.7986,-3.7986,-3.7986,-3.7986,-3.7986,-3.7986,-3.7986,-3.7986,-3.7986,-3.7986,-3.7986,-3.7986,-3.7986,-3.7986,-3.7986,-3.7986,0.0,0.0,0.0,0.0,0.0,0.0,0.0,0.0,0.0,0.0,0.0,0.0,0.0,0.0,0.0,0.0,0.0,0.0,0.0,0.0,0.0,0.0,0.0,0.0,0.0,0.0,0.0,0.0,0.0,0.0,0.0,0.0,0.0,0.0,0.0,0.0,0.0,0.0,0.0,0.0,0.0,0.0,-1.9231,0.0,0.0,0.0,0.0,0.0,0.0,0.0,0.0,0.0,0.0,0.0,-2.2859,0.0,0.0,-2.6657,-2.7462,-2.8582,-2.9677,-3.047,-3.0278,-2.9917,-3.0062,-2.9268,-2.8174,-2.6959,-2.619,-2.5492,-2.4723,0.0,0.0,-2.8102,-3.0206,0.0,-3.314,-3.4402,0.0,0.0,0.0,-3.5701,-3.5437,-3.6242,0.0,0.0,-3.712,-3.7421,-3.795,-3.7986,-3.7986,-3.7986,-3.7986,-3.7986,-3.7986,-3.7986,-3.7986,-3.7986,-3.7986,-3.7986,-3.7986,-3.7986,-3.7986,-3.7986,-3.7986,-3.7986,-3.7986,-3.7986,-3.7986,-3.7986,-3.7986,-3.7986,-3.7986,-3.7986,-3.7986,-3.7986,0.0,0.0,0.0,0.0,0.0,0.0,0.0,0.0,0.0,0.0,0.0,0.0,0.0,0.0,0.0,0.0,0.0,0.0,0.0,0.0,0.0,0.0,0.0,0.0,0.0,0.0,0.0,0.0,0.0,0.0,0.0,0.0,0.0,0.0,0.0,0.0,0.0,0.0,0.0,0.0,0.0,0.0,0.0,0.0,0.0,0.0,0.0,0.0,0.0,0.0,0.0,-2.1434,-2.2101,-2.3256,-2.4458,-2.4999,0.0,-2.775,-2.8546,-2.9581,-3.0506,-3.0807,-3.0482,-2.9845,-2.8919,-2.8053,-2.6863,-2.4807,-2.4145,0.0,0.0,0.0,0.0,0.0,0.0,0.0,-3.2791,-3.4487,-3.5509,0.0,-3.611,0.0,-3.6338,-3.7048,-3.7541,0.0,-3.7541,-3.7661,-3.7962,-3.7986,-3.7986,-3.7986,-3.7986,-3.7986,-3.7986,-3.7986,-3.7986,-3.7986,-3.7986,-3.7986,-3.7986,-3.7986,-3.7986,-3.7986,0.0,-3.7986,-3.7986,-3.7986,-3.7986,-3.7986,-3.7986,-3.7986,-3.7986,-3.7986,-3.7986,-3.7986,0.0,0.0,0.0,0.0,0.0,0.0,0.0,0.0,0.0,0.0,0.0,0.0,0.0,0.0,0.0,0.0,0.0,0.0,0.0,0.0,0.0,0.0,0.0,0.0,0.0,0.0,0.0,0.0,0.0,0.0,0.0,0.0,0.0,0.0,0.0,0.0,0.0,0.0,0.0,0.0,0.0,0.0,0.0,0.0,0.0,0.0,0.0,0.0,0.0,0.0,-2.156,-2.2871,-2.4362,-2.5564,-2.6514,-2.697,-2.7858,-2.8919,-2.9833,-3.0518,-3.1007,-3.0934,-3.0422,-2.9448,-2.7366,-2.6334,-2.5071,-2.251,0.0,0.0,-2.047,0.0,-2.3902,-2.5107,0.0,-3.112,-3.243,-3.4342,-3.5641,-3.5713,-3.6651,-3.73,-3.73,-3.7709,-3.7986,-3.7986,-3.7986,-3.7986,-3.7986,-3.7986,-3.7986,-3.7986,-3.7986,-3.7986,-3.7986,-3.7986,-3.7986,-3.7986,-3.7986,-3.7986,-3.7986,-3.7986,-3.7986,-3.7986,-3.7986,0.0,-3.7986,-3.7986,-3.7986,-3.7986,-3.7986,-3.7986,-3.7986,-3.7986,-3.7986,-3.7986,0.0,0.0,0.0,0.0,0.0,0.0,0.0,0.0,0.0,0.0,-1.2085,-1.1489,0.0,0.0,0.0,0.0,0.0,0.0,0.0,0.0,0.0,0.0,0.0,0.0,0.0,0.0,0.0,0.0,0.0,0.0,0.0,0.0,0.0,0.0,0.0,0.0,0.0,0.0,0.0,0.0,0.0,0.0,0.0,0.0,0.0,0.0,0.0,0.0,0.0,0.0,-2.2823,-2.4975,-2.6117,-2.7198,-2.8114,-2.821,-2.8979,-2.9845,-3.0037,-3.0838,-3.1464,-3.1031,-3.0146,-2.8991,-2.7282,-2.5504,0.0,0.0,0.0,-1.936,-1.8734,-2.037,0.0,-2.4927,0.0,0.0,0.0,0.0,-3.5773,0.0,0.0,0.0,0.0,0.0,0.0,0.0,0.0,-3.7986,-3.7986,-3.7986,-3.7986,-3.7986,-3.7986,-3.7986,-3.7986,-3.7986,-3.7986,-3.7986,-3.7986,-3.7986,-3.7986,-3.7986,-3.7986,-3.7986,-3.7986,0.0,-3.7986,-3.7986,-3.7986,-3.7986,-3.7986,-3.7986,-3.7986,-3.7986,-3.7986,-3.7986,0.0,0.0,0.0,0.0,0.0,0.0,0.0,-1.1675,-1.2943,-1.4224,-1.386,-1.3339,-1.3003,-1.2681,0.0,0.0,0.0,0.0,0.0,0.0,0.0,0.0,0.0,0.0,0.0,0.0,0.0,0.0,0.0,0.0,0.0,0.0,0.0,0.0,0.0,0.0,0.0,0.0,0.0,0.0,0.0,0.0,0.0,0.0,0.0,0.0,0.0,0.0,0.0,0.0,-2.1728,-2.4109,-2.6537,-2.7846,-2.851,-2.851,-2.9256,-3.0086,-3.0086,-3.0898,-3.1512,-3.0706,-2.9881,-2.8522,-2.5552,0.0,0.0,0.0,0.0,-1.7929,-1.7099,0.0,0.0,0.0,0.0,0.0,0.0,0.0,0.0,0.0,0.0,0.0,0.0,0.0,0.0,0.0,0.0,-3.7986,-3.7986,-3.7986,-3.7986,-3.7986,-3.7986,-3.7986,-3.7986,-3.7986,-3.7986,-3.7986,-3.7986,-3.7986,-3.7986,-3.7986,-3.7986,-3.7986,-3.7986,0.0,-3.7986,-3.7986,-3.7986,-3.7986,-3.7986,-3.7986,-3.7986,-3.7986,-3.7986,-3.7986,0.0,0.0,0.0,0.0,0.0,0.0,0.0,-1.2609,-1.4049,-1.5327,-1.5617,-1.5516,-1.4979,-1.4136,-1.3598,0.0,0.0,0.0,0.0,0.0,0.0,0.0,0.0,0.0,0.0,0.0,0.0,0.0,0.0,0.0,0.0,0.0,0.0,0.0,0.0,0.0,0.0,0.0,0.0,0.0,0.0,0.0,0.0,0.0,0.0,0.0,0.0,0.0,0.0,0.0,-2.0021,-2.2077,-2.5336,-2.7115,-2.8017,-2.8138,-2.8919,-2.9797,-3.0025,-3.0814,-3.1308,-3.0326,-2.9605,-2.8053,-2.3929,-2.2421,0.0,0.0,0.0,-1.6835,-1.6114,0.0,0.0,0.0,0.0,0.0,0.0,0.0,0.0,0.0,0.0,0.0,0.0,0.0,0.0,0.0,0.0,0.0,-3.7986,-3.7986,-3.7986,-3.7986,-3.7986,-3.7986,-3.7986,-3.7986,-3.7986,-3.7986,-3.7986,-3.7986,-3.7986,-3.7986,-3.7986,-3.7986,-3.7986,0.0,0.0,-3.7986,-3.7986,-3.7986,-3.7986,-3.7986,-3.7986,-3.7986,-3.7986,-3.7986,0.0,0.0,0.0,0.0,0.0,0.0,0.0,-1.2659,-1.466,-1.595,-1.6648,-1.7011,-1.6936,-1.5313,-1.421,0.0,0.0,0.0,0.0,0.0,0.0,0.0,0.0,0.0,0.0,0.0,0.0,0.0,0.0,0.0,0.0,0.0,0.0,0.0,0.0,0.0,0.0,0.0,0.0,0.0,0.0,0.0,0.0,0.0,0.0,0.0,0.0,0.0,0.0,0.0,0.0,-1.96,-2.1416,-2.3977,-2.6418,-2.6885,0.0,0.0,-2.9833,-3.0549,-3.0807,-3.023,-2.9328,-2.7596,-2.3833,0.0,0.0,0.0,-1.6259,-1.6078,-1.6463,0.0,0.0,0.0,0.0,0.0,0.0,0.0,0.0,0.0,0.0,0.0,0.0,0.0,0.0,0.0,0.0,0.0,-3.7986,-3.7986,-3.7986,-3.7986,-3.7986,-3.7986,-3.7986,-3.7986,-3.7986,-3.7986,-3.7986,-3.7986,-3.7986,-3.7986,-3.7986,-3.7986,-3.7986,0.0,0.0,-3.7986,-3.7986,-3.7986,-3.7986,-3.7986,-3.7986,-3.7986,-3.7986,-3.7986,0.0,0.0,0.0,0.0,0.0,0.0,-1.1575,-1.291,-1.4645,-1.7084,-1.727,-1.7342,-1.7766,-1.6748,-1.5733,0.0,0.0,0.0,0.0,0.0,0.0,0.0,0.0,0.0,0.0,0.0,0.0,0.0,0.0,0.0,0.0,0.0,0.0,0.0,0.0,0.0,0.0,0.0,0.0,0.0,0.0,0.0,0.0,0.0,0.0,0.0,0.0,0.0,0.0,0.0,0.0,0.0,-1.8794,-2.0514,0.0,0.0,-2.6719,-2.7822,-2.9232,-3.0001,-3.0278,-2.9749,-2.8582,-2.6683,-2.328,0.0,0.0,-1.6667,-1.5936,-1.5886,-1.609,-1.6559,-1.7639,0.0,-2.1055,0.0,0.0,0.0,0.0,0.0,0.0,0.0,0.0,0.0,0.0,0.0,0.0,0.0,-3.7986,-3.7986,-3.7986,-3.7986,-3.7986,-3.7986,-3.7986,-3.7986,-3.7986,-3.7986,-3.7986,-3.7986,-3.7986,-3.7986,-3.7986,-3.7986,-3.7986,0.0,0.0,-3.7986,-3.7986,-3.7986,-3.7986,-3.7986,-3.7986,-3.7986,-3.7986,-3.7986,0.0,0.0,0.0,0.0,0.0,-1.0364,-1.1762,-1.2937,-1.4558,-1.7026,-1.7098,-1.7171,-1.7838,-1.6982,-1.6124,-1.5602,0.0,0.0,0.0,0.0,0.0,0.0,0.0,0.0,0.0,0.0,0.0,0.0,0.0,0.0,0.0,0.0,0.0,0.0,0.0,0.0,0.0,0.0,0.0,0.0,0.0,0.0,0.0,0.0,0.0,0.0,0.0,0.0,0.0,0.0,0.0,0.0,0.0,0.0,0.0,0.0,-2.5252,-2.6561,-2.8354,-2.9328,-2.9761,-2.9388,-2.8114,-2.6069,0.0,0.0,-1.9035,-1.6355,-1.5792,-1.5792,-1.5792,-1.6104,-1.6883,0.0,-1.9495,-2.1277,-2.4807,0.0,0.0,0.0,0.0,0.0,0.0,0.0,0.0,0.0,0.0,0.0,0.0,-3.7986,-3.7986,-3.7986,-3.7986,-3.7986,-3.7986,-3.7986,-3.7986,-3.7986,-3.7986,-3.7986,-3.7986,-3.7986,-3.7986,-3.7986,-3.7986,0.0,0.0,-3.7986,-3.7986,-3.7986,-3.7986,-3.7986,-3.7986,-3.7986,-3.7986,-3.7986,0.0,0.0,0.0,0.0,0.0,0.0,-1.0456,-1.2673,-1.4544,-1.524,-1.5834,-1.6474,-1.7142,-1.5502,-1.4834,-1.6082,0.0,0.0,0.0,0.0,0.0,0.0,0.0,0.0,0.0,0.0,-1.6101,-1.6895,-1.7093,0.0,0.0,0.0,0.0,0.0,0.0,0.0,0.0,0.0,0.0,0.0,0.0,0.0,0.0,0.0,0.0,0.0,0.0,0.0,0.0,0.0,0.0,0.0,0.0,0.0,0.0,0.0,-2.3328,-2.4976,-2.7126,-2.851,-2.9304,-2.9304,-2.8114,-2.6069,0.0,-2.0976,-1.9035,-1.6355,-1.5792,-1.5792,-1.5792,-1.5792,-1.6343,-1.7953,-1.9567,-2.1699,0.0,0.0,0.0,0.0,0.0,0.0,0.0,0.0,0.0,0.0,0.0,0.0,0.0,-3.7986,-3.7986,-3.7986,-3.7986,-3.7986,-3.7986,-3.7986,-3.7986,-3.7986,-3.7986,-3.7986,-3.7986,-3.7986,-3.7986,0.0,0.0,0.0,0.0,-3.7986,-3.7986,-3.7986,-3.7986,-3.7986,-3.7986,-3.7986,-3.7986,-3.7986,0.0,0.0,0.0,0.0,0.0,0.0,0.0,-1.1238,-1.2412,-1.4355,-1.4413,-1.4703,-1.5776,-1.4935,-1.4645,-1.5501,0.0,0.0,0.0,0.0,0.0,0.0,0.0,0.0,0.0,0.0,-1.6201,-1.6687,-1.7175,-1.7503,0.0,0.0,0.0,0.0,0.0,0.0,0.0,0.0,0.0,0.0,0.0,0.0,0.0,0.0,0.0,0.0,0.0,0.0,0.0,0.0,0.0,0.0,0.0,0.0,0.0,-1.8374,0.0,0.0,-2.3664,-2.4711,-2.5383,-2.4626,-2.3797,-2.2606,-2.049,-1.9324,-1.8157,-1.6211,-1.5792,-1.5792,-1.5792,-1.5792,-1.6691,-1.9393,0.0,0.0,0.0,0.0,0.0,0.0,0.0,0.0,0.0,0.0,0.0,0.0,0.0,0.0,0.0,-3.7986,-3.7986,-3.7986,-3.7986,-3.7986,-3.7986,-3.7986,-3.7986,-3.7986,-3.7986,-3.7986,-3.7986,-3.7986,-3.7986,0.0,0.0,0.0,0.0,-3.7986,-3.7986,-3.7986,-3.7986,-3.7986,-3.7986,-3.7986,-3.7986,-3.7986,0.0,0.0,0.0,0.0,0.0,0.0,0.0,-1.0462,-1.1452,-1.3034,-1.3119,-1.3512,-1.4776,-1.3919,-1.3803,-1.5182,0.0,0.0,0.0,0.0,0.0,0.0,0.0,0.0,-1.5013,-1.5437,-1.5895,-1.6289,-1.6651,-1.7019,-1.7407,-1.6623,-1.6115,0.0,0.0,0.0,0.0,0.0,0.0,0.0,0.0,0.0,-1.5259,0.0,0.0,0.0,0.0,0.0,0.0,0.0,0.0,0.0,0.0,0.0,0.0,0.0,-1.8124,-2.0141,0.0,-2.2397,-2.3047,-2.2354,-2.1644,-2.073,-1.9312,-1.8434,-1.7508,-1.6102,-1.5792,-1.5792,-1.5792,-1.5792,-1.6595,-1.8996,0.0,0.0,0.0,0.0,0.0,0.0,0.0,0.0,0.0,0.0,0.0,0.0,0.0,0.0,0.0,-3.7986,-3.7986,-3.7986,-3.7986,-3.7986,-3.7986,-3.7986,-3.7986,-3.7986,-3.7986,-3.7986,-3.7986,-3.7986,-3.7986,0.0,0.0,0.0,0.0,-3.7986,-3.7986,-3.7986,-3.7986,-3.7986,-3.7986,-3.7986,-3.7986,-3.7986,0.0,0.0,0.0,0.0,0.0,0.0,0.0,0.0,-1.1384,-1.1416,-1.196,-1.2789,-1.3964,-1.2538,-1.248,-1.495,0.0,0.0,0.0,0.0,0.0,0.0,0.0,0.0,-1.4953,-1.4987,-1.5238,-1.5786,-1.576,-1.6028,-1.6529,-1.6374,-1.5929,-1.5295,-1.4728,0.0,0.0,0.0,0.0,0.0,0.0,-1.5223,0.0,0.0,0.0,0.0,0.0,0.0,0.0,0.0,0.0,0.0,0.0,0.0,0.0,0.0,0.0,0.0,0.0,-2.1019,-2.1837,-2.1765,-2.1031,-2.0029,-1.8999,-1.8037,0.0,-1.5996,-1.5792,-1.584,-1.5962,-1.596,-1.6355,-1.7627,0.0,0.0,0.0,0.0,0.0,0.0,0.0,0.0,0.0,0.0,0.0,0.0,0.0,0.0,0.0,-3.7986,-3.7986,-3.7986,-3.7986,-3.7986,-3.7986,-3.7986,-3.7986,-3.7986,-3.7986,-3.7986,-3.7986,-3.7986,-3.7986,0.0,0.0,0.0,0.0,-3.7986,-3.7986,-3.7986,-3.7986,-3.7986,-3.7986,-3.7986,-3.7986,-3.7986,0.0,0.0,0.0,0.0,0.0,0.0,0.0,0.0,0.0,0.0,-1.1318,-1.1838,-1.2129,-1.1765,-1.2129,0.0,0.0,0.0,0.0,0.0,0.0,0.0,0.0,0.0,-1.4611,-1.4764,-1.5106,-1.5642,-1.6143,-1.6577,-1.6958,-1.7081,-1.6809,-1.6244,-1.5714,-1.5163,0.0,0.0,0.0,0.0,-1.5744,-1.5418,0.0,0.0,0.0,0.0,-1.4175,-1.4355,0.0,0.0,0.0,0.0,0.0,0.0,0.0,0.0,-1.5372,-1.58,-1.6516,0.0,-1.8324,-1.7507,-1.7423,-1.7363,0.0,-1.6667,-1.656,0.0,0.0,0.0,0.0,0.0,0.0,0.0,0.0,0.0,0.0,0.0,0.0,0.0,0.0,0.0,0.0,0.0,0.0,0.0,0.0,0.0,0.0,-3.7986,-3.7986,-3.7986,-3.7986,-3.7986,-3.7986,-3.7986,-3.7986,-3.7986,-3.7986,-3.7986,-3.7986,-3.7986,-3.7986,0.0,0.0,0.0,-3.7986,-3.7986,-3.7986,-3.7986,-3.7986,-3.7986,-3.7986,-3.7986,-3.7986,-3.7986,0.0,0.0,0.0,0.0,0.0,0.0,0.0,0.0,0.0,0.0,0.0,0.0,0.0,0.0,0.0,0.0,0.0,0.0,0.0,0.0,0.0,0.0,0.0,-1.4289,-1.4133,-1.4349,-1.4695,-1.5184,-1.5654,-1.6205,-1.6871,-1.6736,-1.6643,-1.6559,-1.556,-1.507,0.0,0.0,0.0,0.0,-1.5432,0.0,0.0,0.0,0.0,0.0,-1.3506,-1.3744,0.0,-1.413,-1.4617,-1.5062,0.0,0.0,0.0,0.0,-1.4926,-1.5131,-1.5289,-1.6421,-1.7442,-1.6788,-1.6991,-1.7219,-1.6729,0.0,0.0,0.0,0.0,0.0,0.0,0.0,0.0,0.0,0.0,0.0,0.0,0.0,0.0,0.0,0.0,0.0,0.0,0.0,0.0,0.0,0.0,0.0,0.0,-3.7986,-3.7986,-3.7986,-3.7986,-3.7986,-3.7986,-3.7986,-3.7986,-3.7986,-3.7986,-3.7986,-3.7986,-3.7986,-3.7986,0.0,0.0,0.0,-3.7986,-3.7986,-3.7986,-3.7986,-3.7986,-3.7986,-3.7986,-3.7986,-3.7986,-3.7986,0.0,0.0,0.0,0.0,0.0,0.0,0.0,0.0,0.0,0.0,0.0,0.0,0.0,0.0,0.0,0.0,0.0,0.0,0.0,0.0,0.0,0.0,-1.4262,-1.4138,-1.3799,-1.4022,-1.4369,-1.4819,-1.5193,-1.5828,-1.6715,-1.6355,-1.6283,-1.6415,-1.4943,-1.4522,0.0,0.0,0.0,0.0,0.0,0.0,0.0,0.0,0.0,0.0,0.0,0.0,0.0,-1.3591,-1.4248,-1.4812,-1.4413,0.0,0.0,0.0,0.0,0.0,-1.5395,-1.6764,-1.8017,-1.7555,-1.7904,-1.8201,-1.769,0.0,0.0,0.0,0.0,0.0,0.0,0.0,0.0,0.0,0.0,0.0,0.0,0.0,0.0,0.0,0.0,0.0,0.0,0.0,0.0,0.0,0.0,0.0,0.0,-3.7986,-3.7986,-3.7986,-3.7986,-3.7986,-3.7986,-3.7986,-3.7986,-3.7986,-3.7986,-3.7986,-3.7986,-3.7986,-3.7986,-3.7986,0.0,0.0,-3.7986,-3.7986,-3.7986,-3.7986,-3.7986,-3.7986,-3.7986,-3.7986,-3.7986,-3.7986,0.0,0.0,0.0,0.0,0.0,0.0,0.0,0.0,0.0,0.0,0.0,0.0,0.0,0.0,0.0,0.0,0.0,0.0,0.0,0.0,0.0,-1.3665,-1.3698,-1.3886,-1.4202,-1.4299,-1.47,-1.5389,-1.649,-1.7111,-1.7279,-1.7664,-1.7147,-1.5886,-1.4787,-1.4337,-1.441,0.0,0.0,0.0,0.0,0.0,0.0,0.0,0.0,0.0,0.0,0.0,0.0,-1.2436,-1.3125,-1.3905,-1.3827,0.0,0.0,0.0,0.0,0.0,-1.6644,-1.8329,-1.913,-1.7228,-1.7819,-1.8612,0.0,0.0,0.0,0.0,0.0,0.0,0.0,0.0,0.0,0.0,0.0,0.0,0.0,0.0,0.0,0.0,0.0,0.0,0.0,0.0,0.0,0.0,0.0,0.0,0.0,-3.7986,-3.7986,-3.7986,-3.7986,-3.7986,-3.7986,-3.7986,-3.7986,-3.7986,-3.7986,-3.7986,-3.7986,-3.7986,-3.7986,-3.7986,0.0,-3.7986,-3.7986,-3.7986,-3.7986,-3.7986,-3.7986,-3.7986,-3.7986,-3.7986,-3.7986,-3.7986,0.0,0.0,0.0,0.0,0.0,0.0,0.0,0.0,0.0,0.0,0.0,0.0,0.0,0.0,0.0,0.0,0.0,0.0,0.0,0.0,-1.391,-1.3933,-1.3959,-1.3933,-1.3871,-1.472,-1.5329,-1.5669,-1.6821,-1.7543,-1.7845,-1.7796,-1.6907,-1.5336,-1.4618,-1.4309,-1.4265,-1.3878,-1.382,-1.4004,0.0,0.0,0.0,0.0,0.0,0.0,0.0,0.0,0.0,0.0,-1.2751,-1.3464,-1.3641,0.0,0.0,0.0,0.0,0.0,-1.5861,-1.7604,-1.8841,-1.809,-1.954,-2.1062,0.0,0.0,0.0,0.0,0.0,0.0,0.0,0.0,0.0,0.0,0.0,0.0,0.0,0.0,0.0,0.0,0.0,0.0,0.0,0.0,0.0,0.0,0.0,0.0,0.0,0.0,-3.7986,-3.7986,-3.7986,-3.7986,-3.7986,-3.7986,-3.7986,-3.7986,-3.7986,-3.7986,-3.7986,-3.7986,-3.7986,-3.7986,0.0,-3.7986,-3.7986,-3.7986,-3.7986,-3.7986,-3.7986,-3.7986,-3.7986,-3.7986,-3.7986,-3.7986,0.0,0.0,0.0,0.0,0.0,0.0,0.0,0.0,0.0,0.0,0.0,0.0,0.0,0.0,0.0,0.0,0.0,0.0,0.0,0.0,-1.3549,-1.4082,-1.4299,-1.4225,-1.3867,-1.513,-1.5852,-1.5994,-1.6931,-1.7556,-1.782,-1.7399,-1.6355,-1.483,-1.445,-1.4125,-1.3833,-1.3385,-1.3317,-1.3446,0.0,0.0,0.0,0.0,0.0,0.0,0.0,0.0,0.0,0.0,0.0,0.0,0.0,0.0,0.0,-1.4257,-1.4257,-1.4473,-1.5404,-1.6859,-1.8352,-1.9323,0.0,-2.2567,-2.3027,0.0,0.0,0.0,0.0,0.0,0.0,0.0,0.0,0.0,0.0,0.0,0.0,0.0,0.0,0.0,0.0,0.0,0.0,0.0,0.0,0.0,0.0,0.0,0.0,0.0,-3.7986,-3.7986,-3.7986,-3.7986,-3.7986,-3.7986,-3.7986,-3.7986,-3.7986,-3.7986,-3.7986,-3.7986,-3.7986,-3.7986,-3.7986,-3.7986,-3.7986,-3.7986,-3.7986,-3.7986,-3.7986,-3.7986,-3.7986,-3.7986,-3.7986,-3.7986,0.0,0.0,0.0,0.0,0.0,0.0,0.0,0.0,0.0,0.0,0.0,0.0,0.0,0.0,0.0,0.0,0.0,0.0,0.0,0.0,-1.3192,-1.3535,-1.4262,-1.475,-1.4881,-1.5492,-1.6032,-1.6547,-1.7111,-1.7159,-1.6715,-1.6679,-1.5836,-1.4349,-1.4333,-1.3639,-1.2572,-1.3009,-1.2714,-1.2012,-1.2647,0.0,0.0,0.0,0.0,0.0,0.0,0.0,0.0,0.0,0.0,0.0,0.0,0.0,-1.3834,-1.3834,-1.3834,-1.4358,-1.6692,-1.7442,-1.8142,-2.0614,0.0,0.0,-2.2659,0.0,0.0,0.0,0.0,0.0,0.0,0.0,0.0,0.0,0.0,0.0,0.0,0.0,0.0,0.0,0.0,0.0,0.0,0.0,0.0,0.0,0.0,0.0,0.0,-3.7986,-3.7986,-3.7986,-3.7986,-3.7986,-3.7986,-3.7986,-3.7986,-3.7986,-3.7986,-3.7986,-3.7986,-3.7986,-3.7986,-3.7986,-3.7986,-3.7986,-3.7986,-3.7986,-3.7986,-3.7986,-3.7986,-3.7986,-3.7986,-3.7986,-3.7986,-3.7986,0.0,0.0,0.0,0.0,0.0,0.0,0.0,0.0,0.0,0.0,0.0,0.0,0.0,0.0,0.0,0.0,0.0,0.0,0.0,-1.2325,-1.275,-1.3421,-1.425,-1.4664,-1.457,-1.6041,-1.6727,-1.6607,-1.7135,-1.7123,-1.6607,-1.6607,-1.5776,-1.4301,-1.4463,-1.3915,-1.2834,-1.2774,-1.2451,-1.1984,-1.203,-1.1694,0.0,0.0,0.0,0.0,0.0,0.0,0.0,0.0,-1.1613,-1.1966,0.0,0.0,0.0,0.0,-1.3603,-1.4092,-1.5402,-1.7091,-1.8837,-2.028,0.0,0.0,0.0,0.0,0.0,0.0,0.0,0.0,0.0,0.0,0.0,0.0,0.0,0.0,0.0,0.0,0.0,0.0,0.0,0.0,0.0,0.0,0.0,0.0,0.0,0.0,0.0,-3.7,-3.7,-3.7,-3.7,-3.7,-3.7,-3.7,-3.7,-3.7012,-3.7661,-3.7986,-3.7986,-3.7986,-3.7986,-3.7986,-3.7986,-3.7986,-3.7986,-3.7986,-3.7986,-3.7986,-3.7986,-3.7986,-3.7986,-3.7986,-3.7986,-3.7986,0.0,0.0,0.0,0.0,0.0,0.0,0.0,0.0,0.0,0.0,0.0,0.0,0.0,0.0,0.0,0.0,0.0,0.0,-1.1625,-1.1693,-1.2122,-1.301,-1.3715,-1.4071,-1.4055,-1.5921,-1.6715,-1.6355,-1.6883,-1.6871,-1.6355,-1.6355,-1.566,-1.4433,-1.4624,-1.4128,-1.3096,-1.269,-1.2368,-1.2099,-1.1564,-1.1209,0.0,0.0,0.0,0.0,0.0,0.0,0.0,0.0,-1.1125,0.0,0.0,0.0,0.0,0.0,-1.3781,-1.4556,-1.5166,-1.6979,-1.899,0.0,0.0,0.0,0.0,0.0,0.0,0.0,0.0,0.0,0.0,0.0,0.0,0.0,0.0,0.0,0.0,0.0,0.0,0.0,0.0,0.0,0.0,0.0,0.0,0.0,0.0,0.0,0.0,-3.6411,-3.6411,-3.6411,-3.6411,-3.6411,-3.6411,-3.6411,-3.6411,-3.6411,-3.7132,-3.7481,-3.7481,-3.7481,-3.7577,-3.7721,-3.7553,-3.7577,-3.7733,-3.7733,-3.7829,-3.7986,-3.7986,-3.7986,-3.7986,-3.7986,-3.7986,-3.7986,0.0,0.0,0.0,0.0,0.0,0.0,0.0,0.0,0.0,0.0,0.0,0.0,0.0,0.0,0.0,0.0,0.0,0.0,-1.1282,-1.1039,-1.13,-1.2252,-1.2545,-1.295,-1.3481,-1.4986,-1.578,-1.5792,-1.6331,-1.6319,-1.578,-1.578,-1.5395,-1.4693,-1.4704,-1.4138,-1.318,-1.2698,-1.2388,-1.2127,-1.1333,-1.1,-1.0973,0.0,0.0,0.0,0.0,0.0,0.0,0.0,-1.1021,0.0,0.0,0.0,0.0,0.0,-1.4429,-1.5909,-1.6525,-1.7256,0.0,0.0,0.0,0.0,0.0,0.0,0.0,0.0,0.0,0.0,0.0,0.0,0.0,0.0,0.0,0.0,0.0,0.0,0.0,0.0,0.0,0.0,0.0,0.0,0.0,0.0,0.0,0.0,0.0,-3.6386,-3.6386,-3.6386,-3.6386,-3.6386,-3.6386,-3.6386,-3.6386,-3.6386,-3.6386,-3.6398,-3.6411,-3.6411,-3.6687,-3.7156,-3.6627,-3.6699,-3.718,-3.718,-3.7493,-3.7974,-3.7974,-3.7974,-3.8027,-3.7974,-3.7974,-3.7986,0.0,0.0,0.0,0.0,0.0,0.0,0.0,0.0,0.0,0.0,0.0,0.0,0.0,0.0,0.0,0.0,0.0,0.0,-1.0662,-1.0684,-1.0976,-1.1641,-1.2333,-1.2764,-1.2938,-1.3751,-1.4718,-1.5792,-1.5576,-1.5396,-1.5241,-1.5079,-1.491,-1.4695,-1.4707,-1.4147,-1.3181,-1.2706,-1.2299,-1.1954,-1.1691,-1.1404,-1.1145,0.0,0.0,0.0,0.0,0.0,0.0,0.0,0.0,0.0,0.0,0.0,0.0,-1.2769,-1.392,-1.5227,-1.5499,0.0,0.0,0.0,0.0,0.0,0.0,0.0,0.0,0.0,0.0,0.0,0.0,0.0,0.0,0.0,0.0,0.0,0.0,0.0,0.0,0.0,0.0,0.0,0.0,0.0,0.0,0.0,0.0,0.0,0.0,-3.5292,-3.5292,-3.5292,-3.5292,-3.5292,-3.5292,-3.5292,-3.5292,-3.5292,-3.5292,-3.5689,-3.6411,-3.6411,-3.6495,-3.6627,-3.6471,-3.6495,-3.6639,-3.6639,-3.6838,-3.7136,-3.6931,-3.7366,-3.7953,-3.7797,-3.7976,-3.8303,0.0,0.0,0.0,0.0,0.0,0.0,0.0,0.0,0.0,0.0,0.0,-1.1387,0.0,0.0,0.0,0.0,0.0,0.0,0.0,-1.0233,-1.059,-1.1253,-1.1781,-1.2354,-1.3011,-1.3541,-1.4161,-1.4898,-1.479,-1.4818,-1.5013,-1.4789,-1.4799,-1.501,-1.4801,-1.4261,-1.3492,-1.2892,-1.2446,-1.2075,-1.1706,-1.1409,-1.1185,0.0,0.0,0.0,0.0,0.0,0.0,0.0,0.0,0.0,0.0,0.0,0.0,-1.3032,-1.4376,-1.5878,-1.6856,0.0,0.0,0.0,0.0,0.0,0.0,0.0,0.0,0.0,0.0,0.0,0.0,0.0,0.0,0.0,0.0,0.0,0.0,0.0,0.0,0.0,0.0,0.0,0.0,0.0,0.0,0.0,0.0,0.0,0.0,-3.4775,-3.4775,-3.4775,-3.5114,-3.5114,-3.4775,-3.5114,-3.5163,-3.4981,-3.4981,-3.5356,-3.6084,-3.5985,-3.6044,-3.6249,-3.6349,-3.64,-3.64,-3.64,-3.6621,-3.6917,-3.6765,-3.7112,-3.7659,-3.7506,-3.7663,-3.7944,0.0,0.0,-0.8319,-0.8852,0.0,0.0,0.0,0.0,0.0,0.0,-1.1376,-1.1307,0.0,0.0,0.0,-1.0609,0.0,0.0,0.0,0.0,-1.0162,-1.1066,-1.1231,-1.2029,-1.3541,-1.4,-1.3987,-1.3505,-1.3987,-1.4454,-1.4899,-1.4707,-1.4906,-1.5401,-1.488,-1.4362,-1.3859,-1.3073,-1.2594,-1.2257,-1.149,-1.1175,-1.1165,-1.0826,0.0,0.0,0.0,0.0,0.0,0.0,0.0,0.0,0.0,0.0,0.0,-1.3576,-1.5346,-1.7206,0.0,0.0,0.0,0.0,0.0,0.0,0.0,0.0,0.0,0.0,0.0,0.0,0.0,0.0,0.0,0.0,0.0,0.0,0.0,0.0,0.0,0.0,0.0,0.0,0.0,0.0,0.0,0.0,0.0,0.0,0.0,-3.4823,-3.4823,-3.492,-3.5631,-3.5679,-3.5017,-3.5775,-3.5918,-3.5452,-3.5488,-3.5631,-3.5835,-3.5416,-3.5491,-3.6002,-3.6297,-3.6395,-3.6346,-3.6529,-3.6813,-3.722,-3.727,-3.7394,-3.7432,-3.7344,-3.7319,-3.7369,0.0,0.0,-0.9496,-1.0035,0.0,0.0,0.0,0.0,-1.1489,-1.1489,-1.1376,-1.1262,-1.1143,-1.0991,0.0,-1.0474,-1.0274,0.0,0.0,0.0,-1.0022,-1.1066,-1.2306,-1.3336,-1.4096,-1.3819,-1.3614,-1.3505,-1.3614,-1.3823,-1.4134,-1.4093,-1.4354,-1.4846,-1.4362,-1.3772,-1.3083,-1.2058,-1.1696,-1.1726,-1.1132,-1.101,-1.1175,-1.0886,-1.0695,0.0,0.0,0.0,0.0,0.0,0.0,0.0,-1.0567,-1.1415,-1.2382,-1.312,-1.4646,0.0,0.0,0.0,0.0,0.0,0.0,0.0,0.0,0.0,0.0,0.0,0.0,0.0,0.0,0.0,0.0,0.0,0.0,0.0,0.0,0.0,0.0,0.0,0.0,0.0,0.0,0.0,0.0,0.0,0.0,0.0,-3.5727,-3.515,-3.5114,-3.5727,-3.5918,-3.6191,-3.659,-3.7137,-3.7356,0.0,-3.7534,-3.775,-3.7763,-3.6225,-3.5586,-3.5744,-3.6531,-3.6448,-3.5877,-3.7371,-3.7714,-3.7416,-3.7957,-3.8648,-3.9269,-3.8342,-3.8255,-3.8505,0.0,0.0,0.0,0.0,0.0,0.0,0.0,0.0,-1.1478,-1.141,-1.1204,-1.105,-1.1003,-1.0703,0.0,0.0,-1.0059,-0.9867,0.0,0.0,-0.9978,-1.1051,-1.2631,-1.3505,-1.3529,-1.3505,-1.3505,-1.3505,-1.324,-1.3442,-1.4101,-1.4497,-1.4927,-1.5383,-1.4778,-1.4126,-1.3354,-1.217,-1.1652,-1.1551,-1.098,-1.0821,-1.0875,-1.0575,-1.0312,-1.0065,-1.0056,0.0,0.0,0.0,0.0,0.0,0.0,0.0,-1.1971,-1.2957,-1.4094,-1.5543,0.0,0.0,0.0,0.0,0.0,0.0,0.0,0.0,0.0,0.0,0.0,0.0,0.0,0.0,0.0,0.0,0.0,0.0,0.0,0.0,0.0,0.0,0.0,0.0,0.0,0.0,0.0,0.0,0.0,-3.5014,-3.6058,-3.5697,-3.5774,-3.6496,-3.6849,-3.7163,-3.7415,-3.8011,-3.8315,-3.8289,-3.8487,-3.8667,-3.8769,-3.7665,-3.7217,-3.7368,-3.7848,-3.7756,-3.7415,-3.8366,-3.8604,-3.8315,-3.8635,-3.9092,-3.9523,-3.8903,-3.8859,-3.9031,0.0,0.0,0.0,0.0,0.0,0.0,0.0,0.0,0.0,-1.1273,-1.0991,-1.0801,-1.0801,-1.0372,-1.0097,0.0,0.0,0.0,-0.951,0.0,0.0,-1.1063,-1.2463,-1.3059,-1.2721,-1.3047,-1.3276,-1.336,-1.2926,-1.3348,-1.4558,-1.5116,-1.5646,-1.6127,-1.5361,-1.4597,-1.378,-1.2474,-1.1703,-1.1343,-1.0685,-1.04,-1.0332,-1.003,-0.9769,-0.9549,-0.9764,-1.0155,-1.0548,-1.0481,0.0,0.0,0.0,0.0,-1.1369,-1.2782,-1.3607,-1.4789,0.0,0.0,0.0,0.0,0.0,0.0,0.0,0.0,0.0,0.0,0.0,0.0,0.0,0.0,0.0,0.0,0.0,0.0,0.0,0.0,0.0,0.0,0.0,0.0,0.0,0.0,0.0,0.0,0.0,-3.4979,-3.6193,-3.6128,-3.6334,-3.7071,-3.7657,-3.8005,-3.7965,-3.8674,-3.8969,-3.8915,-3.9098,-3.9297,-3.9543,-3.9407,-3.9316,-3.921,-3.9373,-3.9329,-3.921,-3.9563,-3.9607,-3.9461,-3.9651,-3.9694,-3.9694,-3.9519,-3.9417,-3.9417,0.0,0.0,0.0,0.0,0.0,0.0,0.0,0.0,0.0,0.0,-1.0897,-1.0693,-1.0409,-1.021,-1.0034,-0.9854,-0.9815,-0.971,0.0,0.0,0.0,-1.1075,-1.1752,-1.2294,-1.268,-1.2306,-1.233,-1.2818,-1.2745,-1.3684,-1.5598,-1.4995,-1.516,-1.5914,-1.5106,-1.425,-1.3286,-1.1787,-1.093,-1.0494,-0.9649,-0.9382,-0.9453,-0.9298,-0.9378,-0.9548,-0.9311,-0.9707,-1.0298,-1.0082,-1.0436,0.0,0.0,0.0,0.0,0.0,0.0,0.0,0.0,0.0,0.0,0.0,0.0,0.0,0.0,0.0,0.0,0.0,0.0,0.0,0.0,0.0,0.0,0.0,0.0,0.0,0.0,0.0,0.0,0.0,0.0,0.0,0.0,0.0,0.0,0.0,-3.5934,-3.5519,-3.6332,-3.576,-3.5919,-3.699,-3.709,-3.7662,-3.8672,-3.9182,-3.9442,-3.9428,-4.0363,-4.0826,-4.0855,-4.1416,-4.0774,-3.9241,-4.0073,-3.9942,-3.9343,-4.1015,-4.1212,-4.0518,-4.1367,-4.1731,-4.1591,-4.0745,-4.0418,-4.0289,0.0,0.0,0.0,0.0,0.0,0.0,0.0,0.0,0.0,0.0,0.0,-1.0447,-1.021,-0.9944,-0.9775,-0.9789,-0.9697,0.0,0.0,0.0,0.0,-1.0642,-1.1174,-1.1556,-1.1801,-1.1572,-1.1861,-1.2709,-1.2102,-1.348,0.0,-1.5878,-1.6349,-1.783,-1.7013,-1.6041,-1.4834,-1.2687,-1.1532,-1.1039,-0.9975,-1.0187,-1.0967,-0.9372,-0.9658,-1.0767,-0.9781,-0.9805,-1.0346,-1.067,-1.1191,-1.1628,-1.1351,0.0,0.0,0.0,0.0,0.0,0.0,0.0,0.0,0.0,0.0,0.0,0.0,0.0,0.0,0.0,0.0,0.0,0.0,0.0,0.0,0.0,0.0,0.0,0.0,0.0,0.0,0.0,0.0,0.0,0.0,0.0,0.0,0.0,-3.5524,-3.5401,-3.6454,-3.6213,-3.6529,-3.7573,-3.7629,-3.8103,-3.9201,-3.9404,-3.959,-3.9856,-4.0329,-4.0728,-4.1105,-4.1395,-4.1288,-4.0873,-4.1269,-4.1226,-4.0873,-4.1731,-4.1814,-4.1479,-4.1912,-4.2092,-4.2051,-4.1577,-4.1437,-4.1395,0.0,0.0,0.0,0.0,0.0,0.0,0.0,0.0,0.0,0.0,0.0,-1.0147,-0.997,0.0,0.0,0.0,-0.9591,0.0,0.0,0.0,0.0,0.0,0.0,-1.069,-1.069,-1.069,-1.1147,-1.209,-1.1556,0.0,-1.7183,-1.7002,-1.8064,0.0,-1.9071,-1.7744,-1.6156,-1.3886,-1.2623,-1.2046,-1.1076,-1.1469,-1.247,-1.1003,-1.1502,-1.2817,-1.1443,-1.1216,-1.1589,0.0,0.0,0.0,0.0,0.0,0.0,0.0,0.0,0.0,0.0,0.0,0.0,0.0,0.0,0.0,0.0,0.0,0.0,0.0,0.0,0.0,0.0,0.0,0.0,0.0,0.0,0.0,0.0,0.0,0.0,0.0,0.0,0.0,0.0,0.0,0.0,0.0,0.0,-3.5369,-3.6306,-3.6375,-3.6825,-3.7799,-3.7812,-3.8234,-3.9158,-3.9158,-3.9341,-3.9625,-3.9784,-4.0133,-4.0612,-4.0771,-4.1207,-4.186,-4.202,-4.2092,-4.2092,-4.2092,-4.2092,-4.2092,-4.2092,-4.2092,-4.2092,-4.2092,-4.2092,-4.2092,0.0,0.0,0.0,0.0,0.0,0.0,0.0,0.0,0.0,0.0,0.0,-0.9893,-0.9564,-0.951,-0.951,-0.9523,-0.9498,0.0,0.0,0.0,0.0,0.0,0.0,0.0,-0.9582,-0.9582,-0.9858,-1.0411,0.0,0.0,-1.6667,-1.8156,-1.9993,-2.1986,-2.0434,-1.8433,-1.6232,0.0,-1.3962,-1.3281,-1.2977,-1.2777,-1.2935,-1.5023,-1.587,-1.5823,-1.473,0.0,0.0,0.0,0.0,0.0,0.0,0.0,0.0,0.0,0.0,0.0,0.0,0.0,0.0,0.0,0.0,0.0,0.0,0.0,0.0,0.0,0.0,0.0,0.0,0.0,0.0,0.0,0.0,0.0,0.0,0.0,0.0,0.0,0.0,0.0,0.0,0.0,0.0,0.0,0.0,-3.5696,-3.5764,-3.5764,-3.6126,-3.7038,-3.7038,-3.7465,-3.8266,-3.8266,-3.8266,-3.8318,-3.8942,-3.9276,-3.932,-3.9886,-4.0525,-4.1192,-4.1816,-4.2092,-4.2092,-4.2092,-4.2092,-4.2092,-4.2092,-4.2092,-4.2092,-4.2092,-4.2092,-4.2092,0.0,0.0,0.0,0.0,0.0,0.0,0.0,0.0,0.0,0.0,0.0,0.0,0.0,-0.951,-0.951,-0.951,-0.951,0.0,0.0,0.0,0.0,0.0,0.0,0.0,0.0,-0.951,-0.9762,-1.0291,-1.069,-1.2488,-1.5588,-1.6523,-1.7904,-1.9648,-1.9757,-1.9227,-1.8118,-1.5727,-1.4526,-1.4232,-1.4034,-1.4873,-1.6232,-1.6221,-1.7304,-1.8694,0.0,0.0,0.0,0.0,0.0,0.0,-1.2969,-1.2488,-1.2238,-1.1808,0.0,0.0,0.0,0.0,0.0,0.0,0.0,0.0,0.0,0.0,0.0,0.0,0.0,0.0,0.0,0.0,0.0,0.0,0.0,0.0,0.0,0.0,0.0,0.0,0.0,0.0,0.0,0.0,0.0,0.0,0.0,-3.571,-3.571,-3.5978,-3.6403,-3.6978,-3.7264,-3.7649,-3.8202,-3.8202,-3.8202,-3.8202,-3.8449,-3.8783,-3.9218,-3.9421,-3.9857,-4.0466,-4.0713,-4.1294,-4.2092,-4.2092,-4.2092,-4.2092,-4.2092,-4.2092,-4.2092,-4.2092,-4.2092,-4.2092,0.0,0.0,0.0,-1.1489,0.0,-1.1421,-1.1167,-1.0932,-1.0619,-1.0185,0.0,0.0,0.0,0.0,-0.9966,-0.9786,-0.9606,-0.951,-0.951,-0.951,0.0,0.0,0.0,0.0,0.0,-0.9678,-0.9858,-1.0027,-1.057,-1.1996,-1.4253,-1.5121,-1.6403,-1.7941,-1.8109,-1.8486,0.0,0.0,0.0,-1.565,-1.6102,-1.7169,-1.8516,-1.9048,-2.0218,-2.1373,0.0,0.0,0.0,0.0,0.0,0.0,-1.4073,-1.3163,-1.2568,-1.2037,-1.2748,0.0,0.0,0.0,0.0,0.0,0.0,0.0,0.0,0.0,0.0,0.0,0.0,0.0,0.0,0.0,0.0,0.0,0.0,0.0,0.0,0.0,0.0,0.0,0.0,0.0,0.0,0.0,0.0,0.0,0.0,0.0,-3.5611,-3.6108,-3.6668,-3.7187,-3.761,-3.7915,-3.8202,-3.8202,-3.8202,-3.8202,-3.8202,-3.8434,-3.887,-3.887,-3.9204,-3.9799,-3.9799,-4.0539,-4.1758,-4.1758,-4.1903,-4.2092,-4.2092,-4.2092,-4.2092,-4.2092,-4.2092,-4.2092,-1.1533,-1.1533,-1.1558,-1.1558,-1.1547,-1.1388,-1.094,-1.0671,-1.0388,-0.993,0.0,0.0,0.0,0.0,0.0,-1.0387,-0.9858,-0.9546,-0.9534,-0.951,0.0,0.0,0.0,0.0,0.0,-1.0015,-1.0027,-0.9534,-1.1087,-1.2126,-1.268,-1.4205,-1.5766,-1.7207,-1.566,-1.6139,-1.8085,0.0,-1.7832,-1.7567,0.0,-1.948,-1.9588,0.0,0.0,0.0,-2.389,-2.3553,0.0,-2.0021,0.0,0.0,0.0,-1.3848,-1.2448,-1.2437,-1.282,-1.3283,0.0,0.0,0.0,0.0,0.0,0.0,0.0,0.0,0.0,0.0,0.0,0.0,0.0,0.0,0.0,0.0,0.0,0.0,0.0,0.0,0.0,0.0,0.0,0.0,0.0,0.0,0.0,0.0,-3.5055,-3.5386,-3.5463,-3.6044,-3.673,-3.7558,-3.7947,-3.8188,-3.8202,-3.8202,-3.8202,-3.8202,-3.8202,-3.8202,-3.8202,-3.8202,-3.8565,-3.9175,-3.9175,-3.9886,-4.1047,-4.1076,-4.1482,-4.2063,-4.2092,-4.2092,-4.2092,-4.2092,-4.2092,-4.2092,-1.2149,-1.2538,-1.2871,-1.2871,-1.2666,-1.2511,-1.2472,-1.1885,-1.1429,0.0,0.0,0.0,-1.0934,-1.1367,-1.162,-1.1475,-1.0966,-1.0497,-1.0099,-0.9714,-0.951,-0.951,-0.951,-0.969,-1.0063,-0.9846,-0.9834,-1.0075,-1.0522,-1.1015,-1.1556,-1.2373,-1.3407,-1.457,-1.4522,-1.4823,-1.5362,-1.4955,0.0,0.0,-1.8205,-1.9829,0.0,0.0,0.0,0.0,0.0,-2.5456,-2.4434,0.0,-2.1458,-1.9662,0.0,-1.4749,-1.3694,-1.331,-1.3811,-1.4444,-1.4161,0.0,0.0,0.0,0.0,0.0,0.0,0.0,0.0,0.0,0.0,0.0,0.0,0.0,0.0,0.0,0.0,0.0,0.0,0.0,0.0,0.0,0.0,0.0,0.0,0.0,0.0,0.0,-3.4806,-3.4765,-3.4765,-3.5207,-3.6043,-3.7327,-3.749,-3.7767,-3.8202,-3.8202,-3.8202,-3.8202,-3.8202,-3.8202,-3.8202,-3.8202,-3.8304,-3.8478,-3.8478,-3.8957,-3.9799,-4.0713,-4.1207,-4.1424,-4.1903,-4.2092,-4.2092,-4.2092,-4.2092,-4.2092,-1.2829,-1.3134,-1.3481,-1.373,-1.3486,-1.3361,-1.3756,-1.3021,-1.2468,0.0,0.0,0.0,-1.2456,-1.2704,-1.2716,-1.227,-1.174,-1.1111,-1.0353,-1.0003,-0.9738,-0.951,-0.9714,-0.9978,-1.0291,-1.0423,-1.0449,-1.0291,-1.0522,-1.057,-1.0435,-1.0978,-1.1692,-1.2499,-1.2601,-1.3131,-1.3915,-1.3155,0.0,0.0,-1.9263,0.0,0.0,-2.5129,-2.6285,0.0,0.0,0.0,-2.62,-2.5406,-2.3482,0.0,0.0,-1.6065,-1.5353,-1.418,-1.4694,-1.5504,-1.479,-1.5178,0.0,0.0,0.0,0.0,0.0,0.0,0.0,0.0,0.0,0.0,0.0,0.0,0.0,0.0,0.0,0.0,0.0,0.0,0.0,0.0,0.0,0.0,0.0,0.0,0.0,-3.4337,-3.4385,-3.4539,-3.4962,-3.5382,-3.5991,-3.6845,-3.6881,-3.7056,-3.7404,-3.768,-3.7825,-3.7839,-3.8086,-3.8202,-3.8202,-3.8202,-3.8202,-3.8202,-3.8202,-3.842,-3.887,-3.9886,-4.0612,-4.1134,-4.1526,-4.1845,-4.2092,-4.2092,-4.2092,-4.2092,0.0,-1.3554,-1.3802,-1.437,-1.4138,-1.4109,-1.4875,-1.412,-1.3509,0.0,-1.3686,-1.3927,-1.4578,-1.4542,-1.4084,-1.3125,-1.2451,-1.1656,-1.0642,-1.0401,-1.0087,-0.9618,-1.0039,-1.0329,-1.0401,-1.1315,-1.1327,-1.0401,-1.081,-1.0497,-0.951,-0.9991,-1.0473,-1.0906,-1.0558,-1.1471,-1.3276,-1.2607,-1.4096,-1.7207,-2.11,-2.266,0.0,0.0,-2.8063,-2.7548,-2.9055,-2.8922,-2.7989,-2.7413,-2.4842,0.0,0.0,-1.8004,-1.7545,-1.5444,-1.5824,-1.6739,-1.572,-1.585,-1.6547,-1.7808,0.0,0.0,-1.9501,-1.9516,0.0,0.0,0.0,0.0,0.0,0.0,0.0,0.0,0.0,0.0,0.0,0.0,0.0,0.0,0.0,0.0,0.0,-3.3444,-3.3269,-3.3234,-3.3768,-3.4496,-3.5432,-3.5834,-3.6091,-3.6199,-3.6199,-3.6228,-3.6301,-3.6896,-3.7201,-3.7201,-3.781,-3.8101,-3.8101,-3.8173,-3.8202,-3.8202,-3.8202,-3.8202,-3.8246,-3.8841,-3.9799,-4.0902,-4.1033,-4.1453,-4.199,-4.2063,-4.2092,-4.2092,-1.4123,-1.4558,-1.5065,-1.5513,-1.5177,-1.5151,-1.61,-1.5157,-1.4532,-1.5034,-1.4858,-1.525,-1.6642,-1.6018,-1.5418,-1.5214,-1.3949,-1.2926,-1.227,-1.1015,-1.0243,-1.0147,-1.0243,-1.051,-1.093,-1.1147,-1.1147,-1.0942,-1.0618,-1.0123,-0.951,-0.9606,-0.9714,-0.9846,-1.0606,-1.1427,-1.233,-1.4229,0.0,-1.8659,-1.9982,0.0,-2.5688,-2.7446,-2.8747,-2.9706,-3.0036,-3.0011,-2.9655,-2.8747,-2.7084,-2.5001,0.0,0.0,-2.0906,-1.8721,-1.8616,-1.9049,-1.8386,-1.8602,-1.877,-1.7808,0.0,0.0,-1.7291,-1.7904,0.0,0.0,0.0,0.0,0.0,0.0,0.0,0.0,0.0,0.0,0.0,0.0,0.0,0.0,0.0,0.0,0.0,-3.3164,-3.3164,-3.2846,-3.3241,-3.3684,-3.4162,-3.4245,-3.4683,-3.5566,-3.5581,-3.5793,-3.6301,-3.6446,-3.6504,-3.6504,-3.7172,-3.7491,-3.7491,-3.7984,-3.8202,-3.8202,-3.8202,-3.8202,-3.8217,-3.8347,-3.8855,-3.9668,-4.0699,-4.1178,-4.1352,-4.1903,-4.2092,-4.2092,-1.479,-1.5312,-1.5919,-1.6441,-1.6184,-1.6295,-1.7505,-1.6317,-1.5736,-1.6936,-1.7045,-1.7087,-1.7363,-1.6919,-1.6391,-1.584,-1.4842,-1.3804,-1.2764,-1.1945,-1.1255,-1.0726,-1.0954,-1.1219,-1.15,-1.1764,-1.1764,-1.1512,-1.0966,-1.0411,-0.9894,-0.9894,-1.0296,-1.1011,-1.1349,-1.2207,-1.3471,0.0,-1.6112,-1.8068,-2.1084,0.0,-2.6922,-2.8857,-3.0079,-3.0771,-3.1134,-3.1046,-3.0488,-2.8859,-2.7608,0.0,0.0,-2.3635,-2.2991,0.0,-2.06,-2.0754,-1.97,-1.9603,-1.972,-1.9468,0.0,0.0,0.0,0.0,-1.8434,0.0,0.0,0.0,0.0,0.0,0.0,0.0,0.0,0.0,0.0,0.0,0.0,0.0,0.0,0.0,0.0,-3.2877,-3.3234,-3.3023,-3.3339,-3.3632,-3.3805,-3.3991,-3.434,-3.4878,-3.4893,-3.5053,-3.5357,-3.5677,-3.5836,-3.5851,-3.6838,-3.7302,-3.7331,-3.7926,-3.8202,-3.8202,-3.8202,-3.8202,-3.8202,-3.8202,-3.8405,-3.8797,-3.977,-4.0539,-4.1134,-4.1482,-4.1802,-4.2092,-1.5298,-1.5792,-1.6356,-1.6857,-1.6848,-1.7216,-1.8418,-1.7274,-1.6857,-1.8549,-1.9158,-1.9193,-1.8508,-1.8462,-1.8227,-1.7618,-1.6544,-1.5356,-1.4136,-1.3496,-1.2699,-1.1608,-1.1885,-1.2053,-1.2053,-1.2475,-1.2427,-1.1897,-1.1351,-1.0834,-1.0291,-1.0291,-1.099,-1.2221,-1.2337,0.0,0.0,0.0,0.0,-1.8635,0.0,-2.5396,-2.662,-2.9684,-3.0901,-3.1099,-3.1997,-3.1959,-3.1179,-2.9161,-2.8103,-2.7382,-2.5743,-2.5282,0.0,0.0,0.0,0.0,0.0,0.0,0.0,0.0,0.0,-2.0165,0.0,0.0,0.0,-1.9693,0.0,0.0,0.0,0.0,0.0,0.0,0.0,0.0,0.0,0.0,0.0,0.0,0.0,0.0,0.0,-3.1702,-3.2395,-3.3093,-3.2936,-3.3121,-3.3894,-3.4162,-3.4312,-3.4414,-3.4414,-3.4414,-3.4414,-3.4922,-3.5218,-3.5232,-3.6373,-3.6997,-3.7143,-3.7752,-3.8086,-3.8202,-3.8202,-3.8202,-3.8202,-3.8202,-3.8202,-3.8275,-3.8942,-3.9828,-4.0757,-4.1004,-4.1439,-4.1918,-1.5298,-1.5792,-1.6178,-1.6084,-1.6651,-1.732,-1.7831,-1.7481,-1.7584,-1.88,-2.0182,-2.1298,-2.2018,-2.2258,-2.279,-2.3864,-2.0949,-1.903,-1.8923,-1.6393,-1.44,-1.327,-1.283,-1.2607,-1.2607,-1.2673,-1.2427,-1.1897,-1.1351,-1.0834,-1.0291,-1.0291,-1.0633,-1.1337,-1.3259,0.0,0.0,0.0,-1.9946,0.0,-2.4965,-2.4498,0.0,-2.8023,-2.9827,-3.038,-3.204,-3.2596,-3.2365,0.0,-3.0539,-2.9816,0.0,-2.7858,-2.7685,0.0,0.0,0.0,0.0,0.0,0.0,0.0,-2.2642,0.0,0.0,0.0,-1.978,-1.8121,0.0,0.0,0.0,0.0,0.0,0.0,0.0,0.0,0.0,0.0,0.0,0.0,0.0,0.0,0.0,0.0,-2.9179,-3.2266,-3.045,-3.0708,-3.4148,-3.4059,-3.4025,-3.438,-3.4414,-3.4414,-3.4414,-3.4486,-3.4516,-3.453,-3.5276,-3.5915,-3.6446,-3.7114,-3.7694,-3.8202,-3.8202,-3.8202,-3.8202,-3.8202,-3.8202,-3.8275,-3.8942,-3.9291,-3.9552,-4.0684,-4.1149,-4.1294,-1.5298,-1.6111,-1.663,-1.6157,-1.705,-1.7874,-1.8014,-1.9733,-2.0911,-2.0612,-2.2296,-2.353,-2.3611,0.0,0.0,0.0,0.0,-2.1407,0.0,0.0,-1.6515,-1.4895,-1.4052,-1.3626,-1.3626,-1.3324,-1.2902,-1.2354,-1.1837,-1.1447,-1.1247,-1.156,-1.2273,-1.3382,-1.5466,0.0,-1.8761,0.0,0.0,0.0,0.0,0.0,0.0,-2.9416,-3.1783,-3.2018,-3.2779,-3.3058,-3.287,0.0,-3.0904,0.0,0.0,0.0,0.0,0.0,0.0,0.0,0.0,0.0,0.0,0.0,0.0,0.0,-2.0427,0.0,-1.9227,0.0,0.0,0.0,0.0,0.0,0.0,0.0,0.0,0.0,0.0,0.0,0.0,0.0,0.0,0.0,0.0,0.0,0.0,0.0,0.0,-2.964,-3.2573,-3.3279,-3.3854,-3.4366,-3.4414,-3.4414,-3.4414,-3.4414,-3.4414,-3.4428,-3.5087,-3.5537,-3.5793,-3.6838,-3.7447,-3.7709,-3.8043,-3.8202,-3.8202,-3.8202,-3.8202,-3.8231,-3.8507,-3.8855,-3.9262,-3.9799,-4.0466,-4.1134,-1.5544,0.0,-1.6762,-1.6269,-1.7281,-1.8327,-1.8806,-2.1227,-2.2898,-2.2571,-2.4237,-2.5475,-2.555,-2.517,0.0,0.0,-2.5828,-2.4531,0.0,0.0,-1.9379,-1.7664,-1.6092,-1.5258,-1.5258,-1.4435,-1.3639,-1.2926,-1.2379,-1.2114,0.0,0.0,-1.3423,-1.4835,0.0,-1.9186,-2.1207,0.0,0.0,-2.3376,-2.3963,-2.4877,-2.6402,-3.0979,-3.3075,-3.3597,-3.3479,-3.3444,-3.3254,-3.2115,-3.1197,0.0,-3.1271,0.0,0.0,0.0,0.0,0.0,-2.6016,0.0,0.0,0.0,0.0,0.0,0.0,0.0,0.0,0.0,0.0,0.0,0.0,0.0,0.0,0.0,0.0,0.0,0.0,0.0,0.0,0.0,0.0,0.0,0.0,0.0,0.0,0.0,0.0,-2.8127,-3.15,-3.2542,-3.3458,-3.4385,-3.4414,-3.4414,-3.4414,-3.4414,-3.4414,-3.4414,-3.4878,-3.5232,-3.5436,-3.6519,-3.7128,-3.7346,-3.7941,-3.8202,-3.8202,-3.8202,-3.8202,-3.8202,-3.8202,-3.8507,-3.8942,-3.9131,-3.9784,-4.0626,-1.6169,-1.6213,0.0,0.0,0.0,-1.8442,-2.0326,-2.0995,-2.2086,-2.4311,-2.5633,0.0,0.0,0.0,0.0,0.0,0.0,-2.9159,-2.8573,0.0,-2.3312,-2.2142,-1.9272,-1.769,0.0,-1.6081,-1.4651,-1.3469,-1.295,0.0,0.0,0.0,0.0,0.0,-1.7172,-1.9758,-2.2146,-2.3189,-2.6489,-3.0886,-2.9921,-3.1354,-3.382,0.0,-3.2576,-3.4312,-3.3908,0.0,0.0,-3.2676,-3.2027,0.0,0.0,0.0,0.0,0.0,0.0,0.0,0.0,0.0,0.0,-2.4054,0.0,0.0,0.0,0.0,-2.1019,0.0,0.0,0.0,0.0,0.0,-1.9372,-1.8338,-1.8193,0.0,0.0,0.0,0.0,0.0,0.0,0.0,0.0,0.0,0.0,0.0,0.0,0.0,-3.1743,-3.2001,-3.2704,-3.4337,-3.4414,-3.4414,-3.4414,-3.4414,-3.4414,-3.4414,-3.4428,-3.4762,-3.5421,-3.604,-3.6693,-3.7346,-3.7941,-3.8202,-3.8202,-3.8202,-3.8202,-3.8202,-3.8202,-3.8217,-3.8318,-3.8957,-3.9233,-3.9436,0.0,0.0,0.0,0.0,0.0,-1.9411,-2.1627,-2.3645,-2.5601,0.0,0.0,0.0,0.0,-3.1003,-3.1519,0.0,0.0,-3.1268,-3.0086,-2.7865,0.0,0.0,0.0,-2.1182,0.0,0.0,0.0,0.0,0.0,0.0,0.0,0.0,0.0,0.0,0.0,-2.1042,0.0,0.0,0.0,0.0,0.0,-3.1647,-3.4308,0.0,0.0,-3.438,-3.423,-3.4196,0.0,-3.3849,-3.3172,-3.2622,-3.3207,-3.2534,-3.1632,-3.2078,-3.1629,0.0,0.0,0.0,-3.0303,-2.6948,0.0,0.0,0.0,0.0,0.0,0.0,0.0,0.0,0.0,-2.0576,-1.9676,-1.9274,-1.8335,-1.7351,0.0,0.0,0.0,0.0,0.0,0.0,0.0,0.0,0.0,0.0,0.0,0.0,0.0,-3.1424,-3.276,-3.3761,-3.4196,-3.4414,-3.4414,-3.4414,-3.4414,-3.4414,-3.4414,-3.453,-3.4762,-3.5386,-3.604,-3.6678,-3.7331,-3.7839,-3.8202,-3.8202,-3.8202,-3.8202,-3.8202,-3.8202,-3.8231,-3.8449,-3.8826,-3.9378,-1.7606,0.0,0.0,0.0,0.0,0.0,0.0,0.0,0.0,0.0,-3.0692,0.0,-3.2875,0.0,-3.2942,0.0,-3.3728,-3.3073,-3.1376,-2.9966,0.0,-2.8112,-2.6021,0.0,0.0,0.0,0.0,0.0,0.0,-1.5278,0.0,0.0,0.0,0.0,0.0,0.0,0.0,0.0,-2.8077,0.0,0.0,-3.2626,0.0,0.0,-3.4414,-3.4414,0.0,-3.4414,-3.4414,-3.4414,-3.4004,-3.3595,-3.4216,-3.3533,-3.2644,-3.3293,-3.2791,-3.1937,-3.1626,-3.1971,0.0,-2.8901,-2.8061,0.0,-2.4249,0.0,0.0,0.0,0.0,0.0,0.0,0.0,-2.0766,-2.0583,-1.9057,-1.7521,0.0,0.0,0.0,0.0,0.0,0.0,0.0,0.0,-1.8644,-2.1823,0.0,0.0,0.0,0.0,-3.2228,-3.346,-3.4095,-3.4414,-3.4414,-3.4414,-3.4414,-3.4414,-3.4414,-3.4414,-3.4428,-3.5101,-3.5741,-3.6344,-3.7012,-3.7651,-3.8202,-3.8202,-3.8202,-3.8202,-3.8202,-3.8202,-3.8202,-3.8202,-3.8754,-3.9639,0.0,0.0,0.0,0.0,-2.048,0.0,0.0,0.0,-2.9392,0.0,-3.2457,-3.3541,-3.4753,-3.4924,-3.4924,-3.4896,-3.5227,-3.468,-3.2817,-3.2017,0.0,0.0,-2.9098,-2.781,-2.7131,0.0,0.0,0.0,0.0,0.0,0.0,0.0,0.0,0.0,-1.8088,0.0,-2.4423,-2.7141,-3.0327,-3.359,-3.4167,-3.4414,-3.4414,-3.4414,-3.4414,-3.4414,-3.4414,-3.4414,-3.4414,-3.4414,-3.4414,-3.4414,-3.4414,-3.4414,-3.4414,-3.4414,-3.4414,-3.4216,-3.3327,-3.3068,-3.2459,-2.9955,0.0,0.0,0.0,0.0,-2.6683,0.0,0.0,0.0,0.0,0.0,0.0,-2.2194,-2.0244,-1.8117,0.0,0.0,0.0,0.0,0.0,0.0,0.0,0.0,-1.6707,-2.0505,-2.0423,0.0,0.0,0.0,-3.1085,-3.3344,-3.4051,-3.4414,-3.4414,-3.4414,-3.4414,-3.4414,-3.4414,-3.4414,-3.4428,-3.5072,-3.5712,-3.6344,-3.6983,-3.7622,-3.8202,-3.8202,-3.8202,-3.8202,-3.8202,-3.8202,-3.8202,-3.8202,-3.8986,-4.006,-1.9638,-2.0851,-2.2164,0.0,-2.2867,-2.365,0.0,0.0,0.0,0.0,-3.3593,-3.451,-3.5782,-3.5927,-3.5927,-3.5912,-3.6033,0.0,0.0,0.0,0.0,-3.4157,-3.2327,-3.1022,-3.0328,-2.706,0.0,-2.2769,0.0,0.0,-1.7679,0.0,0.0,0.0,0.0,0.0,-2.4933,-2.7189,-3.0492,-3.4182,-3.4356,-3.4414,0.0,0.0,-3.4414,-3.4414,-3.4414,-3.4414,-3.4414,-3.4414,-3.4414,-3.4414,-3.4414,-3.4414,-3.4414,-3.4414,-3.4414,-3.4337,-3.411,-3.4033,-3.3802,-3.2828,-3.1616,-3.0392,0.0,0.0,0.0,0.0,0.0,0.0,0.0,0.0,0.0,-2.2758,-2.0412,-1.8486,0.0,0.0,0.0,0.0,0.0,0.0,0.0,-1.6445,-1.7619,-1.9154,-2.0627,0.0,0.0,0.0,0.0,-3.1975,-3.3572,-3.4414,-3.4414,-3.4414,-3.4414,-3.4414,-3.4414,-3.4414,-3.4414,-3.4588,-3.5256,-3.6315,-3.6489,-3.7186,-3.8202,-3.8202,-3.8202,-3.8202,-3.8202,-3.8202,-3.8202,-3.8202,-3.8725,-3.9494,-2.1315,0.0,0.0,-2.6274,0.0,0.0,-2.8652,0.0,0.0,-3.3572,-3.4675,0.0,-3.6228,-3.6809,-3.7027,-3.6765,-3.6751,0.0,-3.5923,0.0,0.0,-3.4951,-3.4182,-3.3325,-3.2382,-2.9614,0.0,-2.5057,0.0,0.0,-1.8619,0.0,0.0,0.0,0.0,-2.1407,0.0,-2.8034,-3.1314,-3.4022,-3.4298,0.0,0.0,-3.4414,-3.4414,-3.4414,-3.4414,-3.4414,-3.4414,-3.4414,-3.4414,-3.4414,-3.4414,-3.4414,-3.4414,-3.4414,-3.4414,-3.4414,-3.4414,-3.4414,-3.4346,-3.4128,-3.3321,-3.24,-3.1615,-3.1326,-3.108,0.0,0.0,0.0,0.0,0.0,0.0,0.0,0.0,0.0,0.0,0.0,0.0,0.0,0.0,0.0,0.0,-1.6557,-1.7812,-1.8796,-1.986,0.0,0.0,0.0,0.0,-3.1031,-3.2991,-3.4124,-3.4414,-3.4414,-3.4414,-3.4414,-3.4414,-3.4414,-3.4414,-3.4414,-3.5111,-3.6301,-3.6301,-3.7027,-3.8202,-3.8202,-3.8202,-3.8202,-3.8202,-3.8202,-3.8202,-3.8202,-3.8623,-3.9291,0.0,0.0,0.0,0.0,0.0,0.0,0.0,-3.2092,0.0,-3.4486,0.0,-3.6562,-3.6562,-3.7549,-3.7984,-3.7476,0.0,-3.6939,-3.5842,-3.617,-3.5952,-3.4835,-3.5203,-3.4884,-3.3765,-3.1953,-2.9559,0.0,0.0,0.0,0.0,0.0,0.0,0.0,0.0,0.0,0.0,-2.9304,-3.2324,0.0,-3.4196,-3.4414,-3.4414,-3.4414,-3.4414,-3.4414,-3.4414,-3.4414,-3.4414,-3.4414,-3.4414,-3.4414,-3.4414,-3.4414,-3.4414,-3.4414,-3.4414,-3.4414,-3.4414,-3.4414,-3.4414,-3.4414,-3.4414,-3.4124,-3.2988,-3.2566,-3.2454,-3.2695,-3.1435,-3.1087,0.0,0.0,0.0,0.0,0.0,0.0,0.0,0.0,0.0,0.0,0.0,0.0,0.0,-1.6714,-1.7644,-1.8665,-1.8591,0.0,0.0,0.0,0.0,-3.0524,-3.2399,-3.3688,-3.4399,0.0,-3.4414,-3.4414,-3.4414,-3.4414,-3.4414,-3.4414,-3.5111,-3.6301,-3.6301,-3.7027,-3.8202,-3.8202,-3.8202,-3.8202,-3.8202,-3.8202,-3.8202,-3.8202,-3.8565,-3.916,0.0,0.0,0.0,0.0,0.0,-3.3213,-3.4375,-3.4269,-3.453,-3.5807,-3.7085,-3.7868,-3.7868,-3.8072,-3.8159,-3.8057,-3.8043,0.0,0.0,0.0,0.0,-3.6809,-3.5915,-3.5305,-3.5072,-3.2176,-2.9638,0.0,-2.4428,-2.1888,-1.9875,0.0,0.0,0.0,0.0,0.0,-2.7568,-3.0346,0.0,-3.4254,-3.437,-3.4414,-3.4414,-3.4414,-3.4414,-3.4414,-3.4414,-3.4414,-3.4414,-3.4414,-3.4414,-3.4414,-3.4414,-3.4414,-3.4414,-3.4414,-3.4414,-3.4414,-3.4414,-3.4414,-3.4414,-3.4414,-3.4414,-3.4356,-3.4138,-3.4047,-3.4013,-3.4047,-3.3791,-3.3359,-3.2655,0.0,0.0,0.0,0.0,0.0,0.0,0.0,0.0,0.0,0.0,0.0,0.0,0.0,-1.7913,0.0,0.0,0.0,0.0,0.0,0.0,0.0,-3.1946,0.0,0.0,0.0,-3.4414,-3.4414,-3.4414,-3.4414,-3.4414,-3.4414,-3.5111,-3.6301,-3.6301,-3.7027,-3.8202,-3.8202,-3.8202,-3.8202,-3.8202,-3.8202,-3.8202,-3.8202,-3.8275,-3.8463,0.0,0.0,0.0,0.0,0.0,0.0,0.0,-3.7128,0.0,-3.6881,-3.7636,-3.8086,-3.7781,-3.8318,-3.858,-3.8231,-3.8202,-3.8202,-3.8202,-3.7941,-3.7636,-3.7317,-3.6707,0.0,-3.5407,-3.3529,-3.1293,-2.8681,-2.5796,-2.3267,-2.1061,-1.9725,0.0,0.0,0.0,-2.5279,0.0,0.0,0.0,-3.3949,-3.4283,-3.4414,-3.4414,-3.4414,-3.4414,-3.4414,-3.4414,-3.4414,-3.4414,-3.4414,-3.4414,-3.4414,-3.4414,-3.4414,-3.4414,-3.4414,-3.4414,-3.4414,-3.4414,-3.4414,-3.4414,-3.4414,-3.4414,-3.4414,-3.4414,-3.4414,-3.4414,-3.4414,-3.4414,-3.3922,-3.2374,-3.0651,0.0,0.0,0.0,0.0,0.0,0.0,0.0,0.0,0.0,0.0,0.0,0.0,0.0,0.0,0.0,0.0,0.0,0.0,0.0,0.0,0.0,0.0,0.0,0.0,0.0,-3.4414,-3.4414,-3.4414,-3.4414,-3.4414,-3.4922,-3.5836,-3.6156,-3.6852,-3.7767,-3.8072,-3.8202,-3.8202,-3.8202,-3.8202,-3.8202,-3.8202,-3.8202,-3.8304,0.0,-3.3224,0.0,0.0,-3.6417,0.0,-3.826,-3.9494,-3.9726,-3.8115,-3.8318,-3.842,-3.7955,-3.8797,-3.9175,-3.8652,-3.8492,-3.8405,-3.8405,-3.8275,-3.7984,-3.752,-3.7375,-3.6823,-3.5828,-3.4878,-3.2945,0.0,-2.7461,0.0,0.0,-2.0698,-2.0422,-2.1452,0.0,0.0,0.0,0.0,-3.2962,-3.3736,-3.4211,-3.4414,-3.4414,-3.4414,-3.4414,-3.4414,-3.4414,-3.4414,-3.4414,-3.4414,-3.4414,-3.4414,-3.4414,-3.4414,-3.4414,-3.4414,-3.4414,-3.4414,-3.4414,-3.4414,-3.4414,-3.4414,-3.4414,-3.4414,-3.4414,-3.4414,-3.4414,-3.4414,-3.4414,-3.3955,-3.2454,-3.1527,0.0,0.0,0.0,0.0,0.0,0.0,0.0,0.0,0.0,0.0,0.0,0.0,0.0,0.0,0.0,0.0,0.0,0.0,0.0,0.0,0.0,-3.1743,-3.3067,0.0,-3.4414,-3.4414,-3.4414,-3.4414,-3.4414,-3.4414,-3.4762,-3.5436,-3.604,-3.6765,-3.7535,-3.8014,-3.8202,-3.8202,-3.8202,-3.8202,-3.8202,-3.8202,-3.8202,-3.8275,0.0,0.0,0.0,0.0,0.0,0.0,-3.9088,-4.0191,-4.0728,-3.9944,-3.9886,-3.99,-3.9842,-3.9944,-3.9987,-3.9929,-3.9421,-3.9117,-3.9117,-3.8536,-3.8173,-3.813,-3.7593,-3.7244,-3.7128,-3.5343,-3.3398,0.0,0.0,-2.6228,0.0,-2.291,-2.3519,-2.5338,0.0,0.0,0.0,-3.215,-3.3191,-3.4327,-3.4385,-3.4414,-3.4414,-3.4414,-3.4414,-3.4414,-3.4414,-3.4414,-3.4414,-3.4414,-3.4414,-3.4414,-3.4414,-3.4414,-3.4414,-3.4414,-3.4414,-3.4414,-3.4414,-3.4414,-3.4414,-3.4414,-3.4414,-3.4414,-3.4414,-3.4414,-3.4414,-3.4414,-3.4414,-3.3989,-3.2713,-3.3289,-3.3014,0.0,0.0,0.0,0.0,0.0,0.0,0.0,0.0,0.0,0.0,0.0,0.0,0.0,0.0,0.0,0.0,0.0,0.0,-2.7654,0.0,-3.0378,-3.1654,-3.3499,-3.4414,-3.4414,-3.4414,-3.4414,-3.4414,-3.4414,-3.4762,-3.5436,-3.604,-3.6997,-3.813,-3.8188,-3.8202,-3.8202,-3.8202,-3.8202,-3.8202,-3.8202,-3.8202,-3.8217,0.0,0.0,0.0,0.0,0.0,0.0,0.0,-4.1366,-4.1599,-4.1337,-4.1294,-4.1149,-4.0742,-4.0699,-4.0539,-4.0133,-3.9871,-3.9741,-3.9741,-3.9146,-3.8797,-3.8797,-3.8188,-3.768,-3.7317,-3.6548,-3.5009,0.0,0.0,0.0,0.0,-2.5546,-2.6054,-2.7619,0.0,-3.1003,-3.2759,-3.379,-3.4733,-3.5546,-3.5546,-3.5546,-3.5546,-3.5546,-3.5546,-3.5546,-3.5546,-3.5546,-3.5546,-3.5546,-3.5038,-3.4414,-3.4414,-3.4414,-3.4414,-3.4414,-3.4414,-3.4414,-3.4414,-3.4414,-3.4414,-3.4414,-3.4414,-3.4414,-3.4414,-3.4414,-3.4414,-3.4414,-3.4414,-3.4254,-3.3746,-3.3441,-3.2977,0.0,0.0,0.0,0.0,0.0,0.0,0.0,0.0,0.0,0.0,0.0,0.0,0.0,0.0,-1.865,-2.102,0.0,0.0,-2.5926,0.0,-3.0437,-3.0945,-3.3253,-3.4414,-3.4414,-3.4414,-3.4414,-3.4414,-3.4414,-3.4965,-3.5938,-3.6199,-3.7027,-3.8202,-3.8202,-3.8202,-3.8202,-3.8202,-3.8202,-3.8202,-3.8202,-3.8202,-3.8202,-3.8998,0.0,-3.8667,0.0,-4.0336,-4.0525,-4.1889,-4.2092,-4.2092,-4.2092,-4.2092,-4.1918,-4.1439,-4.1381,-4.1192,-4.0728,-4.051,-4.0379,-4.0379,-3.9813,-3.9465,-3.9465,-3.8841,0.0,-3.7883,-3.7491,-3.6417,-3.4637,-3.3108,0.0,0.0,-2.8477,-2.8956,0.0,-3.1961,-3.3267,-3.439,-3.529,-3.5894,-3.6301,-3.6301,-3.6301,-3.6301,-3.6301,-3.6301,-3.6301,-3.6301,-3.6301,-3.6301,-3.6301,-3.5706,-3.4965,-3.4965,-3.4849,-3.469,-3.469,-3.4559,-3.4414,-3.4414,-3.4414,-3.4414,-3.4414,-3.4414,-3.4414,-3.4414,-3.4414,-3.4414,-3.4414,-3.4414,-3.4414,-3.4414,-3.3688,-3.2977,-3.2704,0.0,0.0,0.0,0.0,0.0,0.0,-2.5052,-2.3357,-2.2749,0.0,0.0,0.0,0.0,-2.0136,-2.163,0.0,0.0,0.0,0.0,0.0,0.0,-3.3224,-3.4414,-3.4414,-3.4414,-3.4414,-3.4414,-3.4414,-3.5111,-3.6301,-3.6301,-3.7027,-3.8202,-3.8202,-3.8202,-3.8202,-3.8202,-3.8202,-3.8202,-3.8202,-3.8202,-3.8202,-4.0806,-4.0543,-4.0481,-4.1845,-4.2063,-4.2063,-4.2092,-4.2092,-4.2092,-4.2092,-4.2092,-4.2092,-4.2092,-4.2092,-4.2078,-4.2078,-4.1468,-4.1091,-4.1091,-4.0452,-4.0089,0.0,0.0,-3.9189,-3.9175,-3.7955,-3.7288,-3.7259,0.0,0.0,-3.244,-3.1741,-3.2498,-3.437,-3.5058,-3.5712,-3.6272,-3.6286,-3.6301,-3.6301,-3.6301,-3.6301,-3.6301,-3.6301,-3.6301,-3.6301,-3.6301,-3.6301,-3.6301,-3.6301,-3.6301,-3.6286,-3.6286,-3.5851,-3.5392,-3.5392,-3.4907,-3.4414,-3.4414,-3.4414,-3.4414,-3.4414,-3.4414,-3.4414,-3.4414,-3.4414,-3.4414,-3.4414,-3.4414,-3.4414,-3.4414,-3.4399,-3.3558,-3.1048,0.0,0.0,0.0,0.0,0.0,0.0,-2.4099,-2.2902,-2.2888,0.0,0.0,0.0,0.0,-2.3473,-2.4041,0.0,0.0,-2.7565,-2.9566,0.0,-3.1466,-3.3409,-3.4414,-3.4414,-3.4414,-3.4414,-3.4414,-3.4414,-3.5111,-3.6301,-3.6301,-3.7027,-3.8202,-3.8202,-3.8202,-3.8202,-3.8202,-3.8202,-3.8202,-3.8202,-3.8202,-3.8202,-4.2945,-4.2514,-4.236,-4.3189,-4.2643,-4.2237,-4.2644,-4.2353,-4.2092,-4.2092,-4.2092,-4.2092,-4.2092,-4.2092,-4.2092,0.0,-4.1903,-4.1773,0.0,-4.1149,-4.0771,-4.0771,-4.0162,-3.9813,-3.9813,-3.9015,-3.8376,-3.7912,0.0,0.0,0.0,-3.4443,-3.4704,-3.5706,-3.5923,-3.6373,-3.6983,-3.6983,-3.723,-3.7629,-3.8047,-3.8192,-3.8265,-3.8615,-3.8522,-3.8265,-3.8615,-3.8522,-3.825,-3.8615,-3.8742,-3.8742,-3.8742,-3.7482,-3.5996,-3.5996,-3.5561,-3.5101,-3.5101,-3.4748,-3.4414,-3.4414,-3.4414,-3.4414,-3.4414,-3.4414,-3.4414,-3.4414,-3.4414,-3.4414,-3.4414,-3.4414,-3.3862,-3.2179,-3.2251,0.0,0.0,0.0,0.0,0.0,-2.5792,-2.4878,0.0,-2.4655,0.0,0.0,0.0,0.0,0.0,0.0,0.0,0.0,-2.9972,0.0,-3.1495,-3.3441,-3.4414,-3.4414,-3.4414,-3.4414,-3.4428,-3.4864,-3.5517,-3.633,-3.678,-3.7462,-3.8202,-3.8202,-3.8202,-3.8202,-3.8202,-3.8202,-3.8202,-3.8202,-3.8202,-3.8202,-4.5024,-4.4353,-4.3964,-4.4571,-4.3856,-4.3324,-4.3705,-4.3441,-4.3123,-4.2845,-4.2803,-4.2803,-4.2803,-4.2586,0.0,-4.2121,-4.2092,-4.2092,-4.2092,-4.17,-4.1482,-4.1482,-4.0829,-4.0481,-4.0481,-3.9857,0.0,-3.8913,-3.8057,-3.7433,-3.7012,-3.6388,-3.6431,-3.7012,-3.7012,-3.7259,-3.7636,-3.7872,-3.8187,-3.8575,-3.9184,-3.94,-3.9436,-3.9763,-3.9692,-3.9436,-3.9763,-3.9692,-3.9436,-3.9799,-3.9889,-3.9889,-3.9889,-3.8872,-3.7621,-3.7399,-3.6742,-3.601,-3.5761,-3.5239,-3.4719,-3.4472,-3.4414,-3.4414,-3.4414,-3.4414,-3.4414,-3.4414,-3.4414,-3.4414,-3.4414,-3.4414,-3.396,-3.2698,-3.2481,-3.1758,-2.9581,0.0,0.0,0.0,0.0,0.0,0.0,-2.6617,-2.6495,0.0,0.0,0.0,0.0,0.0,0.0,-2.7926,-3.1148,0.0,-3.2582,-3.3771,-3.4414,-3.4414,-3.4414,-3.4414,-3.4428,-3.5101,-3.5741,-3.6344,-3.7012,-3.7651,-3.8202,-3.8202,-3.8202,-3.8202,-3.8202,-3.8202,-3.8202,-3.8202,-3.8202,-3.8202,-4.6975,-4.5981,0.0,0.0,-4.5537,0.0,-4.5126,-4.5054,-4.4788,-4.4151,-4.4037,-4.3993,-4.3993,-4.3427,-4.2832,-4.2281,0.0,0.0,0.0,-4.2092,-4.2092,-4.2092,-4.1497,-4.1163,-4.1163,-4.051,-4.0187,-4.0168,-3.899,-3.8408,-3.8468,-3.7856,-3.7849,-3.8373,-3.8329,-3.83,-3.8337,-3.8907,-3.9177,-3.9199,-3.9728,-3.996,-3.9975,-3.9995,-3.9995,-3.9975,-3.9995,-3.9995,-3.9975,-4.001,-4.003,-4.003,-4.003,-4.003,-3.9888,-3.926,-3.826,-3.7188,-3.6548,-3.5981,-3.5409,-3.4733,-3.4511,-3.4448,-3.4448,-3.4414,-3.4414,-3.4448,-3.4448,-3.4448,-3.4448,-3.4448,-3.4026,-3.273,-3.2452,-3.1569,-2.9058,0.0,0.0,0.0,0.0,0.0,0.0,-2.8186,-2.8854,0.0,0.0,0.0,0.0,0.0,-2.8492,-3.1466,-3.2861,-3.3819,-3.4399,-3.4414,-3.4414,-3.4414,-3.4414,-3.4414,-3.4428,-3.516,-3.5784,-3.6344,-3.7056,-3.768,-3.8202,-3.8202,-3.8202,-3.8202,-3.8202,-3.8202,-3.8202,-3.8202,-3.8202,-3.8202,0.0,0.0,-4.6671,-4.733,-4.6509,-4.5934,-4.6433,-4.5672,-4.4941,-4.4773,-4.4308,-4.3993,-4.3993,-4.3848,-4.3703,-4.3558,-4.2658,-4.2092,-4.2092,-4.2092,-4.2092,-4.2092,-4.1947,-4.186,-4.186,-4.1207,-4.085,-4.0843,-4.0548,-4.0635,-4.1076,-4.0422,-4.0197,-4.0317,-3.9739,-3.9514,-3.9514,-3.9657,-3.9692,-3.9763,-4.0355,-4.0578,-4.0646,-4.1039,-4.0938,-4.0631,-4.1039,-4.0938,-4.0631,-4.1073,-4.1207,-4.1207,-4.1207,-4.1207,-4.0992,-3.9986,-3.9152,-3.8553,-3.8387,-3.788,-3.7236,-3.6556,-3.5687,-3.5019,-3.5019,-3.4687,-3.4501,-3.492,-3.5019,-3.5019,-3.5019,-3.5019,-3.446,-3.278,-3.206,-3.1032,-2.8999,-2.8709,0.0,0.0,-2.9116,-2.9711,-2.9711,-3.0393,-3.0234,0.0,0.0,0.0,0.0,-3.0205,-3.0944,-3.2205,-3.3514,-3.4269,-3.4414,-3.4414,-3.4414,-3.4414,-3.4414,-3.4414,-3.4443,-3.5575,-3.6156,-3.6373,-3.7506,-3.8072,-3.8202,-3.8202,-3.8202,-3.8202,-3.8202,-3.8202,-3.8202,-3.8202,-3.8202,-3.8202,-4.9117,-4.8412,-4.8031,-4.8675,-4.7985,-4.7441,-4.7794,-4.7246,-4.6562,-4.596,-4.5561,-4.5201,-4.4894,-4.4574,-4.44,-4.44,-4.3239,-4.2513,-4.2513,-4.2252,-4.2092,-4.2092,-4.2092,-4.2092,-4.2092,-4.2,-4.1952,-4.1979,-4.1979,-4.1965,-4.2004,-4.1617,-4.1465,-4.1435,-4.1055,-4.0851,-4.0887,-4.1153,-4.1076,-4.0819,-4.1436,-4.1469,-4.1189,-4.1489,-4.1423,-4.1189,-4.1489,-4.1423,-4.1189,-4.1489,-4.1588,-4.1588,-4.1588,-4.1588,-4.1489,-4.0854,-4.0266,-3.9757,-3.9434,-3.8913,-3.8226,-3.7236,-3.6491,-3.5934,-3.5619,-3.5285,-3.5169,-3.5447,-3.5512,-3.5512,-3.5512,-3.5078,-3.4243,-3.2674,-3.1913,-3.0858,-2.8942,-2.9203,0.0,-2.9581,-3.0408,-3.1119,-3.1438,-3.2034,-3.1859,-3.0539,-3.1293,0.0,-3.1395,-3.2309,-3.2875,-3.2948,-3.3906,-3.4414,-3.4414,-3.4414,-3.4414,-3.4414,-3.4414,-3.4414,-3.4457,-3.5735,-3.6301,-3.6373,-3.7651,-3.8202,-3.8202,-3.8202,-3.8202,-3.8202,-3.8202,-3.8202,-3.8202,-3.8202,-3.8202,-3.8202,-5.0509,-4.971,-4.9228,-4.9797,-4.9446,-4.9066,-4.9066,-4.8969,-4.8475,-4.7364,-4.7119,-4.6829,-4.6269,-4.5668,-4.5361,-4.5361,-4.4165,-4.3308,-4.3007,-4.2596,-4.2344,-4.2242,-4.2242,-4.2284,-4.2366,-4.2875,-4.3187,-4.3266,-4.3266,-4.3052,-4.2582,-4.2475,-4.2414,-4.2414,-4.2322,-4.2276,-4.2276,-4.2793,-4.2665,-4.214,-4.2651,-4.2473,-4.1904,-4.1904,-4.1904,-4.1904,-4.1904,-4.1904,-4.1889,-4.1794,-4.1762,-4.1746,-4.1636,-4.1588,-4.1588,-4.1588,-4.129,-4.0795,-4.0222,-3.9671,-3.8962,-3.7816,-3.7308,-3.6938,-3.6329,-3.602,-3.5913,-3.6008,-3.6008,-3.6008,-3.6008,-3.5162,-3.3961,-3.2526,-3.1883,-3.0922,-2.9069,0.0,-3.0836,-3.0968,-3.1505,-3.2157,-3.2826,-3.3274,-3.3314,-3.2832,-3.3717,-3.408,-3.3663,-3.4124,-3.4167,-3.3663,-3.4124,-3.4414,-3.4414,-3.4414,-3.4414,-3.4414,-3.4414,-3.4457,-3.4603,-3.5778,-3.6359,-3.6519,-3.7694,-3.8202,-3.8202,-3.8202,-3.8202,-3.8202,-3.8202,-3.8202,-3.8202,-3.8202,-3.8202,-3.8202,-5.0563,-5.0097,-4.9797,-4.9876,-4.9797,-4.9741,-4.9741,-4.9269,-4.8805,-4.8599,-4.8115,-4.7706,-4.7606,-4.7516,-4.7455,-4.7455,-4.6196,-4.4754,-4.3107,-4.3378,-4.3412,-4.2864,-4.2835,-4.3115,-4.3615,-4.3732,-4.4021,-4.4507,-4.4507,-4.4738,-4.5206,-4.4578,-4.4279,-4.4263,-4.3713,-4.3427,-4.3446,-4.3548,-4.352,-4.3409,-4.3529,-4.3466,-4.3355,-4.3355,-4.3374,-4.3392,-4.3374,-4.3355,-4.3311,-4.271,-4.2521,-4.241,-4.1778,-4.1588,-4.1588,-4.1588,-4.1555,-4.1458,-4.1347,-4.0856,-4.0304,-4.0084,-3.8808,-3.7574,-3.7466,-3.6641,-3.6023,-3.6476,-3.6585,-3.6585,-3.6585,-3.5968,-3.4759,-3.2646,-3.2032,-3.1236,-2.954,0.0,-3.1977,-3.258,-3.3303,-3.4048,-3.4715,-3.3999,-3.3678,-3.408,-3.3804,-3.3804,-3.424,-3.4356,-3.437,-3.4269,-3.4356,-3.4414,-3.4414,-3.4414,-3.4414,-3.4414,-3.4414,-3.4704,-3.5276,-3.5981,-3.662,-3.7186,-3.7897,-3.8202,-3.8202,-3.8202,-3.8202,-3.8202,-3.8202,-3.8202,-3.8202,-3.8202,-3.8202,-3.8202,-5.0892,-5.0547,-5.0253,-4.9955,-4.9876,-4.9876,-4.9876,-4.9622,-4.9325,-4.8928,-4.8641,-4.8309,-4.7946,-4.7904,-4.7904,-4.7904,-4.7319,-4.6451,-4.5227,-4.4388,-4.3935,-4.4078,-4.3692,-4.3771,-4.4373,-4.4358,-4.4692,-4.5358,-4.5358,-4.5484,-4.5807,-4.546,-4.5302,-4.5286,-4.4986,-4.4808,-4.4808,-4.4808,-4.4622,-4.4224,-4.4224,-4.4003,-4.3687,-4.3687,-4.3722,-4.3706,-4.3687,-4.3687,-4.364,-4.3342,-4.2995,-4.2631,-4.2284,-4.1904,-4.1588,-4.1588,-4.1588,-4.1588,-4.1588,-4.1367,-4.1051,-4.0688,-3.9645,-3.856,-3.8216,-3.7405,-3.6831,-3.7089,-3.7135,-3.7135,-3.7135,-3.6331,-3.5255,-3.3872,-3.3314,0.0,0.0,-3.2696,-3.3726,-3.403,-3.468,-3.5149,-3.5204,-3.4706,-3.4413,-3.4385,-3.4138,-3.4109,-3.4399,-3.4414,-3.4414,-3.4414,-3.4414,-3.4414,-3.4414,-3.4414,-3.4414,-3.4414,-3.4414,-3.4748,-3.5421,-3.6011,-3.6678,-3.7346,-3.7941,-3.8202,-3.8202,-3.8202,-3.8202,-3.8202,-3.8202,-3.8202,-3.8202,-3.8202,-3.8202,-3.8202,-5.1194,-5.0854,-5.047,-4.9995,-4.9876,-4.9876,-4.9876,-4.9876,-4.9717,-4.9188,-4.9147,-4.8944,-4.8407,-4.8366,-4.8366,-4.8366,-4.824,-4.8026,-4.7671,-4.5874,-4.5027,-4.5434,-4.4855,-4.4657,-4.4812,-4.494,-4.5268,-4.5807,-4.5807,-4.5807,-4.5807,-4.5807,-4.5807,-4.5807,-4.5807,-4.5807,-4.5807,-4.5807,-4.5476,-4.497,-4.497,-4.467,-4.4176,-4.4176,-4.4176,-4.4176,-4.4176,-4.4176,-4.4145,-4.3971,-4.3595,-4.3137,-4.2979,-4.2426,-4.1841,-4.1841,-4.1715,-4.1588,-4.1588,-4.1588,-4.1462,-4.0956,-4.0293,-3.9582,-3.8902,-3.8207,-3.77,-3.7541,-3.751,-3.751,-3.751,-3.6599,-3.563,-3.4916,0.0,0.0,0.0,-3.445,-3.5339,-3.5339,-3.5768,-3.5959,-3.5591,-3.5332,-3.5037,-3.4635,-3.4481,-3.4414,-3.4414,-3.4414,-3.4414,-3.4414,-3.4414,-3.4414,-3.4414,-3.4414,-3.4414,-3.4414,-3.4414,-3.482,-3.5625,-3.6083,-3.6751,-3.7549,-3.7999,-3.8202,-3.8202,-3.8202,-3.8202,-3.8202,-3.8202,-3.8202,-3.8202,-3.8202,-3.8202,-3.8202,-5.1194,-5.0778,-5.037,-4.9955,-4.9876,-4.9876,-4.9876,-4.9876,-4.9876,-4.9836,-4.9836,-4.9797,-4.9757,-4.9757,-4.9757,-4.9757,-4.9188,-4.9091,-4.9638,-4.8375,-4.7358,-4.6772,-4.6658,-4.6022,-4.4827,-4.5395,-4.5771,-4.5807,-4.5807,-4.5807,-4.5807,-4.5807,-4.5807,-4.5807,-4.5807,-4.5807,-4.5807,-4.5807,-4.5776,-4.5728,-4.5728,-4.5697,-4.5665,-4.5665,-4.5665,-4.5665,-4.5665,-4.5665,-4.5555,-4.4875,-4.4606,-4.4448,-4.3813,-4.3169,-4.2616,-4.2616,-4.2126,-4.1588,-4.1588,-4.1588,-4.1573,-4.1525,-4.102,-4.0324,-3.9598,-3.8918,-3.8254,-3.7636,-3.751,-3.751,-3.751,-3.6866,-3.6012,-3.4974,0.0,0.0,-3.3817,-3.518,-3.6306,-3.6306,-3.6487,-3.6616,-3.6585,-3.5752,-3.5169,-3.5136,-3.4668,-3.4414,-3.4414,-3.4414,-3.4414,-3.4414,-3.4414,-3.4414,-3.4414,-3.4414,-3.4414,-3.4414,-3.4414,-3.5053,-3.6243,-3.6286,-3.6983,-3.8144,-3.8188,-3.8202,-3.8202,-3.8202,-3.8202,-3.8202,-3.8202,-3.8202,-3.8202,-3.8202,-3.8202,-3.8202,-5.1614,-5.1322,-5.093,-5.037,-5.0331,-5.0292,-4.9955,-4.9876,-4.9876,-4.9876,-4.9876,-4.9876,-4.9876,-4.9876,-4.9876,-4.9876,-4.9661,-4.9622,-4.9876,-4.9426,-4.8663,-4.7565,-4.707,-4.6549,-4.6043,-4.5887,-4.5807,-4.5807,-4.5807,-4.5807,-4.5807,-4.5807,-4.5807,-4.5807,-4.5807,-4.5807,-4.5807,-4.5807,-4.5807,-4.5807,-4.5807,-4.5807,-4.5807,-4.5807,-4.5807,-4.5807,-4.5807,-4.5807,-4.5776,-4.5491,-4.5096,-4.467,-4.4417,-4.3864,-4.3248,-4.2821,-4.2489,-4.2173,-4.1715,-4.1588,-4.1588,-4.1588,-4.1099,-4.053,-4.0245,-3.9629,-3.8934,-3.8254,-3.8128,-3.7986,-3.7589,-3.7259,-3.6961,-3.6531,0.0,-3.655,-3.6137,-3.665,-3.7069,-3.7069,-3.7158,-3.7075,-3.6723,-3.6352,-3.6006,-3.5672,-3.5447,-3.5201,-3.492,-3.4568,-3.4534,-3.4887,-3.4887,-3.4735,-3.4414,-3.4414,-3.4414,-3.4414,-3.4414,-3.5082,-3.6301,-3.6301,-3.6997,-3.8202,-3.8202,-3.8202,-3.8202,-3.8202,-3.8202,-3.8202,-3.8202,-3.8202,-3.8202,-3.8202,-3.8202,-3.8202,-5.1888,-5.1688,-5.1397,-5.0778,-5.0778,-5.0663,-5.0175,-5.0073,-5.0034,-4.9931,-4.9876,-4.9876,-4.9876,-4.9876,-4.9955,-5.0073,-4.9955,-4.9955,-5.0073,-5.0073,-4.9527,-4.8256,-4.7719,-4.7245,-4.6803,-4.6345,-4.6013,-4.5807,-4.5807,-4.5807,-4.5807,-4.5807,-4.5807,-4.5807,-4.5807,-4.5807,-4.5807,-4.5807,-4.5807,-4.5807,-4.59,-4.59,-4.5807,-4.5936,-4.59,-4.5807,-4.5807,-4.5807,-4.5807,-4.5936,-4.5623,-4.523,-4.5352,-4.4856,-4.4069,-4.3421,-4.2954,-4.2584,-4.2062,-4.1762,-4.1588,-4.1588,-4.1241,-4.0862,-4.064,-4.0214,-3.9645,-3.8965,-3.8665,-3.8365,-3.7891,-3.7652,-3.751,-3.751,-3.751,-3.751,-3.751,-3.751,-3.751,-3.751,-3.7583,-3.7449,-3.6998,-3.6892,-3.6662,-3.618,-3.6023,-3.5753,-3.5447,-3.507,-3.5037,-3.5415,-3.5415,-3.5234,-3.4887,-3.4887,-3.4887,-3.4887,-3.4887,-3.5564,-3.6801,-3.6801,-3.7508,-3.873,-3.873,-3.8634,-3.8501,-3.8671,-3.8523,-3.824,-3.8583,-3.8523,-3.824,-3.8427,-3.8352,-3.8202,-5.1888,-5.1815,-5.1651,-5.1194,-5.1118,-5.0968,-5.0563,-5.0509,-5.037,-4.9955,-4.9916,-4.9916,-4.9916,-4.9916,-5.0073,-5.0486,-5.0152,-5.0073,-5.0486,-5.0509,-5.0028,-4.8959,-4.8927,-4.8241,-4.685,-4.6803,-4.6487,-4.5823,-4.5807,-4.5807,-4.5807,-4.5807,-4.5807,-4.5807,-4.5807,-4.5807,-4.5807,-4.5807,-4.5807,-4.5844,-4.6175,-4.612,-4.5844,-4.6175,-4.6084,-4.5807,-4.5807,-4.5807,-4.588,-4.6211,-4.6285,-4.6356,-4.6772,-4.6166,-4.52,-4.4495,-4.3572,-4.2728,-4.2728,-4.2191,-4.1621,-4.1588,-4.1588,-4.1415,-4.0751,-4.0609,-4.0403,-3.9661,-3.8981,-3.8523,-3.8523,-3.7954,-3.7526,-3.7526,-3.751,-3.751,-3.751,-3.751,-3.751,-3.751,-3.7727,-3.7815,-3.7524,-3.7268,-3.6996,-3.6739,-3.6212,-3.5913,-3.5913,-3.5913,-3.5913,-3.5913,-3.5913,-3.5913,-3.5913,-3.5913,-3.5913,-3.5913,-3.5913,-3.6626,-3.7901,-3.7916,-3.8645,-3.9889,-3.9889,-3.96,-3.9141,-3.9692,-3.9226,-3.8337,-3.9478,-3.9226,-3.8277,-3.8885,-3.8723,-3.8202,-5.223,-5.223,-5.2086,-5.1651,-5.1577,-5.145,-5.0968,-5.093,-5.0892,-5.0739,-5.0739,-5.0739,-5.0739,-5.0739,-5.0778,-5.093,-5.0816,-5.0778,-5.093,-5.093,-5.0757,-5.0472,-4.9989,-4.9411,-4.8711,-4.7722,-4.6986,-4.6503,-4.6044,-4.5807,-4.5807,-4.5807,-4.5807,-4.5807,-4.5807,-4.5807,-4.5807,-4.6048,-4.614,-4.6175,-4.6266,-4.6407,-4.6545,-4.6372,-4.6407,-4.658,-4.658,-4.658,-4.658,-4.6703,-4.6738,-4.6738,-4.6842,-4.6662,-4.6233,-4.5285,-4.495,-4.4598,-4.3387,-4.3038,-4.2848,-4.1847,-4.1588,-4.1541,-4.1336,-4.1288,-4.1099,-4.0403,-4.0119,-3.9819,-3.9297,-3.8649,-3.8207,-3.8207,-3.7796,-3.7553,-3.7756,-3.7786,-3.7873,-3.8107,-3.8221,-3.8205,-3.8135,-3.8062,-3.7886,-3.7565,-3.6876,-3.6554,-3.6722,-3.6212,-3.6086,-3.6445,-3.6445,-3.6646,-3.7013,-3.6274,-3.5913,-3.5913,-3.6413,-3.7096,-3.7916,-3.8451,-3.9135,-3.9889,-3.9889,-3.9799,-3.9657,-3.9819,-3.9692,-3.9442,-3.9748,-3.9677,-3.9391,-3.9585,-3.955,-3.9406,-5.2409,-5.2409,-5.2302,-5.2086,-5.205,-5.1888,-5.1434,-5.1359,-5.1322,-5.1118,-5.1118,-5.1118,-5.1118,-5.1118,-5.1156,-5.1359,-5.1359,-5.1359,-5.1359,-5.1359,-5.145,-5.1598,-5.121,-5.0615,-4.9769,-4.888,-4.8207,-4.7732,-4.7009,-4.6674,-4.6658,-4.637,-4.6136,-4.5977,-4.6171,-4.6136,-4.6028,-4.6388,-4.6547,-4.6547,-4.6671,-4.6791,-4.6876,-4.6791,-4.6791,-4.6876,-4.6876,-4.6876,-4.6911,-4.7048,-4.7184,-4.7336,-4.7336,-4.7235,-4.6967,-4.6324,-4.5966,-4.558,-4.4523,-4.3977,-4.3493,-4.2638,-4.2107,-4.1785,-4.1785,-4.1687,-4.1478,-4.1083,-4.0896,-4.0658,-4.0229,-3.9654,-3.9283,-3.9283,-3.8962,-3.8638,-3.8541,-3.8521,-3.8499,-3.8396,-3.8504,-3.8532,-3.8391,-3.8504,-3.8432,-3.8103,-3.7639,-3.7403,-3.7399,-3.6951,-3.6799,-3.6998,-3.7264,-3.7432,-3.751,-3.7375,-3.7186,-3.694,-3.7372,-3.8066,-3.8976,-3.9442,-3.9998,-4.0566,-4.0566,-4.0462,-4.027,-4.0497,-4.0324,-3.9925,-4.0393,-4.0289,-3.994,-4.0165,-4.0115,-3.9889,-5.2409,-5.2409,-5.2409,-5.2409,-5.2409,-5.2266,-5.1904,-5.1851,-5.1688,-5.1268,-5.1231,-5.1231,-5.1231,-5.1231,-5.1397,-5.1815,-5.1851,-5.1851,-5.1851,-5.1851,-5.2013,-5.2373,-5.2409,-5.1756,-5.0327,-5.0209,-4.9831,-4.9199,-4.845,-4.8093,-4.8077,-4.7429,-4.6864,-4.6468,-4.6835,-4.6751,-4.6356,-4.6772,-4.6945,-4.6979,-4.7286,-4.7252,-4.703,-4.732,-4.7252,-4.6996,-4.6996,-4.6996,-4.7048,-4.7354,-4.7704,-4.8001,-4.8001,-4.7754,-4.7454,-4.7404,-4.6745,-4.5989,-4.5891,-4.4951,-4.3944,-4.3831,-4.3025,-4.2254,-4.2158,-4.1916,-4.1687,-4.1687,-4.1438,-4.1244,-4.1244,-4.0895,-4.0605,-4.0605,-4.054,-4.0296,-3.9713,-3.9632,-3.9388,-3.8752,-3.8814,-3.8864,-3.8602,-3.8716,-3.8694,-3.8504,-3.842,-3.8262,-3.8001,-3.8008,-3.7881,-3.7634,-3.8269,-3.8302,-3.77,-3.8886,-3.9171,-3.8507,-3.8634,-3.936,-4.0609,-4.0656,-4.102,-4.1588,-4.1588,-4.1323,-4.0901,-4.139,-4.099,-4.017,-4.1192,-4.0956,-4.0115,-4.0681,-4.0528,-4.003,-5.2409,-5.2409,-5.2409,-5.2409,-5.2409,-5.2373,-5.2266,-5.2266,-5.223,-5.2142,-5.2106,-5.2106,-5.2106,-5.2106,-5.2142,-5.2266,-5.2266,-5.2266,-5.2266,-5.2266,-5.2302,-5.239,-5.2409,-5.2219,-5.1911,-5.1047,-5.033,-4.9876,-4.9179,-4.8839,-4.8839,-4.8693,-4.8269,-4.7664,-4.7718,-4.7376,-4.6807,-4.7134,-4.727,-4.7303,-4.7371,-4.7571,-4.7721,-4.7488,-4.7555,-4.7754,-4.7754,-4.7754,-4.7754,-4.7853,-4.7935,-4.8001,-4.8001,-4.7935,-4.782,-4.7488,-4.7456,-4.7325,-4.6454,-4.6208,-4.5939,-4.4785,-4.4094,-4.3519,-4.2683,-4.2428,-4.2365,-4.2365,-4.2346,-4.2265,-4.2265,-4.1761,-4.1353,-4.1353,-4.0896,-4.0534,-4.0655,-4.0667,-4.0689,-4.0736,-4.0326,-4.0023,-3.9968,-3.9259,-3.8887,-3.9083,-3.8672,-3.8476,-3.8611,-3.866,-3.8688,-3.8677,-3.9057,-3.9218,-3.906,-3.9345,-3.9171,-3.8523,-3.9629,-4.0309,-4.0625,-4.113,-4.1446,-4.1588,-4.1588,-4.1522,-4.1423,-4.1555,-4.144,-4.1274,-4.1507,-4.1456,-4.1241,-4.139,-4.1341,-4.1241,-5.2409,-5.2409,-5.2409,-5.2409,-5.2409,-5.2409,-5.2409,-5.2409,-5.2409,-5.2409,-5.2409,-5.2409,-5.2409,-5.2409,-5.2409,-5.2409,-5.2409,-5.2409,-5.2409,-5.2409,-5.2409,-5.2409,-5.2409,-5.2409,-5.2409,-5.1815,-5.1421,-5.1188,-5.0468,-5.0159,-5.0159,-4.9796,-4.9314,-4.8782,-4.8973,-4.8529,-4.7706,-4.8063,-4.8017,-4.7671,-4.7671,-4.782,-4.7968,-4.7787,-4.782,-4.8001,-4.8001,-4.8001,-4.8001,-4.8001,-4.8001,-4.8001,-4.8001,-4.8001,-4.7968,-4.7754,-4.7853,-4.7885,-4.7276,-4.701,-4.6709,-4.593,-4.5342,-4.458,-4.3157,-4.271,-4.2617,-4.2617,-4.271,-4.2851,-4.2851,-4.268,-4.2542,-4.2542,-4.2228,-4.1927,-4.1745,-4.1725,-4.1651,-4.143,-4.1094,-4.0878,-4.0878,-4.0375,-4.0117,-4.0299,-4.0022,-3.9853,-3.9853,-3.9881,-3.9841,-3.9723,-4.0064,-4.0086,-3.9752,-4.0262,-4.0166,-3.9518,-4.0245,-4.0767,-4.1083,-4.143,-4.1588,-4.1588,-4.1588,-4.1588,-4.1588,-4.1588,-4.1588,-4.1588,-4.1588,-4.1588,-4.1588,-4.1588,-4.1588,-4.1588,-5.2409,-5.2409,-5.2409,-5.2409,-5.2409,-5.2409,-5.2409,-5.2409,-5.2409,-5.2409,-5.2409,-5.2409,-5.2409,-5.2409,-5.2409,-5.2409,-5.2409,-5.2409,-5.2409,-5.2409,-5.2409,-5.2409,-5.2409,-5.2409,-5.2409,-5.2409,-5.2409,-5.2409,-5.1796,-5.1498,-5.1481,-5.0866,-5.0329,-4.9902,-5.0248,-4.9801,-4.8802,-4.9141,-4.8945,-4.8365,-4.8249,-4.8199,-4.8166,-4.805,-4.8001,-4.8001,-4.8001,-4.8001,-4.8001,-4.8001,-4.8001,-4.8001,-4.8001,-4.8001,-4.8001,-4.8001,-4.8001,-4.8001,-4.8001,-4.7554,-4.7057,-4.6924,-4.6444,-4.5553,-4.3939,-4.3235,-4.2919,-4.2805,-4.3005,-4.3204,-4.3204,-4.3402,-4.3598,-4.3598,-4.3598,-4.3383,-4.2754,-4.2688,-4.2456,-4.1844,-4.1645,-4.1529,-4.1397,-4.1409,-4.1409,-4.1409,-4.1409,-4.1312,-4.107,-4.1127,-4.106,-4.0761,-4.114,-4.1051,-4.0442,-4.1326,-4.1467,-4.0863,-4.0863,-4.1132,-4.1588,-4.1588,-4.1588,-4.1588,-4.1588,-4.1588,-4.1588,-4.1588,-4.1588,-4.1588,-4.1588,-4.1588,-4.1588,-4.1588,-4.1588,-4.1588,-5.2409,-5.2409,-5.2409,-5.2409,-5.2409,-5.2409,-5.2409,-5.2409,-5.2409,-5.2409,-5.2409,-5.2409,-5.2409,-5.2409,-5.2409,-5.2409,-5.2409,-5.2409,-5.2409,-5.2409,-5.2409,-5.2409,-5.2409,-5.2409,-5.2409,-5.2409,-5.2409,-5.2409,-5.231,-5.2224,-5.226,-5.2125,-5.1744,-5.108,-5.1131,-5.0699,-4.9986,-5.0037,-5.0005,-4.9856,-4.9226,-4.8961,-4.8895,-4.8249,-4.8001,-4.8001,-4.8001,-4.8001,-4.8001,-4.8001,-4.8001,-4.8001,-4.8001,-4.8001,-4.8001,-4.8001,-4.8001,-4.8001,-4.8001,-4.7934,-4.7703,-4.7057,-4.6825,-4.6527,-4.5651,-4.4894,-4.4235,-4.3594,-4.3492,-4.3522,-4.3522,-4.3568,-4.3598,-4.3598,-4.3598,-4.3565,-4.3466,-4.3449,-4.34,-4.33,-4.2738,-4.2092,-4.1446,-4.1409,-4.1409,-4.1409,-4.1409,-4.138,-4.1368,-4.1687,-4.1838,-4.1808,-4.2192,-4.2361,-4.2248,-4.2394,-4.2253,-4.1917,-4.1917,-4.1788,-4.1588,-4.1588,-4.1588,-4.1588,-4.1588,-4.1588,-4.1588,-4.1588,-4.1588,-4.1588,-4.1588,-4.1588,-4.1588,-4.1588,-4.1588,-4.1588,-5.2409,-5.2409,-5.2409,-5.2409,-5.2409,-5.2409,-5.2409,-5.2409,-5.2409,-5.2409,-5.2409,-5.2409,-5.2409,-5.2409,-5.2409,-5.2409,-5.2409,-5.2409,-5.2409,-5.2409,-5.2409,-5.2409,-5.2409,-5.2409,-5.2409,-5.2409,-5.2409,-5.2409,-5.2409,-5.2409,-5.2409,-5.2409,-5.2243,-5.1928,-5.1928,-5.1479,-5.08,-5.08,-5.0585,-5.0187,-4.9856,-4.9723,-4.9641,-4.8912,-4.8614,-4.8564,-4.815,-4.8001,-4.8001,-4.8001,-4.8001,-4.8001,-4.8001,-4.8001,-4.8001,-4.8001,-4.8001,-4.8001,-4.8001,-4.8001,-4.7918,-4.7603,-4.7504,-4.7322,-4.6576,-4.6146,-4.5599,-4.4456,-4.388,-4.3598,-4.3598,-4.3598,-4.3598,-4.3598,-4.3598,-4.3598,-4.3598,-4.3598,-4.3598,-4.3598,-4.33,-4.2986,-4.2655,-4.2622,-4.2622,-4.2622,-4.2622,-4.2622,-4.2622,-4.2802,-4.2878,-4.2878,-4.2888,-4.2898,-4.2881,-4.2679,-4.2522,-4.2381,-4.2381,-4.2093,-4.1588,-4.1588,-4.1588,-4.1588,-4.1588,-4.1588,-4.1588,-4.1588,-4.1588,-4.1588,-4.1588,-4.1588,-4.1588,-4.1588,-4.1588,-4.1588]},{"header":{"parameterUnit":"m.s-1","parameterCategory":1,"la1":30.6,"la2":28.766,"lo1":-90.7593,"lo2":-88.6598,"dy":0.0162,"dx":0.0183,"nx":116,"ny":114,"refTime":"2024-07-06T12:00:00:Z","depth":0,"parameterNumber":3,"parameterNumberName":"V-component_of_WINDS"},"data":[0.0,0.0,0.0,0.0,0.0,0.0,0.0,0.0,0.0,0.0,0.0,0.0,0.0,0.0,0.0,0.0,0.0,0.0,0.0,0.0,0.0,0.0,0.0,0.0,0.0,0.0,0.0,0.0,0.0,0.0,0.0,0.0,0.0,0.0,0.0,0.0,0.0,0.0,0.0,0.0,0.0,0.0,0.0,0.0,0.0,0.0,0.0,0.0,0.0,0.0,0.0,0.0,0.0,0.0,0.0,0.0,0.0,0.0,0.0,0.0,0.0,0.0,0.0,0.0,0.0,0.0,0.0,0.0,0.0,0.0,0.0,0.0,0.0,0.0,0.0,0.0,0.0,0.0,0.0,0.0,0.0,0.0,0.0,0.0,0.0,0.0,0.0,0.0,0.0,0.0,0.0,0.0,0.0,0.0,0.0,0.0,0.0,0.0,0.0,0.0,0.0,0.0,0.0,0.0,0.0,0.0,0.0,0.0,0.0,0.0,0.0,0.0,0.0,0.0,0.0,0.0,0.0,0.0,0.0,0.0,0.0,0.0,0.0,0.0,0.0,0.0,0.0,0.0,0.0,0.0,0.0,0.0,0.0,0.0,0.0,0.0,0.0,0.0,0.0,0.0,0.0,0.0,0.0,0.0,0.0,0.0,0.0,0.0,0.0,0.0,0.0,0.0,0.0,0.0,0.0,0.0,0.0,0.0,0.0,0.0,0.0,0.0,0.0,0.0,0.0,0.0,0.0,0.0,0.0,0.0,0.0,0.0,0.0,0.0,0.0,0.0,0.0,0.0,0.0,0.0,0.0,0.0,0.0,0.0,0.0,0.0,0.0,0.0,0.0,0.0,0.0,0.0,0.0,0.0,0.0,0.0,0.0,0.0,0.0,0.0,0.0,0.0,0.0,0.0,0.0,0.0,0.0,0.0,0.0,0.0,0.0,0.0,0.0,0.0,0.0,0.0,0.0,0.0,0.0,0.0,0.0,0.0,0.0,0.0,0.0,0.0,0.0,0.0,0.0,0.0,0.0,0.0,0.0,0.0,0.0,0.0,0.0,0.0,0.0,0.0,0.0,0.0,0.0,0.0,0.0,0.0,0.0,0.0,0.0,0.0,0.0,0.0,0.0,0.0,0.0,0.0,0.0,0.0,0.0,0.0,0.0,0.0,0.0,0.0,0.0,0.0,0.0,0.0,0.0,0.0,0.0,0.0,0.0,0.0,0.0,0.0,0.0,0.0,0.0,0.0,0.0,0.0,0.0,0.0,0.0,0.0,0.0,0.0,0.0,0.0,0.0,0.0,0.0,0.0,0.0,0.0,0.0,0.0,0.0,0.0,0.0,0.0,0.0,0.0,0.0,0.0,0.0,0.0,0.0,0.0,0.0,0.0,0.0,0.0,0.0,0.0,0.0,0.0,0.0,0.0,0.0,0.0,0.0,0.0,0.0,0.0,0.0,0.0,0.0,0.0,0.0,0.0,0.0,0.0,0.0,0.0,0.0,0.0,0.0,0.0,0.0,0.0,0.0,0.0,0.0,0.0,0.0,0.0,0.0,0.0,0.0,0.0,0.0,0.0,0.0,0.0,0.0,0.0,0.0,0.0,0.0,0.0,0.0,0.0,0.0,0.0,0.0,0.0,0.0,0.0,0.0,0.0,0.0,0.0,0.0,0.0,0.0,0.0,0.0,0.0,0.0,0.0,0.0,0.0,0.0,0.0,0.0,0.0,0.0,0.0,0.0,0.0,0.0,0.0,0.0,0.0,0.0,0.0,0.0,0.0,0.0,0.0,0.0,0.0,0.0,0.0,0.0,0.0,0.0,0.0,0.0,0.0,0.0,0.0,0.0,0.0,0.0,0.0,0.0,0.0,0.0,0.0,0.0,0.0,0.0,0.0,0.0,0.0,0.0,0.0,0.0,0.0,0.0,0.0,0.0,0.0,0.0,0.0,0.0,0.0,0.0,0.0,0.0,0.0,0.0,0.0,0.0,0.0,0.0,0.0,0.0,0.0,0.0,0.0,0.0,0.0,0.0,0.0,0.0,0.0,0.0,0.0,0.0,0.0,0.0,0.0,0.0,0.0,0.0,0.0,0.0,0.0,0.0,0.0,0.0,0.0,0.0,0.0,0.0,0.0,0.0,0.0,0.0,0.0,0.0,0.0,0.0,0.0,0.0,0.0,0.0,0.0,0.0,0.0,0.0,0.0,0.0,0.0,0.0,0.0,0.0,0.0,0.0,0.0,0.0,0.0,0.0,0.0,0.0,0.0,0.0,0.0,0.0,0.0,0.0,0.0,0.0,0.0,0.0,0.0,0.0,0.0,0.0,0.0,0.0,0.0,0.0,0.0,0.0,0.0,0.0,0.0,0.0,0.0,0.0,0.0,0.0,0.0,0.0,0.0,0.0,0.0,0.0,0.0,0.0,0.0,0.0,0.0,0.0,0.0,0.0,0.0,0.0,0.0,0.0,0.0,0.0,0.0,0.0,0.0,0.0,0.0,0.0,0.0,0.0,0.0,0.0,0.0,0.0,0.0,0.0,0.0,0.0,0.0,0.0,0.0,0.0,0.0,0.0,0.0,0.0,0.0,0.0,0.0,0.0,0.0,0.0,0.0,0.0,0.0,0.0,0.0,0.0,0.0,0.0,0.0,0.0,0.0,0.0,0.0,0.0,0.0,0.0,0.0,0.0,0.0,0.0,0.0,0.0,0.0,0.0,0.0,0.0,0.0,0.0,0.0,0.0,0.0,0.0,0.0,0.0,0.0,0.0,0.0,0.0,0.0,0.0,0.0,0.0,0.0,0.0,0.0,0.0,0.0,0.0,0.0,0.0,0.0,0.0,0.0,0.0,0.0,0.0,0.0,0.0,0.0,0.0,0.0,0.0,0.0,0.0,0.0,0.0,0.0,0.0,0.0,0.0,0.0,0.0,0.0,0.0,0.0,0.0,0.0,0.0,0.0,0.0,0.0,0.0,0.0,0.0,0.0,0.0,0.0,0.0,0.0,0.0,0.0,0.0,0.0,0.0,0.0,0.0,0.0,0.0,0.0,0.0,0.0,0.0,0.0,0.0,0.0,0.0,0.0,0.0,0.0,0.0,0.0,0.0,0.0,0.0,0.0,0.0,0.0,0.0,0.0,0.0,0.0,0.0,0.0,0.0,0.0,0.0,0.0,0.0,0.0,0.0,0.0,0.0,0.0,0.0,0.0,0.0,0.0,0.0,0.0,0.0,0.0,0.0,0.0,0.0,0.0,0.0,0.0,0.0,0.0,0.0,0.0,0.0,0.0,0.0,0.0,0.0,0.0,0.0,0.0,0.0,0.0,0.0,0.0,0.0,0.0,0.0,0.0,0.0,0.0,0.0,0.0,0.0,0.0,0.0,0.0,0.0,0.0,0.0,0.0,0.0,0.0,0.0,0.0,0.0,0.0,0.0,0.0,0.0,0.0,0.0,0.0,0.0,0.0,0.0,0.0,0.0,0.0,0.0,0.0,0.0,0.0,0.0,0.0,0.0,0.0,0.0,0.0,0.0,0.0,0.0,0.0,0.0,0.0,0.0,0.0,0.0,0.0,0.0,0.0,0.0,0.0,0.0,0.0,0.0,0.0,0.0,0.0,0.0,0.0,0.0,0.0,0.0,0.0,0.0,0.0,0.0,0.0,0.0,0.0,0.0,0.0,0.0,0.0,0.0,0.0,0.0,0.0,0.0,0.0,0.0,0.0,0.0,0.0,0.0,0.0,0.0,0.0,0.0,0.0,0.0,0.0,0.0,0.0,0.0,0.0,0.0,0.0,0.0,0.0,0.0,0.0,0.0,0.0,0.0,0.0,0.0,0.0,0.0,0.0,0.0,0.0,0.0,0.0,0.0,0.0,0.0,0.0,0.0,0.0,0.0,0.0,0.0,0.0,0.0,0.0,0.0,0.0,0.0,0.0,0.0,0.0,0.0,0.0,0.0,0.0,0.0,0.0,0.0,0.0,0.0,0.0,0.0,0.0,0.0,0.0,0.0,0.0,0.0,0.0,0.0,0.0,0.0,0.0,0.0,0.0,0.0,0.0,0.0,0.0,0.0,0.0,0.0,0.0,0.0,0.0,0.0,0.0,0.0,0.0,0.0,0.0,0.0,0.0,0.0,0.0,0.0,0.0,0.0,0.0,0.0,0.0,0.0,0.0,0.0,0.0,0.0,0.0,0.0,0.0,0.0,0.0,0.0,0.0,0.0,0.0,0.0,0.0,0.0,0.0,0.0,0.0,0.0,0.0,0.0,0.0,0.0,0.0,0.0,0.0,0.0,0.0,0.0,0.0,0.0,0.0,0.0,0.0,0.0,0.0,0.0,0.0,0.0,0.0,0.0,0.0,0.0,0.0,0.0,0.0,0.0,0.0,0.0,0.0,0.0,0.0,0.0,0.0,0.0,0.0,0.0,0.0,0.0,0.0,0.0,0.0,0.0,0.0,0.0,0.0,0.0,0.0,0.0,0.0,0.0,0.0,0.0,0.0,0.0,0.0,0.0,0.0,0.0,0.0,0.0,0.0,0.0,0.0,0.0,0.0,0.0,0.0,0.0,0.0,0.0,0.0,0.0,0.0,0.0,0.0,0.0,0.0,0.0,0.0,0.0,0.0,0.0,0.0,0.0,0.0,0.0,0.0,0.0,0.0,0.0,0.0,0.0,0.0,0.0,0.0,0.0,0.0,0.0,0.0,0.0,0.0,0.0,0.0,0.0,0.0,0.0,0.0,0.0,0.0,0.0,0.0,0.0,0.0,0.0,0.0,0.0,0.0,0.0,0.0,0.0,0.0,0.0,0.0,0.0,0.0,0.0,0.0,0.0,0.0,0.0,0.0,0.0,0.0,0.0,0.0,0.0,0.0,0.0,0.0,0.0,0.0,0.0,0.0,0.0,0.0,0.0,0.0,0.0,0.0,0.0,0.0,0.0,0.0,0.0,0.0,0.0,0.0,0.0,0.0,0.0,0.0,0.0,0.0,0.0,0.0,0.0,0.0,0.0,0.0,0.0,0.0,0.0,0.0,0.0,0.0,0.0,0.0,0.0,0.0,0.0,0.0,0.0,0.0,0.0,0.0,0.0,0.0,0.0,0.0,0.0,0.0,0.0,0.0,0.0,0.0,0.0,0.0,0.0,0.0,0.0,0.0,0.0,0.0,0.0,0.0,0.0,0.0,0.0,0.0,0.0,0.0,0.0,0.0,0.0,0.0,0.0,0.0,0.0,0.0,0.0,0.0,0.0,0.0,0.0,0.0,0.0,0.0,0.0,0.0,0.0,0.0,0.0,0.0,0.0,0.0,0.0,0.0,0.0,0.0,0.0,0.0,0.0,0.0,0.0,0.0,0.0,0.0,0.0,0.0,0.0,0.0,0.0,0.0,0.0,0.0,0.0,0.0,0.0,0.0,0.0,0.0,0.0,0.0,0.0,0.0,0.0,0.0,0.0,0.0,0.0,0.0,0.0,0.0,0.0,0.0,0.0,0.0,0.0,0.0,0.0,0.0,0.0,0.0,0.0,0.0,0.0,0.0,0.0,0.0,0.0,0.0,0.0,0.0,0.0,0.0,0.0,0.0,0.0,0.0,0.0,0.0,0.0,0.0,0.0,0.0,0.0,0.0,0.0,0.0,0.0,0.0,0.0,0.0,0.0,0.0,0.0,0.0,0.0,0.0,0.0,0.0,0.0,0.0,0.0,0.0,0.0,0.0,0.0,0.0,0.0,0.0,0.0,0.0,0.0,0.0,0.0,0.0,0.0,0.0,0.0,0.0,0.0,0.0,0.0,0.0,0.0,0.0,0.0,0.0,0.0,0.0,0.0,0.0,0.0,0.0,0.0,0.0,0.0,0.0,0.0,0.0,0.0,0.0,0.0,0.0,0.0,0.0,0.0,0.0,0.0,0.0,0.0,0.0,0.0,0.0,0.0,0.0,0.0,0.0,0.0,0.0,0.0,0.0,0.0,0.0,0.0,0.0,0.0,0.0,0.0,0.0,0.0,0.0,0.0,0.0,0.0,0.0,0.0,0.0,0.0,0.0,0.0,0.0,0.0,0.0,0.0,0.0,0.0,0.0,0.0,0.0,0.0,0.0,0.0,0.0,0.0,0.0,0.0,0.0,-2.2937,0.0,0.0,0.0,0.0,0.0,0.0,0.0,0.0,0.0,0.0,0.0,0.0,0.0,0.0,0.0,0.0,0.0,0.0,0.0,0.0,0.0,0.0,0.0,0.0,-0.7433,-0.7623,-0.7951,-0.8117,-0.8353,-0.8665,0.0,0.0,0.0,0.0,0.0,-0.878,-0.9256,-0.9783,-1.0362,-1.0968,-1.1663,-1.2405,-1.2081,-1.1654,-1.1116,0.0,0.0,0.0,0.0,0.0,0.0,0.0,0.0,0.0,0.0,0.0,0.0,0.0,0.0,0.0,0.0,0.0,0.0,0.0,0.0,0.0,0.0,0.0,0.0,0.0,0.0,0.0,0.0,0.0,0.0,0.0,0.0,0.0,0.0,0.0,0.0,0.0,0.0,0.0,0.0,0.0,0.0,0.0,0.0,0.0,0.0,0.0,0.0,0.0,0.0,0.0,0.0,0.0,0.0,0.0,0.0,0.0,0.0,0.0,0.0,0.0,0.0,0.0,0.0,0.0,0.0,0.0,0.0,0.0,0.0,0.0,-2.5587,0.0,0.0,0.0,0.0,0.0,0.0,0.0,0.0,0.0,0.0,0.0,0.0,0.0,0.0,0.0,0.0,0.0,0.0,0.0,0.0,0.0,-0.7109,-0.7681,-0.7834,-0.8179,-0.8862,-0.9032,-0.9194,-0.9436,0.0,0.0,0.0,0.0,-0.9453,-0.9453,-0.9695,-1.0467,-1.1771,-1.2466,-1.3726,-1.5455,-1.5616,-1.5228,0.0,-1.3624,0.0,0.0,0.0,0.0,0.0,0.0,0.0,0.0,0.0,0.0,0.0,0.0,0.0,0.0,0.0,0.0,0.0,0.0,0.0,0.0,0.0,0.0,0.0,0.0,0.0,0.0,0.0,0.0,0.0,0.0,0.0,0.0,0.0,0.0,0.0,0.0,0.0,0.0,0.0,0.0,0.0,0.0,0.0,0.0,0.0,0.0,0.0,0.0,0.0,0.0,0.0,0.0,0.0,0.0,0.0,0.0,0.0,0.0,0.0,0.0,0.0,0.0,0.0,-3.045,-3.0498,-3.0404,-3.1164,-3.1685,-3.1978,-3.0367,-2.993,-3.0164,-2.7589,0.0,0.0,0.0,0.0,0.0,0.0,0.0,0.0,0.0,0.0,0.0,0.0,0.0,0.0,0.0,0.0,0.0,0.0,0.0,-0.7148,-0.7809,-0.7894,-0.842,-0.9714,-0.9385,-0.9595,-1.0753,-0.9869,0.0,0.0,-1.0091,-1.0091,-1.0091,-1.1273,-1.2199,-1.2795,-1.4994,-1.6747,-1.804,0.0,0.0,0.0,-1.6018,-1.4552,0.0,0.0,0.0,0.0,0.0,0.0,0.0,0.0,0.0,0.0,0.0,0.0,0.0,0.0,0.0,0.0,0.0,0.0,0.0,0.0,0.0,0.0,0.0,0.0,0.0,0.0,0.0,0.0,0.0,0.0,0.0,0.0,0.0,0.0,0.0,0.0,0.0,0.0,0.0,0.0,0.0,0.0,-1.7746,-1.8655,0.0,0.0,0.0,0.0,0.0,0.0,0.0,0.0,0.0,0.0,0.0,0.0,0.0,-2.9425,-3.023,-3.2671,-3.3964,-3.4088,-3.6229,-3.6924,-3.6384,-3.7062,-3.7417,-3.7462,-3.7217,0.0,-3.1694,-3.0109,0.0,0.0,0.0,0.0,0.0,0.0,0.0,0.0,0.0,0.0,0.0,0.0,0.0,0.0,0.0,0.0,0.0,0.0,0.0,0.0,0.0,-0.9371,-1.0264,-1.1522,-1.1872,-1.1979,0.0,0.0,0.0,-1.0728,-1.0703,-1.0858,-1.1209,-1.2198,-1.3643,-1.5597,-1.7547,-1.8876,0.0,0.0,0.0,0.0,-1.9184,-1.7712,0.0,0.0,0.0,0.0,0.0,0.0,0.0,0.0,0.0,0.0,0.0,0.0,0.0,0.0,0.0,0.0,0.0,0.0,0.0,0.0,0.0,0.0,0.0,0.0,0.0,0.0,0.0,0.0,0.0,0.0,0.0,0.0,0.0,0.0,0.0,0.0,0.0,0.0,0.0,0.0,0.0,-1.7746,-2.0485,-2.0426,-2.1088,-2.1134,0.0,0.0,0.0,0.0,0.0,0.0,0.0,0.0,0.0,-3.0166,-3.1998,-3.3475,-3.4514,-3.6106,-3.6894,-3.6878,-3.7971,-3.8354,-3.8077,-3.8369,-3.8508,-3.8508,-3.8508,-3.7434,-3.554,-3.3681,-3.2364,-3.1377,0.0,0.0,0.0,0.0,-3.0553,-3.076,0.0,0.0,0.0,0.0,0.0,0.0,0.0,0.0,0.0,0.0,0.0,0.0,-0.9786,-1.0821,-1.1948,-1.3293,0.0,0.0,0.0,0.0,0.0,-1.1617,-1.142,-1.1619,-1.2237,-1.3516,-1.5386,-1.7829,-1.9612,0.0,0.0,0.0,0.0,0.0,0.0,0.0,0.0,0.0,0.0,0.0,0.0,0.0,0.0,0.0,0.0,0.0,0.0,0.0,0.0,0.0,0.0,0.0,0.0,0.0,0.0,0.0,0.0,0.0,0.0,0.0,0.0,0.0,0.0,0.0,0.0,0.0,0.0,0.0,0.0,0.0,0.0,0.0,0.0,0.0,0.0,0.0,0.0,-2.0501,-2.2809,-2.2151,-2.3871,-2.4456,0.0,0.0,0.0,0.0,0.0,0.0,-2.9843,-3.1243,-3.2582,-3.3921,-3.5614,-3.7076,-3.8262,-3.8954,-3.9385,-3.9554,-3.9554,-3.9554,-3.9554,-3.9554,-3.9554,-3.9554,-3.9554,-3.9554,-3.9357,-3.6814,-3.5234,-3.4313,-3.3247,-3.263,-3.2534,-3.3759,-3.4051,-3.4173,0.0,0.0,0.0,0.0,0.0,0.0,0.0,0.0,0.0,0.0,0.0,-0.9202,0.0,0.0,0.0,0.0,0.0,0.0,0.0,0.0,0.0,-1.2897,-1.2279,-1.2265,-1.2939,-1.5848,0.0,0.0,0.0,0.0,0.0,0.0,0.0,0.0,0.0,0.0,0.0,0.0,0.0,0.0,0.0,0.0,0.0,0.0,0.0,0.0,0.0,0.0,0.0,0.0,0.0,0.0,0.0,0.0,0.0,0.0,0.0,0.0,0.0,0.0,0.0,0.0,0.0,0.0,0.0,0.0,0.0,0.0,0.0,0.0,0.0,0.0,0.0,0.0,0.0,0.0,0.0,0.0,0.0,-2.4241,-2.7634,0.0,0.0,0.0,0.0,-2.9104,-3.0351,-3.2009,-3.4089,-3.5445,-3.6799,-3.8154,-3.8923,-3.9628,-4.0336,-4.1093,-4.1755,-4.2402,-4.2402,-4.2402,-4.2402,-4.2402,-4.2402,-4.2402,-4.2402,-4.2402,-4.214,-3.8772,-3.7701,-3.8141,-3.7469,-3.7721,-3.8519,-3.8231,-3.8743,-3.956,0.0,0.0,0.0,-0.6816,-0.6874,-0.6908,-0.6908,-0.7197,-0.7479,-0.7679,-0.9202,0.0,0.0,0.0,0.0,0.0,0.0,0.0,0.0,0.0,-1.4263,-1.3982,-1.3501,-1.4078,-1.5918,-1.7796,-1.9473,0.0,0.0,0.0,0.0,0.0,0.0,0.0,0.0,0.0,0.0,0.0,0.0,0.0,0.0,0.0,0.0,0.0,0.0,0.0,0.0,0.0,0.0,0.0,0.0,0.0,0.0,0.0,0.0,0.0,0.0,0.0,0.0,0.0,0.0,0.0,0.0,0.0,0.0,0.0,0.0,0.0,0.0,0.0,0.0,0.0,0.0,0.0,0.0,0.0,0.0,0.0,0.0,-2.8187,-3.0274,0.0,-2.9166,-3.0197,-3.1443,-3.261,-3.3906,-3.5368,-3.6984,-3.8354,-3.9308,-3.9767,-4.0909,-4.1632,-4.1863,-4.2125,-4.2371,-4.2602,-4.2602,-4.2602,-4.2602,-4.2602,-4.2602,-4.2602,-4.2602,-4.2602,-4.2525,-4.1294,-4.0662,-4.0391,-3.9467,-3.9314,-3.9593,-3.9224,-3.9482,-3.9976,-0.6547,-0.6642,0.0,-0.6816,-0.6874,-0.6908,-0.6908,-0.7358,-0.7848,-0.825,-1.0155,-1.184,0.0,0.0,0.0,0.0,0.0,0.0,0.0,0.0,-1.5493,-1.5258,-1.5179,-1.6081,-1.8051,-1.9586,0.0,0.0,0.0,0.0,0.0,0.0,0.0,0.0,0.0,0.0,0.0,0.0,0.0,0.0,0.0,0.0,-1.7866,0.0,0.0,0.0,0.0,0.0,0.0,0.0,0.0,0.0,0.0,0.0,0.0,0.0,0.0,0.0,0.0,0.0,0.0,0.0,0.0,0.0,0.0,0.0,0.0,0.0,0.0,0.0,0.0,0.0,0.0,0.0,0.0,0.0,0.0,0.0,-3.0505,-3.072,-3.2736,-3.3506,-3.1936,-3.3413,-3.4829,-3.5768,-3.7092,-3.8246,-3.9139,-4.0459,-4.1197,-4.1197,-4.234,-4.294,-4.294,-4.3156,-4.3279,-4.3279,-4.3279,-4.3279,-4.3279,-4.3279,-4.3279,-4.3279,-4.3279,-4.3279,-4.3279,-4.3279,-4.3002,-4.2499,-4.1322,-4.095,-4.1057,-4.0935,-4.1134,-4.139,-0.6308,-0.6525,-0.6689,-0.6698,-0.6816,-0.6908,-0.6908,-0.7371,-0.8158,-0.9354,-1.0991,0.0,0.0,0.0,0.0,0.0,0.0,0.0,0.0,-1.6732,-1.6263,-1.6747,-1.7351,-1.8149,-1.9176,0.0,0.0,0.0,0.0,0.0,0.0,0.0,0.0,0.0,0.0,0.0,0.0,0.0,0.0,0.0,0.0,0.0,-2.0569,0.0,0.0,0.0,0.0,0.0,0.0,0.0,0.0,0.0,0.0,0.0,0.0,0.0,0.0,0.0,0.0,0.0,0.0,0.0,0.0,0.0,0.0,0.0,0.0,0.0,0.0,0.0,0.0,0.0,0.0,0.0,0.0,0.0,-2.755,-3.0412,-3.2259,-3.1643,-3.5106,-3.6769,-3.4813,-3.7015,-3.8569,-3.8569,-3.9797,-4.0566,-4.0566,-4.1894,-4.2633,-4.2633,-4.3279,-4.367,-4.367,-4.4348,-4.4671,-4.4671,-4.4671,-4.4671,-4.4671,-4.4671,-4.4671,-4.4671,-4.4671,-4.4671,-4.4641,-4.4641,-4.4641,-4.4486,-4.3156,-4.2819,-4.318,-4.3551,-4.3915,-4.4159,-0.6521,-0.6564,-0.6616,-0.6816,-0.6883,-0.6908,-0.6908,-0.7724,-0.8628,-0.9406,-1.1724,0.0,0.0,0.0,0.0,0.0,0.0,0.0,-1.7611,0.0,-1.7254,-1.7979,-1.8862,0.0,0.0,0.0,0.0,0.0,0.0,0.0,0.0,0.0,0.0,0.0,0.0,0.0,0.0,0.0,0.0,0.0,0.0,0.0,-2.1736,0.0,0.0,0.0,0.0,0.0,0.0,0.0,0.0,0.0,0.0,0.0,0.0,0.0,0.0,0.0,0.0,0.0,0.0,0.0,0.0,0.0,0.0,0.0,0.0,0.0,0.0,0.0,0.0,0.0,0.0,0.0,0.0,-3.1028,-3.1028,-3.3106,-3.4922,-3.5722,-3.7246,-3.8015,-3.7446,-3.897,-3.9936,-3.9936,-4.1247,-4.2032,-4.2032,-4.2848,-4.3347,-4.3347,-4.4433,-4.5033,-4.5033,-4.5711,-4.6034,-4.6034,-4.6034,-4.6034,-4.6034,-4.6034,-4.6034,-4.6034,-4.6034,-4.5757,-4.5311,-4.5311,-4.5018,-4.4533,-4.367,-4.3551,-4.3836,-4.3443,-4.3674,-4.4273,-0.6526,-0.6547,-0.6582,-0.6858,-0.6908,-0.6908,-0.6908,-0.7867,-0.8891,-0.9723,-1.2141,0.0,0.0,0.0,0.0,0.0,0.0,0.0,-1.7237,-1.7603,-1.8163,0.0,0.0,0.0,0.0,0.0,0.0,0.0,0.0,0.0,0.0,0.0,0.0,0.0,0.0,0.0,0.0,0.0,0.0,0.0,0.0,0.0,-2.4045,-2.3489,-2.2504,-2.1257,-2.0268,-1.973,-1.9314,-1.8038,0.0,0.0,0.0,0.0,0.0,0.0,0.0,0.0,0.0,0.0,0.0,0.0,0.0,0.0,0.0,0.0,0.0,0.0,0.0,0.0,0.0,0.0,0.0,0.0,-3.1597,-3.3875,-3.446,-3.5568,-3.6722,-3.78,-3.8523,-3.9046,-3.929,-4.0305,-4.1093,-4.137,-4.2402,-4.3017,-4.3017,-4.391,-4.4456,-4.4456,-4.5449,-4.6018,-4.6018,-4.6403,-4.6603,-4.6603,-4.6603,-4.6603,-4.6603,-4.6603,-4.6603,-4.6603,-4.6603,-4.6372,-4.6018,-4.6018,-4.5772,0.0,0.0,0.0,0.0,0.0,-4.4193,-4.4532,-0.6434,-0.6507,-0.6582,-0.6858,-0.6908,-0.6908,-0.6908,-0.7867,-0.9009,-1.0156,0.0,0.0,0.0,0.0,0.0,0.0,0.0,0.0,0.0,0.0,0.0,-1.9907,0.0,0.0,0.0,0.0,0.0,0.0,0.0,0.0,0.0,0.0,0.0,0.0,0.0,0.0,0.0,0.0,0.0,0.0,0.0,0.0,-2.66,-2.5401,-2.4771,-2.4364,-2.3009,-2.2197,-2.1458,-1.9453,0.0,0.0,0.0,0.0,0.0,0.0,0.0,0.0,0.0,0.0,0.0,0.0,0.0,0.0,0.0,0.0,0.0,0.0,0.0,0.0,0.0,0.0,0.0,0.0,-3.4352,-3.6184,-3.7538,-3.7738,-3.7954,-3.8554,-3.9293,-3.9951,-4.0551,-4.1355,-4.2063,-4.2679,-4.3387,-4.384,-4.384,0.0,0.0,0.0,0.0,-4.6711,-4.6711,-4.6788,-4.6819,-4.6819,-4.6819,-4.6819,-4.6819,-4.6819,-4.6819,-4.6819,-4.6819,-4.6788,-4.6711,-4.6711,-4.6665,-4.6465,-4.5264,-4.4709,-4.4723,-4.5136,-4.5112,-4.4934,-0.6434,-0.6507,-0.6582,-0.6858,-0.6908,-0.6908,-0.6908,-0.7867,-0.9009,-1.0156,-1.1932,0.0,0.0,0.0,0.0,0.0,0.0,0.0,0.0,0.0,0.0,0.0,0.0,0.0,0.0,0.0,0.0,0.0,0.0,0.0,0.0,0.0,0.0,0.0,0.0,0.0,0.0,0.0,0.0,0.0,0.0,0.0,-2.6963,-2.6507,-2.6191,-2.5795,-2.441,-2.4179,-2.4302,-2.2825,-2.1963,-2.1455,-2.1193,0.0,0.0,0.0,0.0,0.0,0.0,0.0,0.0,0.0,0.0,0.0,0.0,0.0,0.0,0.0,0.0,0.0,0.0,0.0,0.0,-3.3812,-3.5784,-3.7584,-3.8939,-3.9123,-3.9136,-3.9308,-4.0432,-4.1247,-4.1386,-4.2479,-4.3285,-4.3408,-4.4548,-4.5187,-4.5187,-4.5957,-4.6403,-4.6403,-4.7065,-4.7419,-4.7419,-4.7942,-4.8219,-4.8219,0.0,0.0,-4.8219,-4.8219,-4.8219,-4.8219,-4.8219,-4.7912,-4.7419,-4.7419,-4.7096,-4.6551,-4.6098,-4.5543,-4.5136,-4.5541,-4.5794,-4.5952,-0.6434,-0.6507,-0.6582,-0.6858,-0.6908,-0.6908,-0.6908,-0.7606,-0.8565,-0.9749,-1.1396,0.0,0.0,0.0,0.0,0.0,0.0,0.0,0.0,0.0,0.0,0.0,0.0,0.0,0.0,0.0,0.0,0.0,0.0,0.0,0.0,0.0,0.0,0.0,0.0,0.0,0.0,0.0,0.0,0.0,0.0,0.0,-2.7995,-2.744,-2.7087,-2.6795,-2.6103,-2.5626,-2.5142,-2.4148,-2.3348,-2.2732,-2.2413,-2.1362,-2.0114,0.0,0.0,0.0,0.0,0.0,0.0,0.0,0.0,0.0,0.0,0.0,0.0,0.0,0.0,-2.9427,-3.1136,0.0,-3.4506,-3.6215,-3.7631,-3.8739,-3.9431,-3.9782,-4.012,-4.0524,-4.117,-4.1863,-4.2525,-4.3223,-4.3886,-4.4564,-4.5203,-4.5741,-4.608,-4.6742,-4.7096,-4.7096,-4.7758,-4.8112,-4.8112,-4.845,-4.862,-4.862,-4.862,-4.862,-4.862,-4.862,-4.862,-4.862,-4.862,-4.8419,-4.8112,-4.8112,-4.7711,-4.7065,-4.6964,-4.6284,-4.5423,-4.565,-4.5603,-4.5437,-0.6434,-0.6507,-0.6582,-0.6858,-0.6908,-0.6908,-0.6908,-0.7358,-0.8132,-0.9341,-1.0769,-1.1929,-1.2651,-1.3539,-1.401,0.0,0.0,0.0,0.0,0.0,0.0,0.0,0.0,0.0,0.0,0.0,0.0,0.0,0.0,0.0,0.0,0.0,0.0,0.0,0.0,0.0,0.0,0.0,0.0,0.0,0.0,0.0,-2.8923,-2.8186,-2.7792,-2.7565,-2.7288,-2.638,-2.5189,-2.4533,-2.3856,-2.3225,-2.2809,-2.2594,-2.227,-2.1196,-2.0613,0.0,0.0,0.0,0.0,0.0,0.0,0.0,0.0,0.0,-2.7403,-3.0058,-3.1201,-3.2475,-3.466,-3.5645,-3.6645,-3.8415,-3.917,-3.9536,-3.9659,-4.0151,-4.0751,-4.1509,-4.1709,-4.2263,-4.3485,-4.3732,-4.4317,-4.5495,-4.5711,-4.608,-4.6757,-4.7434,-4.7804,-4.7804,-4.8327,-4.862,-4.862,-4.862,-4.862,-4.862,-4.862,-4.862,-4.862,-4.862,-4.862,-4.862,-4.862,-4.862,-4.862,-4.862,-4.8296,-4.7804,-4.7804,-4.705,-4.5957,-4.5834,-4.5511,-4.5132,-0.6434,-0.6507,-0.6582,-0.6858,-0.6908,-0.6908,-0.6908,-0.7358,-0.8132,-0.9341,-1.0077,-1.0899,-1.1981,-1.2216,-1.2701,0.0,0.0,0.0,0.0,0.0,0.0,0.0,0.0,0.0,0.0,0.0,0.0,0.0,0.0,0.0,0.0,0.0,0.0,0.0,0.0,0.0,0.0,0.0,0.0,0.0,0.0,0.0,-2.895,-2.8505,-2.8301,-2.8134,-2.6934,-2.5995,-2.5189,-2.4533,-2.3856,-2.3394,-2.3917,-2.3671,-2.3163,-2.3009,0.0,-2.0643,-2.2194,-2.3717,0.0,-2.6503,-2.6934,-2.815,0.0,0.0,-3.2213,-3.4352,-3.5814,-3.6799,-3.7107,-3.7707,-3.8446,-3.9228,-3.9428,-3.9705,-4.029,-4.0443,-4.0751,-4.1509,-4.2125,-4.2771,-4.3531,-4.4148,-4.4825,-4.5526,-4.6142,-4.6773,-4.745,-4.8127,-4.8496,-4.8496,-4.8573,-4.862,-4.862,-4.862,-4.862,-4.862,-4.862,-4.862,-4.862,-4.862,-4.862,-4.862,-4.862,-4.862,-4.862,-4.862,-4.8573,-4.8496,-4.8496,-4.8035,-4.7296,-4.6711,-4.667,-4.6788,-0.6434,-0.6507,-0.6582,-0.6858,-0.6908,-0.6908,-0.6908,-0.7087,-0.7655,-0.8822,-0.9475,-1.0129,-1.0925,-1.1016,-1.1486,-1.2648,0.0,0.0,0.0,0.0,0.0,0.0,0.0,0.0,0.0,0.0,0.0,0.0,0.0,0.0,0.0,0.0,0.0,0.0,0.0,0.0,0.0,0.0,0.0,0.0,0.0,0.0,-2.9331,-2.8656,-2.7919,-2.7149,-2.6565,-2.5641,0.0,0.0,-2.3271,-2.2763,-2.304,-2.2932,-2.2736,-2.2736,-2.2948,0.0,-2.6672,0.0,0.0,0.0,-3.0654,-3.1948,-3.349,-3.4029,-3.466,-3.6307,-3.7415,-3.82,-3.86,-3.8908,-3.929,0.0,-4.0462,-4.0678,-4.0505,-4.0858,-4.1263,-4.1555,-4.1848,-4.2432,-4.3501,-4.3855,-4.4641,-4.6065,-4.6434,-4.7065,-4.8142,-4.8466,-4.862,-4.862,-4.862,-4.862,-4.862,-4.862,-4.862,-4.862,-4.862,-4.862,-4.862,-4.862,-4.862,-4.862,-4.862,-4.862,-4.862,-4.862,-4.862,-4.862,-4.862,-4.8435,-4.8112,-4.7434,-4.7046,-4.6794,-0.6393,-0.6472,-0.6573,-0.6807,-0.6883,-0.6908,-0.6908,-0.6908,-0.731,-0.8448,-0.8978,-0.9514,-1.0221,-1.0299,-1.0769,-1.1889,-1.3108,-1.4689,0.0,0.0,0.0,0.0,0.0,0.0,0.0,0.0,0.0,0.0,0.0,0.0,0.0,0.0,0.0,0.0,0.0,0.0,0.0,0.0,0.0,0.0,0.0,0.0,-2.8914,-2.8131,-2.6995,-2.581,-2.5758,-2.4881,0.0,0.0,-2.2443,-2.2028,-2.2028,-2.2151,-2.2394,-2.2963,-2.4702,-2.688,-2.8987,0.0,0.0,-3.1782,-3.3396,-3.4736,-3.4568,-3.5168,-3.6138,-3.7507,-3.8015,-3.8431,-3.9108,-3.94,0.0,-4.0382,-4.1124,-4.1417,-4.0858,-4.1278,-4.1524,-4.1324,-4.1309,-4.1832,-4.3171,-4.3501,-4.444,-4.6449,-4.6603,-4.7188,-4.8543,-4.862,-4.862,-4.862,-4.862,-4.862,-4.862,-4.862,-4.862,-4.862,-4.862,-4.862,-4.862,-4.862,-4.862,-4.862,-4.862,-4.862,-4.862,-4.862,-4.862,-4.862,-4.862,-4.862,-4.8558,-4.8065,-4.7573,-4.7127,-0.6272,-0.6402,-0.6538,-0.6685,-0.6816,-0.6908,-0.6908,-0.6908,-0.731,-0.8448,-0.8618,-0.9061,-1.0182,-1.0299,-1.0769,-1.1889,-1.3108,-1.455,-1.6297,-1.7996,0.0,0.0,0.0,0.0,0.0,0.0,0.0,0.0,0.0,0.0,0.0,0.0,0.0,0.0,0.0,0.0,0.0,0.0,0.0,0.0,0.0,0.0,-2.7144,-2.6648,-2.558,-2.4364,-2.4364,0.0,0.0,0.0,-2.135,-2.1319,-2.1319,-2.1781,0.0,-2.4656,-2.7126,0.0,0.0,0.0,-3.249,-3.3167,-3.4398,-3.5784,-3.7076,-3.6907,-3.6846,-3.82,-3.7969,-3.7738,-3.8415,-3.9077,-3.9705,-4.0382,-4.1124,-4.1586,-4.1571,-4.1586,-4.134,-4.0612,-4.052,-4.1074,0.0,-4.3202,-4.444,-4.6449,-4.6603,-4.7188,-4.8543,-4.862,-4.862,-4.862,-4.862,-4.862,-4.862,-4.862,-4.862,-4.862,-4.862,-4.862,-4.862,-4.862,-4.862,-4.862,-4.862,-4.862,-4.862,-4.862,-4.862,-4.862,-4.862,-4.862,-4.862,-4.8589,-4.8573,-4.8466,-0.6263,-0.6402,-0.6538,-0.6685,-0.6816,-0.6908,-0.6908,-0.6908,-0.731,-0.8448,-0.9258,0.0,0.0,0.0,0.0,0.0,-1.2535,-1.3948,-1.5683,-1.7042,0.0,0.0,0.0,0.0,0.0,0.0,0.0,0.0,0.0,0.0,0.0,0.0,0.0,0.0,0.0,0.0,0.0,0.0,0.0,0.0,0.0,0.0,-2.7792,-2.6252,-2.4825,-2.3579,0.0,0.0,0.0,0.0,0.0,0.0,-2.0643,0.0,0.0,-2.4456,0.0,-2.9027,0.0,0.0,-3.4073,-3.5168,-3.6138,-3.6953,-3.74,-3.7677,-3.7831,-3.7846,-3.8015,-3.8246,-3.8477,-3.8692,-3.9077,-3.9721,-4.0847,-4.1601,-4.1601,-4.2355,-4.2494,-4.137,-4.1632,0.0,0.0,0.0,0.0,-4.6419,-4.6603,-4.7188,-4.8543,-4.862,-4.862,-4.862,-4.862,-4.862,-4.862,-4.862,-4.862,-4.862,-4.862,-4.862,-4.862,-4.862,-4.862,-4.862,-4.862,-4.862,-4.862,-4.862,-4.862,-4.862,-4.862,-4.862,-4.862,-4.862,-4.862,-4.8573,-0.6168,-0.6322,-0.6472,-0.6608,-0.6732,0.0,0.0,0.0,0.0,0.0,0.0,0.0,0.0,0.0,0.0,0.0,0.0,-1.3477,-1.4812,0.0,0.0,0.0,0.0,0.0,0.0,0.0,0.0,0.0,0.0,0.0,0.0,0.0,0.0,0.0,0.0,0.0,0.0,0.0,0.0,0.0,0.0,0.0,-2.6365,-2.4704,-2.3467,0.0,0.0,0.0,0.0,0.0,0.0,0.0,0.0,0.0,0.0,-2.578,-2.8042,-3.0366,0.0,-3.4181,-3.5244,-3.6815,-3.7353,-3.7569,-3.78,-3.7831,-3.7661,-3.723,-3.7092,-3.7076,-3.7076,-3.7076,-3.7523,-3.8923,-4.0309,-4.1386,-4.1894,-4.2894,-4.3208,-4.2094,-4.2556,-4.3048,0.0,0.0,0.0,-4.6449,-4.6819,-4.745,-4.8558,-4.862,-4.862,-4.862,-4.862,-4.862,-4.862,-4.862,-4.862,-4.862,-4.862,-4.862,-4.862,-4.862,-4.862,-4.862,-4.862,-4.862,-4.862,-4.862,-4.862,-4.862,-4.862,-4.862,-4.862,-4.862,-4.862,-4.862,-0.5998,-0.6159,-0.6343,0.0,0.0,0.0,0.0,0.0,0.0,0.0,0.0,0.0,0.0,0.0,0.0,0.0,0.0,0.0,0.0,0.0,0.0,0.0,0.0,0.0,-1.9643,-1.976,0.0,0.0,0.0,0.0,0.0,0.0,0.0,0.0,0.0,0.0,0.0,0.0,0.0,0.0,0.0,0.0,-2.3069,-2.2224,0.0,0.0,0.0,0.0,0.0,0.0,0.0,0.0,0.0,0.0,0.0,0.0,0.0,-3.2936,-3.4937,-3.5598,-3.6107,-3.8077,-3.8061,-3.7723,-3.8354,-3.7461,-3.6461,-3.6353,-3.5291,-3.4366,0.0,0.0,-3.5306,-3.7923,-3.9551,-4.0981,-4.2417,-4.3217,-4.3433,0.0,0.0,0.0,0.0,0.0,0.0,-4.6603,0.0,-4.7896,-4.8573,-4.862,-4.862,-4.862,-4.862,-4.862,-4.862,-4.862,-4.862,-4.862,-4.862,-4.862,-4.862,-4.862,-4.862,-4.862,-4.862,-4.862,-4.862,-4.862,-4.862,-4.862,-4.862,-4.862,-4.862,-4.862,-4.862,-4.862,0.0,0.0,0.0,0.0,0.0,0.0,0.0,0.0,0.0,0.0,0.0,0.0,0.0,0.0,0.0,0.0,0.0,0.0,0.0,0.0,0.0,0.0,0.0,0.0,0.0,0.0,0.0,0.0,0.0,0.0,0.0,0.0,0.0,0.0,0.0,0.0,0.0,0.0,0.0,0.0,0.0,0.0,-2.2617,0.0,0.0,0.0,0.0,0.0,0.0,0.0,0.0,0.0,0.0,0.0,-2.9258,0.0,0.0,-3.4197,-3.5229,-3.6584,-3.7984,-3.9,-3.8754,-3.8292,-3.8477,-3.7461,-3.6061,-3.4506,-3.3521,-3.2628,-3.1643,0.0,0.0,-3.5968,-3.8662,0.0,-4.2417,-4.4033,0.0,0.0,0.0,-4.5695,-4.5357,-4.6388,0.0,0.0,-4.7511,-4.7896,-4.8573,-4.862,-4.862,-4.862,-4.862,-4.862,-4.862,-4.862,-4.862,-4.862,-4.862,-4.862,-4.862,-4.862,-4.862,-4.862,-4.862,-4.862,-4.862,-4.862,-4.862,-4.862,-4.862,-4.862,-4.862,-4.862,-4.862,-4.862,0.0,0.0,0.0,0.0,0.0,0.0,0.0,0.0,0.0,0.0,0.0,0.0,0.0,0.0,0.0,0.0,0.0,0.0,0.0,0.0,0.0,0.0,0.0,0.0,0.0,0.0,0.0,0.0,0.0,0.0,0.0,0.0,0.0,0.0,0.0,0.0,0.0,0.0,0.0,0.0,0.0,0.0,0.0,0.0,0.0,0.0,0.0,0.0,0.0,0.0,0.0,-2.7372,-2.8288,-2.9766,-3.1305,-3.1997,0.0,-3.5598,-3.6538,-3.7861,-3.9046,-3.9431,-3.9016,-3.82,-3.7015,-3.5907,-3.4383,-3.1751,-3.0905,0.0,0.0,0.0,0.0,0.0,0.0,0.0,-4.1971,-4.4141,-4.5449,0.0,-4.6219,0.0,-4.6511,-4.7419,-4.805,0.0,-4.805,-4.8204,-4.8589,-4.862,-4.862,-4.862,-4.862,-4.862,-4.862,-4.862,-4.862,-4.862,-4.862,-4.862,-4.862,-4.862,-4.862,-4.862,0.0,-4.862,-4.862,-4.862,-4.862,-4.862,-4.862,-4.862,-4.862,-4.862,-4.862,-4.862,0.0,0.0,0.0,0.0,0.0,0.0,0.0,0.0,0.0,0.0,0.0,0.0,0.0,0.0,0.0,0.0,0.0,0.0,0.0,0.0,0.0,0.0,0.0,0.0,0.0,0.0,0.0,0.0,0.0,0.0,0.0,0.0,0.0,0.0,0.0,0.0,0.0,0.0,0.0,0.0,0.0,0.0,0.0,0.0,0.0,0.0,0.0,0.0,0.0,0.0,-2.7596,-2.9273,-3.1182,-3.2721,-3.3937,-3.4597,-3.5737,-3.7015,-3.8185,-3.9062,-3.9598,-3.9505,-3.8939,-3.7692,-3.5106,-3.3706,-3.209,-2.8812,0.0,0.0,-2.6142,0.0,-3.0525,-3.2136,0.0,-3.9831,-4.1509,-4.3956,-4.5618,-4.5711,-4.6911,-4.7742,-4.7742,-4.8266,-4.862,-4.862,-4.862,-4.862,-4.862,-4.862,-4.862,-4.862,-4.862,-4.862,-4.862,-4.862,-4.862,-4.862,-4.862,-4.862,-4.862,-4.862,-4.862,-4.862,-4.862,0.0,-4.862,-4.862,-4.862,-4.862,-4.862,-4.862,-4.862,-4.862,-4.862,-4.862,0.0,0.0,0.0,0.0,0.0,0.0,0.0,0.0,0.0,0.0,-1.0834,-1.0299,0.0,0.0,0.0,0.0,0.0,0.0,0.0,0.0,0.0,0.0,0.0,0.0,0.0,0.0,0.0,0.0,0.0,0.0,0.0,0.0,0.0,0.0,0.0,0.0,0.0,0.0,0.0,0.0,0.0,0.0,0.0,0.0,0.0,0.0,0.0,0.0,0.0,0.0,-2.9212,-3.1967,-3.3503,-3.489,-3.5984,-3.6107,-3.7092,-3.82,-3.8446,-3.9382,-4.0182,-3.9628,-3.8585,-3.7107,-3.4998,-3.2644,0.0,0.0,0.0,-2.4779,-2.3979,-2.6072,0.0,-3.1905,0.0,0.0,0.0,0.0,-4.5788,0.0,0.0,0.0,0.0,0.0,0.0,0.0,0.0,-4.862,-4.862,-4.862,-4.862,-4.862,-4.862,-4.862,-4.862,-4.862,-4.862,-4.862,-4.862,-4.862,-4.862,-4.862,-4.862,-4.862,-4.862,0.0,-4.862,-4.862,-4.862,-4.862,-4.862,-4.862,-4.862,-4.862,-4.862,-4.862,0.0,0.0,0.0,0.0,0.0,0.0,0.0,-1.0443,-1.1603,-1.2779,-1.2453,-1.201,-1.1683,-1.1368,0.0,0.0,0.0,0.0,0.0,0.0,0.0,0.0,0.0,0.0,0.0,0.0,0.0,0.0,0.0,0.0,0.0,0.0,0.0,0.0,0.0,0.0,0.0,0.0,0.0,0.0,0.0,0.0,0.0,0.0,0.0,0.0,0.0,0.0,0.0,0.0,-2.7811,-3.0859,-3.4043,-3.5722,-3.6492,-3.6492,-3.7446,-3.8508,-3.8508,-3.9459,-4.0243,-3.9213,-3.8246,-3.6507,-3.2705,0.0,0.0,0.0,0.0,-2.2948,-2.1935,0.0,0.0,0.0,0.0,0.0,0.0,0.0,0.0,0.0,0.0,0.0,0.0,0.0,0.0,0.0,0.0,-4.862,-4.862,-4.862,-4.862,-4.862,-4.862,-4.862,-4.862,-4.862,-4.862,-4.862,-4.862,-4.862,-4.862,-4.862,-4.862,-4.862,-4.862,0.0,-4.862,-4.862,-4.862,-4.862,-4.862,-4.862,-4.862,-4.862,-4.862,-4.862,0.0,0.0,0.0,0.0,0.0,0.0,0.0,-1.1303,-1.2622,-1.3831,-1.4092,-1.3971,-1.3517,-1.2701,-1.219,0.0,0.0,0.0,0.0,0.0,0.0,0.0,0.0,0.0,0.0,0.0,0.0,0.0,0.0,0.0,0.0,0.0,0.0,0.0,0.0,0.0,0.0,0.0,0.0,0.0,0.0,0.0,0.0,0.0,0.0,0.0,0.0,0.0,0.0,0.0,-2.5626,-2.8258,-3.2428,-3.4706,-3.5861,-3.6014,-3.7015,-3.8138,-3.8431,-3.9351,-3.9982,-3.8816,-3.7892,-3.5907,-3.0628,-2.8633,0.0,0.0,0.0,-2.1596,-2.0672,0.0,0.0,0.0,0.0,0.0,0.0,0.0,0.0,0.0,0.0,0.0,0.0,0.0,0.0,0.0,0.0,0.0,-4.862,-4.862,-4.862,-4.862,-4.862,-4.862,-4.862,-4.862,-4.862,-4.862,-4.862,-4.862,-4.862,-4.862,-4.862,-4.862,-4.862,0.0,0.0,-4.862,-4.862,-4.862,-4.862,-4.862,-4.862,-4.862,-4.862,-4.862,0.0,0.0,0.0,0.0,0.0,0.0,0.0,-1.1423,-1.3229,-1.4393,-1.499,-1.5317,-1.5283,-1.3788,-1.2823,0.0,0.0,0.0,0.0,0.0,0.0,0.0,0.0,0.0,0.0,0.0,0.0,0.0,0.0,0.0,0.0,0.0,0.0,0.0,0.0,0.0,0.0,0.0,0.0,0.0,0.0,0.0,0.0,0.0,0.0,0.0,0.0,0.0,0.0,0.0,0.0,-2.5087,-2.7411,-3.0689,-3.3814,-3.4489,0.0,0.0,-3.8185,-3.9013,-3.9431,-3.8692,-3.7538,-3.5322,-3.0505,0.0,0.0,0.0,-2.0857,-2.0626,-2.1119,0.0,0.0,0.0,0.0,0.0,0.0,0.0,0.0,0.0,0.0,0.0,0.0,0.0,0.0,0.0,0.0,0.0,-4.862,-4.862,-4.862,-4.862,-4.862,-4.862,-4.862,-4.862,-4.862,-4.862,-4.862,-4.862,-4.862,-4.862,-4.862,-4.862,-4.862,0.0,0.0,-4.862,-4.862,-4.862,-4.862,-4.862,-4.862,-4.862,-4.862,-4.862,0.0,0.0,0.0,0.0,0.0,0.0,-1.0173,-1.1523,-1.3158,-1.5382,-1.5584,-1.5649,-1.5996,-1.5113,-1.4197,0.0,0.0,0.0,0.0,0.0,0.0,0.0,0.0,0.0,0.0,0.0,0.0,0.0,0.0,0.0,0.0,0.0,0.0,0.0,0.0,0.0,0.0,0.0,0.0,0.0,0.0,0.0,0.0,0.0,0.0,0.0,0.0,0.0,0.0,0.0,0.0,0.0,-2.4056,-2.6257,0.0,0.0,-3.4198,-3.5691,-3.7415,-3.84,-3.8754,-3.8077,-3.6584,-3.4152,-2.9797,0.0,0.0,-2.1381,-2.0489,-2.0379,-2.0641,-2.1242,-2.2628,0.0,-2.6949,0.0,0.0,0.0,0.0,0.0,0.0,0.0,0.0,0.0,0.0,0.0,0.0,0.0,-4.862,-4.862,-4.862,-4.862,-4.862,-4.862,-4.862,-4.862,-4.862,-4.862,-4.862,-4.862,-4.862,-4.862,-4.862,-4.862,-4.862,0.0,0.0,-4.862,-4.862,-4.862,-4.862,-4.862,-4.862,-4.862,-4.862,-4.862,0.0,0.0,0.0,0.0,0.0,-0.8735,-1.0315,-1.1522,-1.3079,-1.533,-1.5395,-1.5461,-1.6062,-1.5291,-1.455,-1.4079,0.0,0.0,0.0,0.0,0.0,0.0,0.0,0.0,0.0,0.0,0.0,0.0,0.0,0.0,0.0,0.0,0.0,0.0,0.0,0.0,0.0,0.0,0.0,0.0,0.0,0.0,0.0,0.0,0.0,0.0,0.0,0.0,0.0,0.0,0.0,0.0,0.0,0.0,0.0,0.0,-3.2321,-3.4073,-3.6292,-3.7538,-3.8092,-3.7615,-3.5984,-3.3442,0.0,0.0,-2.4364,-2.098,-2.0304,-2.0304,-2.0304,-2.0705,-2.1658,0.0,-2.4896,-2.7172,-3.1751,0.0,0.0,0.0,0.0,0.0,0.0,0.0,0.0,0.0,0.0,0.0,0.0,-4.862,-4.862,-4.862,-4.862,-4.862,-4.862,-4.862,-4.862,-4.862,-4.862,-4.862,-4.862,-4.862,-4.862,-4.862,-4.862,0.0,0.0,-4.862,-4.862,-4.862,-4.862,-4.862,-4.862,-4.862,-4.862,-4.862,0.0,0.0,0.0,0.0,0.0,0.0,-0.9374,-1.1436,-1.3124,-1.3752,-1.4289,-1.4833,-1.5434,-1.3958,-1.3386,-1.448,0.0,0.0,0.0,0.0,0.0,0.0,0.0,0.0,0.0,0.0,-1.5379,-1.579,-1.6797,0.0,0.0,0.0,0.0,0.0,0.0,0.0,0.0,0.0,0.0,0.0,0.0,0.0,0.0,0.0,0.0,0.0,0.0,0.0,0.0,0.0,0.0,0.0,0.0,0.0,0.0,0.0,-2.9858,-3.204,-3.4797,-3.6492,-3.7507,-3.7507,-3.5984,-3.3442,0.0,-2.6788,-2.4364,-2.098,-2.0304,-2.0304,-2.0304,-2.0304,-2.0965,-2.2978,-2.4989,-2.7711,0.0,0.0,0.0,0.0,0.0,0.0,0.0,0.0,0.0,0.0,0.0,0.0,0.0,-4.862,-4.862,-4.862,-4.862,-4.862,-4.862,-4.862,-4.862,-4.862,-4.862,-4.862,-4.862,-4.862,-4.862,0.0,0.0,0.0,0.0,-4.862,-4.862,-4.862,-4.862,-4.862,-4.862,-4.862,-4.862,-4.862,0.0,0.0,0.0,0.0,0.0,0.0,0.0,-1.0052,-1.1201,-1.2954,-1.2977,-1.321,-1.4236,-1.3477,-1.3216,-1.3988,0.0,0.0,0.0,0.0,0.0,0.0,0.0,0.0,0.0,0.0,-1.606,-1.6009,-1.7516,-1.8204,0.0,0.0,0.0,0.0,0.0,0.0,0.0,0.0,0.0,0.0,0.0,0.0,0.0,0.0,0.0,0.0,0.0,0.0,0.0,0.0,0.0,0.0,0.0,0.0,0.0,-2.3517,0.0,0.0,-3.0289,-3.1628,-3.2416,-3.152,-3.0458,-2.8935,-2.6226,-2.4733,-2.324,-2.0795,-2.0304,-2.0304,-2.0304,-2.0304,-2.1411,-2.4877,0.0,0.0,0.0,0.0,0.0,0.0,0.0,0.0,0.0,0.0,0.0,0.0,0.0,0.0,0.0,-4.862,-4.862,-4.862,-4.862,-4.862,-4.862,-4.862,-4.862,-4.862,-4.862,-4.862,-4.862,-4.862,-4.862,0.0,0.0,0.0,0.0,-4.862,-4.862,-4.862,-4.862,-4.862,-4.862,-4.862,-4.862,-4.862,0.0,0.0,0.0,0.0,0.0,0.0,0.0,-0.9338,-1.0311,-1.1736,-1.1787,-1.2139,-1.3333,-1.2533,-1.2429,-1.37,0.0,0.0,0.0,0.0,0.0,0.0,0.0,0.0,-1.4,-1.5471,-1.6281,-1.636,-1.7934,-1.8737,-1.8831,-1.883,-1.8702,0.0,0.0,0.0,0.0,0.0,0.0,0.0,0.0,0.0,-1.9531,0.0,0.0,0.0,0.0,0.0,0.0,0.0,0.0,0.0,0.0,0.0,0.0,0.0,-2.3513,-2.578,0.0,-2.8602,-2.9433,-2.8611,-2.7703,-2.6534,-2.4718,-2.3594,-2.2409,-2.0657,-2.0304,-2.0304,-2.0304,-2.0304,-2.1288,-2.4369,0.0,0.0,0.0,0.0,0.0,0.0,0.0,0.0,0.0,0.0,0.0,0.0,0.0,0.0,0.0,-4.862,-4.862,-4.862,-4.862,-4.862,-4.862,-4.862,-4.862,-4.862,-4.862,-4.862,-4.862,-4.862,-4.862,0.0,0.0,0.0,0.0,-4.862,-4.862,-4.862,-4.862,-4.862,-4.862,-4.862,-4.862,-4.862,0.0,0.0,0.0,0.0,0.0,0.0,0.0,0.0,-1.0183,-1.0234,-1.0769,-1.1541,-1.2601,-1.1265,-1.1213,-1.3461,0.0,0.0,0.0,0.0,0.0,0.0,0.0,0.0,-1.4035,-1.5284,-1.6234,-1.6818,-1.8209,-1.9186,-1.9786,-2.004,-1.9847,-1.9229,-1.8557,0.0,0.0,0.0,0.0,0.0,0.0,-1.9485,0.0,0.0,0.0,0.0,0.0,0.0,0.0,0.0,0.0,0.0,0.0,0.0,0.0,0.0,0.0,0.0,0.0,-2.6903,-2.795,-2.7857,-2.6919,-2.5694,-2.4317,-2.3086,0.0,-2.0566,-2.0304,-2.0366,-2.0568,-2.052,-2.098,-2.2613,0.0,0.0,0.0,0.0,0.0,0.0,0.0,0.0,0.0,0.0,0.0,0.0,0.0,0.0,0.0,-4.862,-4.862,-4.862,-4.862,-4.862,-4.862,-4.862,-4.862,-4.862,-4.862,-4.862,-4.862,-4.862,-4.862,0.0,0.0,0.0,0.0,-4.862,-4.862,-4.862,-4.862,-4.862,-4.862,-4.862,-4.862,-4.862,0.0,0.0,0.0,0.0,0.0,0.0,0.0,0.0,0.0,0.0,-1.0168,-1.0612,-1.0873,-1.0547,-1.0873,0.0,0.0,0.0,0.0,0.0,0.0,0.0,0.0,0.0,-1.439,-1.6326,-1.7225,-1.7032,-1.9497,-2.0655,-2.0572,-2.1377,-2.1418,-2.0744,-2.0068,-1.9408,0.0,0.0,0.0,0.0,-2.0243,-1.9779,0.0,0.0,0.0,0.0,-1.8641,-1.9092,0.0,0.0,0.0,0.0,0.0,0.0,0.0,0.0,-2.0964,-2.1255,-2.1719,0.0,-2.3506,-2.2459,-2.2351,-2.2274,0.0,-2.1381,-2.134,0.0,0.0,0.0,0.0,0.0,0.0,0.0,0.0,0.0,0.0,0.0,0.0,0.0,0.0,0.0,0.0,0.0,0.0,0.0,0.0,0.0,0.0,-4.862,-4.862,-4.862,-4.862,-4.862,-4.862,-4.862,-4.862,-4.862,-4.862,-4.862,-4.862,-4.862,-4.862,0.0,0.0,0.0,-4.862,-4.862,-4.862,-4.862,-4.862,-4.862,-4.862,-4.862,-4.862,-4.862,0.0,0.0,0.0,0.0,0.0,0.0,0.0,0.0,0.0,0.0,0.0,0.0,0.0,0.0,0.0,0.0,0.0,0.0,0.0,0.0,0.0,0.0,0.0,-1.4765,-1.486,-1.6434,-1.7321,-1.7467,-1.9417,-2.0602,-2.102,-2.1277,-2.135,-2.1242,-1.9916,-1.9332,0.0,0.0,0.0,0.0,-1.9842,0.0,0.0,0.0,0.0,0.0,-1.7922,-1.8573,0.0,-1.9718,-2.0258,-2.0827,0.0,0.0,0.0,0.0,-2.0925,-2.0778,-2.0662,-2.1742,-2.2731,-2.2027,-2.2044,-2.2139,-2.19,0.0,0.0,0.0,0.0,0.0,0.0,0.0,0.0,0.0,0.0,0.0,0.0,0.0,0.0,0.0,0.0,0.0,0.0,0.0,0.0,0.0,0.0,0.0,0.0,-4.862,-4.862,-4.862,-4.862,-4.862,-4.862,-4.862,-4.862,-4.862,-4.862,-4.862,-4.862,-4.862,-4.862,0.0,0.0,0.0,-4.862,-4.862,-4.862,-4.862,-4.862,-4.862,-4.862,-4.862,-4.862,-4.862,0.0,0.0,0.0,0.0,0.0,0.0,0.0,0.0,0.0,0.0,0.0,0.0,0.0,0.0,0.0,0.0,0.0,0.0,0.0,0.0,0.0,0.0,-1.4737,-1.4963,-1.546,-1.6381,-1.7238,-1.8057,-1.9186,-2.035,-2.1442,-2.098,-2.0888,-2.1057,-1.9084,-1.8545,0.0,0.0,0.0,0.0,0.0,0.0,0.0,0.0,0.0,0.0,0.0,0.0,0.0,-1.9501,-2.0161,-2.0766,-2.1069,0.0,0.0,0.0,0.0,0.0,-2.1189,-2.2656,-2.3963,-2.3455,-2.3386,-2.3454,-2.3475,0.0,0.0,0.0,0.0,0.0,0.0,0.0,0.0,0.0,0.0,0.0,0.0,0.0,0.0,0.0,0.0,0.0,0.0,0.0,0.0,0.0,0.0,0.0,0.0,-4.862,-4.862,-4.862,-4.862,-4.862,-4.862,-4.862,-4.862,-4.862,-4.862,-4.862,-4.862,-4.862,-4.862,-4.862,0.0,0.0,-4.862,-4.862,-4.862,-4.862,-4.862,-4.862,-4.862,-4.862,-4.862,-4.862,0.0,0.0,0.0,0.0,0.0,0.0,0.0,0.0,0.0,0.0,0.0,0.0,0.0,0.0,0.0,0.0,0.0,0.0,0.0,0.0,0.0,-1.5344,-1.5314,-1.5592,-1.6302,-1.7346,-1.8154,-1.8751,-2.0824,-2.1951,-2.2166,-2.2609,-2.1997,-2.0379,-1.8884,-1.8268,-1.8361,0.0,0.0,0.0,0.0,0.0,0.0,0.0,0.0,0.0,0.0,0.0,0.0,-1.8351,-1.9276,-2.0375,-2.0452,0.0,0.0,0.0,0.0,0.0,-2.2961,-2.4826,-2.5618,-2.2452,-2.291,-2.3876,0.0,0.0,0.0,0.0,0.0,0.0,0.0,0.0,0.0,0.0,0.0,0.0,0.0,0.0,0.0,0.0,0.0,0.0,0.0,0.0,0.0,0.0,0.0,0.0,0.0,-4.862,-4.862,-4.862,-4.862,-4.862,-4.862,-4.862,-4.862,-4.862,-4.862,-4.862,-4.862,-4.862,-4.862,-4.862,0.0,-4.862,-4.862,-4.862,-4.862,-4.862,-4.862,-4.862,-4.862,-4.862,-4.862,-4.862,0.0,0.0,0.0,0.0,0.0,0.0,0.0,0.0,0.0,0.0,0.0,0.0,0.0,0.0,0.0,0.0,0.0,0.0,0.0,0.0,-1.4722,-1.5993,-1.6022,-1.6277,-1.6864,-1.8464,-1.9401,-1.9655,-2.1434,-2.2505,-2.284,-2.2778,-2.1689,-1.9718,-1.8668,-1.8191,-1.8176,-1.7883,-1.8051,-1.85,0.0,0.0,0.0,0.0,0.0,0.0,0.0,0.0,0.0,0.0,-1.9128,-2.0389,-2.0319,0.0,0.0,0.0,0.0,0.0,-2.2033,-2.3954,-2.5346,-2.3416,-2.501,-2.7018,0.0,0.0,0.0,0.0,0.0,0.0,0.0,0.0,0.0,0.0,0.0,0.0,0.0,0.0,0.0,0.0,0.0,0.0,0.0,0.0,0.0,0.0,0.0,0.0,0.0,0.0,-4.862,-4.862,-4.862,-4.862,-4.862,-4.862,-4.862,-4.862,-4.862,-4.862,-4.862,-4.862,-4.862,-4.862,0.0,-4.862,-4.862,-4.862,-4.862,-4.862,-4.862,-4.862,-4.862,-4.862,-4.862,-4.862,0.0,0.0,0.0,0.0,0.0,0.0,0.0,0.0,0.0,0.0,0.0,0.0,0.0,0.0,0.0,0.0,0.0,0.0,0.0,0.0,-1.4658,-1.62,-1.6632,-1.7104,-1.7669,-1.9409,-2.0381,-2.0518,-2.172,-2.2471,-2.2809,-2.232,-2.098,-1.9024,-1.8453,-1.8038,-1.7745,-1.7523,-1.7673,-1.8089,0.0,0.0,0.0,0.0,0.0,0.0,0.0,0.0,0.0,0.0,0.0,0.0,0.0,0.0,0.0,-2.1387,-2.1387,-2.1406,-2.1496,-2.3046,-2.4688,-2.4956,0.0,-2.9015,-3.0214,0.0,0.0,0.0,0.0,0.0,0.0,0.0,0.0,0.0,0.0,0.0,0.0,0.0,0.0,0.0,0.0,0.0,0.0,0.0,0.0,0.0,0.0,0.0,0.0,0.0,-4.862,-4.862,-4.862,-4.862,-4.862,-4.862,-4.862,-4.862,-4.862,-4.862,-4.862,-4.862,-4.862,-4.862,-4.862,-4.862,-4.862,-4.862,-4.862,-4.862,-4.862,-4.862,-4.862,-4.862,-4.862,-4.862,0.0,0.0,0.0,0.0,0.0,0.0,0.0,0.0,0.0,0.0,0.0,0.0,0.0,0.0,0.0,0.0,0.0,0.0,0.0,0.0,-1.4587,-1.5536,-1.6997,-1.8214,-1.9132,-1.9919,-2.0613,-2.1227,-2.1951,-2.2012,-2.1442,-2.1396,-2.027,-1.8284,-1.8222,-1.7575,-1.6571,-1.7147,-1.7221,-1.6958,-1.7488,0.0,0.0,0.0,0.0,0.0,0.0,0.0,0.0,0.0,0.0,0.0,0.0,0.0,-2.1663,-2.1663,-2.1663,-2.1952,-2.324,-2.3733,-2.4406,-2.6624,0.0,0.0,-2.9067,0.0,0.0,0.0,0.0,0.0,0.0,0.0,0.0,0.0,0.0,0.0,0.0,0.0,0.0,0.0,0.0,0.0,0.0,0.0,0.0,0.0,0.0,0.0,0.0,-4.862,-4.862,-4.862,-4.862,-4.862,-4.862,-4.862,-4.862,-4.862,-4.862,-4.862,-4.862,-4.862,-4.862,-4.862,-4.862,-4.862,-4.862,-4.862,-4.862,-4.862,-4.862,-4.862,-4.862,-4.862,-4.862,-4.862,0.0,0.0,0.0,0.0,0.0,0.0,0.0,0.0,0.0,0.0,0.0,0.0,0.0,0.0,0.0,0.0,0.0,0.0,0.0,-1.3102,-1.4223,-1.5507,-1.7058,-1.8108,-1.8607,-2.0531,-2.1458,-2.1304,-2.1981,-2.1966,-2.1304,-2.1304,-2.0193,-1.8222,-1.8764,-1.8299,-1.7108,-1.7541,-1.77,-1.7643,-1.7422,-1.7297,0.0,0.0,0.0,0.0,0.0,0.0,0.0,0.0,-1.863,-1.972,0.0,0.0,0.0,0.0,-2.1301,-2.1752,-2.2047,-2.3578,-2.5398,-2.661,0.0,0.0,0.0,0.0,0.0,0.0,0.0,0.0,0.0,0.0,0.0,0.0,0.0,0.0,0.0,0.0,0.0,0.0,0.0,0.0,0.0,0.0,0.0,0.0,0.0,0.0,0.0,-4.7357,-4.7357,-4.7357,-4.7357,-4.7357,-4.7357,-4.7357,-4.7357,-4.7373,-4.8204,-4.862,-4.862,-4.862,-4.862,-4.862,-4.862,-4.862,-4.862,-4.862,-4.862,-4.862,-4.862,-4.862,-4.862,-4.862,-4.862,-4.862,0.0,0.0,0.0,0.0,0.0,0.0,0.0,0.0,0.0,0.0,0.0,0.0,0.0,0.0,0.0,0.0,0.0,0.0,-1.1907,-1.265,-1.3762,-1.5267,-1.6638,-1.7532,-1.7869,-2.0377,-2.1442,-2.098,-2.1658,-2.1642,-2.098,-2.098,-2.0135,-1.864,-1.9231,-1.892,-1.7983,-1.7914,-1.7996,-1.8107,-1.7431,-1.722,0.0,0.0,0.0,0.0,0.0,0.0,0.0,0.0,-1.8653,0.0,0.0,0.0,0.0,0.0,-2.158,-2.2149,-2.176,-2.337,-2.543,0.0,0.0,0.0,0.0,0.0,0.0,0.0,0.0,0.0,0.0,0.0,0.0,0.0,0.0,0.0,0.0,0.0,0.0,0.0,0.0,0.0,0.0,0.0,0.0,0.0,0.0,0.0,0.0,-4.6603,-4.6603,-4.6603,-4.6603,-4.6603,-4.6603,-4.6603,-4.6603,-4.6603,-4.7527,-4.7973,-4.7973,-4.7973,-4.8096,-4.8281,-4.8065,-4.8096,-4.8296,-4.8296,-4.8419,-4.862,-4.862,-4.862,-4.862,-4.862,-4.862,-4.862,0.0,0.0,0.0,0.0,0.0,0.0,0.0,0.0,0.0,0.0,0.0,0.0,0.0,0.0,0.0,0.0,0.0,0.0,-1.2232,-1.2478,-1.326,-1.4731,-1.5701,-1.6502,-1.7178,-1.9224,-2.0289,-2.0304,-2.0949,-2.0934,-2.0289,-2.0289,-2.0018,-1.9498,-1.9513,-1.9326,-1.8954,-1.8219,-1.7982,-1.8065,-1.7535,-1.7308,-1.7349,0.0,0.0,0.0,0.0,0.0,0.0,0.0,-1.8851,0.0,0.0,0.0,0.0,0.0,-2.265,-2.3311,-2.2903,-2.3215,0.0,0.0,0.0,0.0,0.0,0.0,0.0,0.0,0.0,0.0,0.0,0.0,0.0,0.0,0.0,0.0,0.0,0.0,0.0,0.0,0.0,0.0,0.0,0.0,0.0,0.0,0.0,0.0,0.0,-4.6573,-4.6573,-4.6573,-4.6573,-4.6573,-4.6573,-4.6573,-4.6573,-4.6573,-4.6573,-4.6588,-4.6603,-4.6603,-4.6957,-4.7558,-4.688,-4.6973,-4.7588,-4.7588,-4.7989,-4.8604,-4.8604,-4.8604,-4.8563,-4.8604,-4.8604,-4.862,0.0,0.0,0.0,0.0,0.0,0.0,0.0,0.0,0.0,0.0,0.0,0.0,0.0,0.0,0.0,0.0,0.0,0.0,-1.1635,-1.2399,-1.3226,-1.4121,-1.5471,-1.63,-1.6486,-1.7561,-1.8838,-2.0304,-2.0027,-1.9795,-1.9595,-1.9695,-1.9652,-1.9545,-2.0289,-2.0017,-1.9001,-1.9017,-1.912,-1.9223,-1.8396,-1.8162,-1.8276,0.0,0.0,0.0,0.0,0.0,0.0,0.0,0.0,0.0,0.0,0.0,0.0,-2.1357,-2.1955,-2.2735,-2.2551,0.0,0.0,0.0,0.0,0.0,0.0,0.0,0.0,0.0,0.0,0.0,0.0,0.0,0.0,0.0,0.0,0.0,0.0,0.0,0.0,0.0,0.0,0.0,0.0,0.0,0.0,0.0,0.0,0.0,0.0,-4.5172,-4.5172,-4.5172,-4.5172,-4.5172,-4.5172,-4.5172,-4.5172,-4.5172,-4.5172,-4.568,-4.6603,-4.6603,-4.6711,-4.688,-4.668,-4.6711,-4.6896,-4.6896,-4.6939,-4.7002,-4.7163,-4.7293,-4.75,-4.7624,-4.7956,-4.837,0.0,0.0,0.0,0.0,0.0,0.0,0.0,0.0,0.0,0.0,0.0,-1.0412,0.0,0.0,0.0,0.0,0.0,0.0,0.0,-1.2168,-1.2962,-1.3959,-1.4911,-1.5777,-1.6578,-1.7254,-1.8084,-1.9069,-1.8931,-1.9008,-1.9302,-1.9449,-1.9638,-1.9919,-2.075,-2.0462,-1.9403,-1.9386,-1.949,-1.9608,-1.8871,-1.8618,-1.8708,0.0,0.0,0.0,0.0,0.0,0.0,0.0,0.0,0.0,0.0,0.0,0.0,-2.1059,-2.1823,-2.2835,-2.3795,0.0,0.0,0.0,0.0,0.0,0.0,0.0,0.0,0.0,0.0,0.0,0.0,0.0,0.0,0.0,0.0,0.0,0.0,0.0,0.0,0.0,0.0,0.0,0.0,0.0,0.0,0.0,0.0,0.0,0.0,-4.461,-4.461,-4.461,-4.4343,-4.4343,-4.461,-4.4343,-4.4305,-4.4473,-4.4473,-4.4849,-4.5568,-4.5646,-4.5824,-4.6085,-4.6006,-4.5966,-4.5966,-4.5966,-4.6039,-4.6203,-4.6324,-4.6448,-4.6609,-4.6732,-4.7032,-4.7383,0.0,0.0,-0.6888,-0.756,0.0,0.0,0.0,0.0,0.0,0.0,-1.0424,-1.0498,0.0,0.0,0.0,-1.1204,0.0,0.0,0.0,0.0,-1.2605,-1.4132,-1.4375,-1.5362,-1.7254,-1.7838,-1.7823,-1.7208,-1.7823,-1.85,-1.9242,-1.934,-1.9826,-2.0578,-2.0862,-2.0606,-1.9885,-1.9382,-1.9255,-1.9379,-1.8981,-1.8783,-1.872,-1.8941,0.0,0.0,0.0,0.0,0.0,0.0,0.0,0.0,0.0,0.0,0.0,-2.0806,-2.1967,-2.3252,0.0,0.0,0.0,0.0,0.0,0.0,0.0,0.0,0.0,0.0,0.0,0.0,0.0,0.0,0.0,0.0,0.0,0.0,0.0,0.0,0.0,0.0,0.0,0.0,0.0,0.0,0.0,0.0,0.0,0.0,0.0,-4.4572,-4.4572,-4.4496,-4.3903,-4.3864,-4.4419,-4.3786,-4.3669,-4.4073,-4.402,-4.3903,-4.3762,-4.4127,-4.4618,-4.5159,-4.4923,-4.4843,-4.4883,-4.4709,-4.5057,-4.5657,-4.5616,-4.5565,-4.5611,-4.5707,-4.5778,-4.5839,0.0,0.0,-0.8218,-0.8937,0.0,0.0,0.0,0.0,-1.0299,-1.0299,-1.0424,-1.0548,-1.0644,-1.0801,0.0,-1.133,-1.1486,0.0,0.0,0.0,-1.2742,-1.4132,-1.5716,-1.6993,-1.7961,-1.7608,-1.7347,-1.7208,-1.7347,-1.7852,-1.8672,-1.8702,-1.9531,-2.0958,-2.0463,-1.9898,-1.9351,-1.8973,-1.8763,-1.872,-1.8899,-1.8879,-1.8783,-1.8951,-1.843,0.0,0.0,0.0,0.0,0.0,0.0,0.0,-1.8773,-1.914,-1.953,-2.0496,-2.136,0.0,0.0,0.0,0.0,0.0,0.0,0.0,0.0,0.0,0.0,0.0,0.0,0.0,0.0,0.0,0.0,0.0,0.0,0.0,0.0,0.0,0.0,0.0,0.0,0.0,0.0,0.0,0.0,0.0,0.0,0.0,-4.3825,-4.4289,-4.4343,-4.3825,-4.3669,-4.3418,-4.3031,-4.2534,-4.2316,0.0,-4.2053,-4.1833,-4.1848,-4.3364,-4.4141,-4.4239,-4.3439,-4.3534,-4.4107,-4.2614,-4.2441,-4.3042,-4.2434,-4.2363,-4.2668,-4.3529,-4.4202,-4.4786,0.0,0.0,0.0,0.0,0.0,0.0,0.0,0.0,-1.0312,-1.0387,-1.0609,-1.0741,-1.0789,-1.1059,0.0,0.0,-1.1648,-1.1837,0.0,0.0,-1.2801,-1.4144,-1.6131,-1.7208,-1.7239,-1.7208,-1.7208,-1.7208,-1.687,-1.7282,-1.8377,-1.9107,-2.0127,-2.1319,-2.0671,-2.008,-1.9522,-1.8785,-1.8467,-1.853,-1.8875,-1.8696,-1.8234,-1.8409,-1.7952,-1.7215,-1.7243,0.0,0.0,0.0,0.0,0.0,0.0,0.0,-1.8611,-1.953,-2.0316,-2.154,0.0,0.0,0.0,0.0,0.0,0.0,0.0,0.0,0.0,0.0,0.0,0.0,0.0,0.0,0.0,0.0,0.0,0.0,0.0,0.0,0.0,0.0,0.0,0.0,0.0,0.0,0.0,0.0,0.0,-4.3046,-4.2688,-4.3016,-4.3205,-4.3111,-4.286,-4.2563,-4.229,-4.1755,-4.1449,-4.142,-4.1182,-4.1014,-4.0944,-4.2015,-4.2438,-4.233,-4.185,-4.1932,-4.229,-4.1322,-4.1127,-4.1449,-4.107,-4.1015,-4.1196,-4.181,-4.2222,-4.2595,0.0,0.0,0.0,0.0,0.0,0.0,0.0,0.0,0.0,-1.0535,-1.0801,-1.0991,-1.0991,-1.1344,-1.1615,0.0,0.0,0.0,-1.22,0.0,0.0,-1.416,-1.5916,-1.664,-1.621,-1.6624,-1.6916,-1.7024,-1.6471,-1.7009,-1.8592,-1.9789,-2.081,-2.1596,-2.1093,-2.0464,-1.9726,-1.8537,-1.8064,-1.8108,-1.8323,-1.7924,-1.7238,-1.7416,-1.7093,-1.6498,-1.6372,-1.6775,-1.7382,-1.74,0.0,0.0,0.0,0.0,-1.7465,-1.8469,-1.9298,-2.0639,0.0,0.0,0.0,0.0,0.0,0.0,0.0,0.0,0.0,0.0,0.0,0.0,0.0,0.0,0.0,0.0,0.0,0.0,0.0,0.0,0.0,0.0,0.0,0.0,0.0,0.0,0.0,0.0,0.0,-4.1503,-4.1361,-4.147,-4.1705,-4.1994,-4.1548,-4.1204,-4.1161,-4.0576,-4.0266,-4.021,-4.0223,-4.0164,-3.9977,-4.0276,-4.0447,-4.0603,-4.0418,-4.0461,-4.0603,-4.026,-4.0216,-4.0332,-4.0173,-4.013,-4.013,-4.0303,-4.0375,-4.0375,0.0,0.0,0.0,0.0,0.0,0.0,0.0,0.0,0.0,0.0,-1.0897,-1.1097,-1.131,-1.149,-1.167,-1.1848,-1.188,-1.1991,0.0,0.0,0.0,-1.4175,-1.5009,-1.5701,-1.6193,-1.5716,-1.5747,-1.6332,-1.624,-1.7515,-2.001,-1.9808,-2.0441,-2.1754,-2.1276,-2.0303,-1.8975,-1.7892,-1.7075,-1.6472,-1.6099,-1.5849,-1.5693,-1.5785,-1.5647,-1.5429,-1.5573,-1.5996,-1.6481,-1.6614,-1.6947,0.0,0.0,0.0,0.0,0.0,0.0,0.0,0.0,0.0,0.0,0.0,0.0,0.0,0.0,0.0,0.0,0.0,0.0,0.0,0.0,0.0,0.0,0.0,0.0,0.0,0.0,0.0,0.0,0.0,0.0,0.0,0.0,0.0,0.0,0.0,-4.0261,-4.068,-4.0087,-4.0598,-4.051,-3.9667,-3.9601,-3.9085,-3.8169,-3.7673,-3.7429,-3.7416,-3.7475,-3.7492,-3.7519,-3.8034,-3.9118,-4.0546,-3.9724,-3.9855,-4.0475,-3.8922,-3.8684,-3.9299,-3.8575,-3.8239,-3.8362,-3.9091,-3.9373,-3.9505,0.0,0.0,0.0,0.0,0.0,0.0,0.0,0.0,0.0,0.0,0.0,-1.1302,-1.149,-1.1772,-1.1938,-1.1902,-1.2002,0.0,0.0,0.0,0.0,-1.3621,-1.427,-1.4791,-1.507,-1.4778,-1.5147,-1.6194,-1.5455,-1.7253,0.0,-2.0928,-2.1894,-2.3932,-2.2835,-2.1927,-2.1086,-1.8677,-1.7218,-1.656,-1.6198,-1.6343,-1.6608,-1.5331,-1.5683,-1.6739,-1.5652,-1.5729,-1.6358,-1.6708,-1.7232,-1.7693,-1.7314,0.0,0.0,0.0,0.0,0.0,0.0,0.0,0.0,0.0,0.0,0.0,0.0,0.0,0.0,0.0,0.0,0.0,0.0,0.0,0.0,0.0,0.0,0.0,0.0,0.0,0.0,0.0,0.0,0.0,0.0,0.0,0.0,0.0,-3.8683,-3.9059,-3.8752,-3.9004,-3.9002,-3.8654,-3.8627,-3.8187,-3.7201,-3.6986,-3.6758,-3.6441,-3.6472,-3.6671,-3.7011,-3.7273,-3.8,-3.9042,-3.8652,-3.8697,-3.9042,-3.8239,-3.8148,-3.8427,-3.807,-3.79,-3.7946,-3.8349,-3.8472,-3.8517,0.0,0.0,0.0,0.0,0.0,0.0,0.0,0.0,0.0,0.0,0.0,-1.1546,-1.1725,0.0,0.0,0.0,-1.2112,0.0,0.0,0.0,0.0,0.0,0.0,-1.3682,-1.3682,-1.3682,-1.4267,-1.5439,-1.4791,0.0,-2.2043,-2.2208,-2.3756,0.0,-2.4854,-2.3655,-2.2494,-1.9603,-1.7985,-1.7364,-1.6934,-1.7165,-1.7686,-1.6584,-1.7378,-1.8824,-1.6924,-1.6747,-1.7344,0.0,0.0,0.0,0.0,0.0,0.0,0.0,0.0,0.0,0.0,0.0,0.0,0.0,0.0,0.0,0.0,0.0,0.0,0.0,0.0,0.0,0.0,0.0,0.0,0.0,0.0,0.0,0.0,0.0,0.0,0.0,0.0,0.0,0.0,0.0,0.0,0.0,0.0,-3.7681,-3.7678,-3.7667,-3.7637,-3.7552,-3.7566,-3.7165,-3.6276,-3.6276,-3.6049,-3.5678,-3.5822,-3.6136,-3.6567,-3.6711,-3.7103,-3.7691,-3.7835,-3.79,-3.79,-3.79,-3.79,-3.79,-3.79,-3.79,-3.79,-3.79,-3.79,-3.79,0.0,0.0,0.0,0.0,0.0,0.0,0.0,0.0,0.0,0.0,0.0,-1.1816,-1.2133,-1.22,-1.22,-1.219,-1.2184,0.0,0.0,0.0,0.0,0.0,0.0,0.0,-1.2292,-1.2292,-1.2647,-1.3355,0.0,0.0,-2.1381,-2.3291,-2.5648,-2.8205,-2.7179,-2.4798,-2.1492,0.0,-1.9261,-1.862,-1.778,-1.7587,-1.8051,-2.0348,-2.1301,-2.1238,-1.9861,0.0,0.0,0.0,0.0,0.0,0.0,0.0,0.0,0.0,0.0,0.0,0.0,0.0,0.0,0.0,0.0,0.0,0.0,0.0,0.0,0.0,0.0,0.0,0.0,0.0,0.0,0.0,0.0,0.0,0.0,0.0,0.0,0.0,0.0,0.0,0.0,0.0,0.0,0.0,0.0,-3.7046,-3.7035,-3.7035,-3.6682,-3.5845,-3.5845,-3.5398,-3.4531,-3.4531,-3.4531,-3.4502,-3.5064,-3.5365,-3.5404,-3.5913,-3.6488,-3.709,-3.7652,-3.79,-3.79,-3.79,-3.79,-3.79,-3.79,-3.79,-3.79,-3.79,-3.79,-3.79,0.0,0.0,0.0,0.0,0.0,0.0,0.0,0.0,0.0,0.0,0.0,0.0,0.0,-1.22,-1.22,-1.22,-1.22,0.0,0.0,0.0,0.0,0.0,0.0,0.0,0.0,-1.22,-1.2523,-1.3201,-1.3682,-1.602,-2.0042,-2.1196,-2.2967,-2.5149,-2.5632,-2.5227,-2.3935,-2.0871,-1.9452,-1.9233,-1.8966,-1.9827,-2.1346,-2.1526,-2.2911,-2.4528,0.0,0.0,0.0,0.0,0.0,0.0,-1.7809,-1.7386,-1.7276,-1.6215,0.0,0.0,0.0,0.0,0.0,0.0,0.0,0.0,0.0,0.0,0.0,0.0,0.0,0.0,0.0,0.0,0.0,0.0,0.0,0.0,0.0,0.0,0.0,0.0,0.0,0.0,0.0,0.0,0.0,0.0,0.0,-3.6978,-3.6978,-3.6772,-3.6324,-3.571,-3.544,-3.5031,-3.4397,-3.4397,-3.4397,-3.4397,-3.462,-3.492,-3.5312,-3.5495,-3.5887,-3.6436,-3.6658,-3.7181,-3.79,-3.79,-3.79,-3.79,-3.79,-3.79,-3.79,-3.79,-3.79,-3.79,0.0,0.0,0.0,-1.0299,0.0,-1.0374,-1.062,-1.0861,-1.1141,-1.1512,0.0,0.0,0.0,0.0,-1.2785,-1.2554,-1.2323,-1.22,-1.22,-1.22,0.0,0.0,0.0,0.0,0.0,-1.2416,-1.2647,-1.2862,-1.3529,-1.5389,-1.8284,-1.9441,-2.1042,-2.2963,-2.3179,-2.3875,0.0,0.0,0.0,-2.0488,-2.1224,-2.2375,-2.3753,-2.4823,-2.6289,-2.7667,0.0,0.0,0.0,0.0,0.0,0.0,-1.8889,-1.7788,-1.7062,-1.6046,-1.6879,0.0,0.0,0.0,0.0,0.0,0.0,0.0,0.0,0.0,0.0,0.0,0.0,0.0,0.0,0.0,0.0,0.0,0.0,0.0,0.0,0.0,0.0,0.0,0.0,0.0,0.0,0.0,0.0,0.0,0.0,0.0,-3.6476,-3.6425,-3.6112,-3.5521,-3.5072,-3.4743,-3.4397,-3.4397,-3.4397,-3.4397,-3.4397,-3.4607,-3.4999,-3.4999,-3.5299,-3.5835,-3.5835,-3.6502,-3.7599,-3.7599,-3.773,-3.79,-3.79,-3.79,-3.79,-3.79,-3.79,-3.79,-1.0339,-1.0339,-1.0339,-1.0339,-1.0352,-1.0527,-1.0964,-1.1172,-1.1436,-1.1886,0.0,0.0,0.0,0.0,0.0,-1.3324,-1.2647,-1.2246,-1.2231,-1.22,0.0,0.0,0.0,0.0,0.0,-1.2847,-1.2862,-1.2231,-1.419,-1.5485,-1.6193,-1.8223,-2.0225,-2.2074,-2.0135,-2.0703,-2.3148,0.0,-2.2825,-2.2536,0.0,-2.4933,-2.5072,0.0,0.0,0.0,-3.0509,-3.0079,0.0,-2.5626,0.0,0.0,0.0,-1.8006,-1.6445,-1.6429,-1.6898,-1.7429,0.0,0.0,0.0,0.0,0.0,0.0,0.0,0.0,0.0,0.0,0.0,0.0,0.0,0.0,0.0,0.0,0.0,0.0,0.0,0.0,0.0,0.0,0.0,0.0,0.0,0.0,0.0,0.0,-3.5131,-3.5463,-3.5386,-3.5965,-3.5937,-3.51,-3.462,-3.4384,-3.4397,-3.4397,-3.4397,-3.4397,-3.4397,-3.4397,-3.4397,-3.4397,-3.4724,-3.5273,-3.5273,-3.5913,-3.6959,-3.6985,-3.7351,-3.7874,-3.79,-3.79,-3.79,-3.79,-3.79,-3.79,-1.0939,-1.1265,-1.1538,-1.1538,-1.1734,-1.1898,-1.1939,-1.247,-1.2889,0.0,0.0,0.0,-1.3963,-1.4517,-1.4839,-1.4655,-1.4036,-1.3436,-1.2955,-1.2462,-1.22,-1.22,-1.22,-1.2431,-1.2908,-1.2631,-1.2616,-1.2924,-1.3467,-1.4098,-1.4791,-1.5837,-1.7161,-1.8607,-1.8545,-1.893,-1.9574,-1.9099,0.0,0.0,-2.3302,-2.5379,0.0,0.0,0.0,0.0,0.0,-3.2582,-3.1274,0.0,-2.7527,-2.5336,0.0,-1.8963,-1.7606,-1.7113,-1.7837,-1.8655,-1.8084,0.0,0.0,0.0,0.0,0.0,0.0,0.0,0.0,0.0,0.0,0.0,0.0,0.0,0.0,0.0,0.0,0.0,0.0,0.0,0.0,0.0,0.0,0.0,0.0,0.0,0.0,0.0,-3.4579,-3.4841,-3.4841,-3.4673,-3.4428,-3.4054,-3.3904,-3.4005,-3.4397,-3.4397,-3.4397,-3.4397,-3.4397,-3.4397,-3.4397,-3.4397,-3.4489,-3.4646,-3.4646,-3.5077,-3.5835,-3.6658,-3.7103,-3.7299,-3.773,-3.79,-3.79,-3.79,-3.79,-3.79,-1.1526,-1.18,-1.2086,-1.2335,-1.2687,-1.2959,-1.3111,-1.3842,-1.4342,0.0,0.0,0.0,-1.5872,-1.6223,-1.6239,-1.567,-1.4993,-1.4221,-1.3251,-1.2831,-1.2493,-1.22,-1.2462,-1.2801,-1.3201,-1.3371,-1.3375,-1.3201,-1.3467,-1.3529,-1.3386,-1.4052,-1.4932,-1.5962,-1.6056,-1.6732,-1.7731,-1.6763,0.0,0.0,-2.4656,0.0,0.0,-3.1521,-3.2823,0.0,0.0,0.0,-3.2791,-3.1726,-2.9587,0.0,0.0,-2.0562,-1.9607,-1.8069,-1.8808,-1.9934,-1.8931,-1.9471,0.0,0.0,0.0,0.0,0.0,0.0,0.0,0.0,0.0,0.0,0.0,0.0,0.0,0.0,0.0,0.0,0.0,0.0,0.0,0.0,0.0,0.0,0.0,0.0,0.0,-3.3159,-3.3643,-3.4015,-3.4058,-3.365,-3.3343,-3.3248,-3.3208,-3.3365,-3.3679,-3.3927,-3.4058,-3.4071,-3.4293,-3.4397,-3.4397,-3.4397,-3.4397,-3.4397,-3.4397,-3.4593,-3.4999,-3.5913,-3.6567,-3.7037,-3.739,-3.7678,-3.79,-3.79,-3.79,-3.79,0.0,-1.2151,-1.24,-1.3025,-1.3475,-1.3926,-1.4428,-1.5274,-1.5817,0.0,-1.6713,-1.7746,-1.8576,-1.853,-1.7946,-1.6762,-1.5901,-1.4886,-1.3621,-1.3313,-1.2939,-1.2339,-1.2878,-1.3221,-1.3313,-1.4483,-1.4498,-1.3313,-1.3836,-1.3436,-1.22,-1.2816,-1.3405,-1.3959,-1.3513,-1.4683,-1.6916,-1.61,-1.7961,-2.1876,-2.6765,-2.8744,0.0,0.0,-3.3742,-3.2976,-3.372,-3.3938,-3.3727,-3.2961,-3.0473,0.0,0.0,-2.2839,-2.2256,-1.9634,-2.0254,-2.1473,-2.0212,-2.0333,-2.1227,-2.2794,0.0,0.0,-2.5016,-2.4979,0.0,0.0,0.0,0.0,0.0,0.0,0.0,0.0,0.0,0.0,0.0,0.0,0.0,0.0,0.0,0.0,0.0,-3.1946,-3.2128,-3.2164,-3.268,-3.3022,-3.3113,-3.2764,-3.2568,-3.2594,-3.2594,-3.262,-3.2685,-3.3221,-3.3496,-3.3496,-3.4045,-3.4306,-3.4306,-3.4371,-3.4397,-3.4397,-3.4397,-3.4397,-3.4437,-3.4972,-3.5835,-3.6828,-3.6946,-3.7325,-3.7808,-3.7874,-3.79,-3.79,-1.2716,-1.3108,-1.3684,-1.4466,-1.5012,-1.5452,-1.5718,-1.676,-1.7357,-1.6845,-1.8025,-1.9563,-2.1301,-2.0549,-1.9779,-1.9517,-1.7853,-1.6471,-1.567,-1.4098,-1.314,-1.3016,-1.314,-1.3452,-1.399,-1.4267,-1.4267,-1.4006,-1.359,-1.2985,-1.22,-1.2323,-1.2462,-1.2631,-1.3575,-1.4593,-1.5747,-1.8254,0.0,-2.2485,-2.4026,0.0,-3.1093,-3.2064,-3.329,-3.4475,-3.4628,-3.4676,-3.4493,-3.329,-3.1294,-2.9015,0.0,0.0,-2.5417,-2.3641,-2.3774,-2.4327,-2.3533,-2.381,-2.4025,-2.2794,0.0,0.0,-2.2182,-2.2967,0.0,0.0,0.0,0.0,0.0,0.0,0.0,0.0,0.0,0.0,0.0,0.0,0.0,0.0,0.0,0.0,0.0,-3.2237,-3.2237,-3.2561,-3.2382,-3.2175,-3.1926,-3.1865,-3.1851,-3.1954,-3.1967,-3.2228,-3.2685,-3.2816,-3.2868,-3.2868,-3.347,-3.3757,-3.3757,-3.4201,-3.4397,-3.4397,-3.4397,-3.4397,-3.441,-3.4528,-3.4986,-3.5717,-3.6645,-3.7077,-3.7233,-3.773,-3.79,-3.79,-1.3346,-1.3817,-1.4428,-1.5131,-1.6078,-1.6764,-1.6794,-1.8082,-1.9047,-1.91,-2.0677,-2.192,-2.2274,-2.1704,-2.1026,-2.0366,-1.9039,-1.7669,-1.63,-1.5255,-1.4406,-1.3729,-1.4021,-1.436,-1.4686,-1.5024,-1.5024,-1.4701,-1.4036,-1.3355,-1.2693,-1.2693,-1.2973,-1.3476,-1.4332,-1.5346,-1.6561,0.0,-2.0301,-2.2212,-2.5295,0.0,-3.1382,-3.2545,-3.3627,-3.4476,-3.4201,-3.4254,-3.4309,-3.2908,-3.19,0.0,0.0,-2.8355,-2.8455,0.0,-2.584,-2.6565,-2.5158,-2.5035,-2.5241,-2.4918,0.0,0.0,0.0,0.0,-2.3594,0.0,0.0,0.0,0.0,0.0,0.0,0.0,0.0,0.0,0.0,0.0,0.0,0.0,0.0,0.0,0.0,-3.2167,-3.2164,-3.2381,-3.2055,-3.1776,-3.1593,-3.1421,-3.1329,-3.1405,-3.1418,-3.1561,-3.1836,-3.2123,-3.2267,-3.228,-3.3169,-3.3587,-3.3613,-3.4149,-3.4397,-3.4397,-3.4397,-3.4397,-3.4397,-3.4397,-3.458,-3.4933,-3.5809,-3.6502,-3.7037,-3.7351,-3.7639,-3.79,-1.3804,-1.4219,-1.476,-1.5312,-1.6629,-1.7557,-1.7364,-1.8769,-2.0224,-2.1245,-2.3035,-2.3914,-2.3112,-2.2798,-2.2309,-2.142,-2.0204,-1.8879,-1.7379,-1.6741,-1.5929,-1.4824,-1.5178,-1.5393,-1.5393,-1.5931,-1.587,-1.5193,-1.4529,-1.3867,-1.3201,-1.3201,-1.3694,-1.4629,-1.5167,0.0,0.0,0.0,0.0,-2.2859,0.0,-2.9474,-3.0221,-3.2537,-3.3355,-3.3277,-3.3206,-3.3458,-3.3656,-3.2457,-3.2401,-3.2273,-2.9354,-2.9931,0.0,0.0,0.0,0.0,0.0,0.0,0.0,0.0,0.0,-2.581,0.0,0.0,0.0,-2.5262,0.0,0.0,0.0,0.0,0.0,0.0,0.0,0.0,0.0,0.0,0.0,0.0,0.0,0.0,0.0,-3.1495,-3.1627,-3.1888,-3.146,-3.1294,-3.1468,-3.1235,-3.1099,-3.0986,-3.0986,-3.0986,-3.0986,-3.1444,-3.1641,-3.1654,-3.2751,-3.3313,-3.3443,-3.3992,-3.4293,-3.4397,-3.4397,-3.4397,-3.4397,-3.4397,-3.4397,-3.4463,-3.5064,-3.5861,-3.6698,-3.692,-3.7312,-3.7743,-1.3804,-1.4219,-1.4695,-1.4999,-1.6327,-1.7207,-1.6847,-1.8063,-1.9831,-2.206,-2.3268,-2.4393,-2.5553,-2.4612,-2.4227,-2.5093,-2.2124,-2.0497,-2.1201,-1.8693,-1.7085,-1.6871,-1.6348,-1.61,-1.61,-1.6148,-1.587,-1.5193,-1.4529,-1.3867,-1.3201,-1.3201,-1.3578,-1.4317,-1.5593,0.0,0.0,0.0,-2.2644,0.0,-2.7245,-2.7089,0.0,-2.9789,-3.0685,-3.058,-3.218,-3.281,-3.2792,0.0,-3.2678,-3.2681,0.0,-3.1212,-3.2272,0.0,0.0,0.0,0.0,0.0,0.0,0.0,-2.8981,0.0,0.0,0.0,-2.5318,-2.3194,0.0,0.0,0.0,0.0,0.0,0.0,0.0,0.0,0.0,0.0,0.0,0.0,0.0,0.0,0.0,0.0,-2.9953,-3.1227,-3.0317,-3.0111,-3.1018,-3.1347,-3.1384,-3.1024,-3.0986,-3.0986,-3.0986,-3.1052,-3.1078,-3.1091,-3.1693,-3.2267,-3.2816,-3.3417,-3.394,-3.4397,-3.4397,-3.4397,-3.4397,-3.4397,-3.4397,-3.4463,-3.5064,-3.5378,-3.5613,-3.6632,-3.705,-3.7181,-1.3804,-1.4507,-1.5039,-1.4805,-1.6393,-1.7451,-1.6652,-1.9349,-2.1891,-2.2992,-2.4762,-2.6305,-2.7222,0.0,0.0,0.0,0.0,-2.3007,0.0,0.0,-1.9337,-1.9022,-1.7946,-1.7362,-1.7362,-1.6978,-1.644,-1.5777,-1.5116,-1.4652,-1.4363,-1.4763,-1.5394,-1.6306,-1.787,0.0,-2.163,0.0,0.0,0.0,0.0,0.0,0.0,-2.9803,-3.1302,-3.1258,-3.2072,-3.2345,-3.2231,0.0,-3.1654,0.0,0.0,0.0,0.0,0.0,0.0,0.0,0.0,0.0,0.0,0.0,0.0,0.0,-2.5853,0.0,-2.461,0.0,0.0,0.0,0.0,0.0,0.0,0.0,0.0,0.0,0.0,0.0,0.0,0.0,0.0,0.0,0.0,0.0,0.0,0.0,0.0,-2.9191,-3.0508,-3.0695,-3.0819,-3.1011,-3.0986,-3.0986,-3.0986,-3.0986,-3.0986,-3.0999,-3.1523,-3.1928,-3.2228,-3.3169,-3.3718,-3.3953,-3.4254,-3.4397,-3.4397,-3.4397,-3.4397,-3.4424,-3.4672,-3.4986,-3.5351,-3.5835,-3.6436,-3.7037,-1.4027,0.0,-1.5126,-1.4681,-1.6292,-1.7544,-1.7233,-2.0276,-2.2898,-2.3681,-2.5708,-2.7438,-2.8376,-2.7348,0.0,0.0,-2.6863,-2.5237,0.0,0.0,-2.1475,-2.1051,-1.9564,-1.8758,-1.8758,-1.8066,-1.7301,-1.6471,-1.5808,-1.547,0.0,0.0,-1.68,-1.7917,0.0,-2.1543,-2.3245,0.0,0.0,-2.5123,-2.5697,-2.6043,-2.6575,-2.9916,-3.1456,-3.1813,-3.1909,-3.1946,-3.1834,-3.0878,-3.1061,0.0,-3.0597,0.0,0.0,0.0,0.0,0.0,-3.0461,0.0,0.0,0.0,0.0,0.0,0.0,0.0,0.0,0.0,0.0,0.0,0.0,0.0,0.0,0.0,0.0,0.0,0.0,0.0,0.0,0.0,0.0,0.0,0.0,0.0,0.0,0.0,0.0,-2.7944,-3.0023,-3.0082,-3.0325,-3.096,-3.0986,-3.0986,-3.0986,-3.0986,-3.0986,-3.0986,-3.1405,-3.1654,-3.1836,-3.2881,-3.343,-3.3626,-3.4162,-3.4397,-3.4397,-3.4397,-3.4397,-3.4397,-3.4397,-3.4672,-3.5064,-3.5234,-3.5822,-3.658,-1.4559,-1.4598,0.0,0.0,0.0,-1.731,-1.8955,-2.0011,-2.1468,-2.3942,-2.541,0.0,0.0,0.0,0.0,0.0,0.0,-2.6837,-2.7234,0.0,-2.3008,-2.2929,-2.1124,-2.0128,0.0,-1.9421,-1.8419,-1.7162,-1.6502,0.0,0.0,0.0,0.0,0.0,-2.0419,-2.2679,-2.4922,-2.4977,-2.6956,-2.9957,-2.8706,-2.9238,-3.0653,0.0,-2.9785,-3.1099,-3.1482,0.0,0.0,-3.128,-3.1472,0.0,0.0,0.0,0.0,0.0,0.0,0.0,0.0,0.0,0.0,-2.854,0.0,0.0,0.0,0.0,-2.6903,0.0,0.0,0.0,0.0,0.0,-2.4795,-2.3471,-2.3286,0.0,0.0,0.0,0.0,0.0,0.0,0.0,0.0,0.0,0.0,0.0,0.0,0.0,-2.9536,-2.9776,-3.0166,-3.0985,-3.0986,-3.0986,-3.0986,-3.0986,-3.0986,-3.0986,-3.0999,-3.13,-3.1823,-3.245,-3.3038,-3.3626,-3.4162,-3.4397,-3.4397,-3.4397,-3.4397,-3.4397,-3.4397,-3.441,-3.4502,-3.5077,-3.5325,-3.5508,0.0,0.0,0.0,0.0,0.0,-1.7787,-2.008,-2.181,-2.3665,0.0,0.0,0.0,0.0,-3.0004,-3.0173,0.0,0.0,-2.9158,-2.8675,-2.6617,0.0,0.0,0.0,-2.2468,0.0,0.0,0.0,0.0,0.0,0.0,0.0,0.0,0.0,0.0,0.0,-2.3472,0.0,0.0,0.0,0.0,0.0,-2.9382,-3.0959,0.0,0.0,-3.1024,-3.1161,-3.1198,0.0,-3.1085,-3.1069,-3.1025,-3.0831,-3.0806,-3.0814,-3.0775,-3.1014,0.0,0.0,0.0,-3.1312,-2.9798,0.0,0.0,0.0,0.0,0.0,0.0,0.0,0.0,0.0,-2.5409,-2.4903,-2.3749,-2.305,-2.2259,0.0,0.0,0.0,0.0,0.0,0.0,0.0,0.0,0.0,0.0,0.0,0.0,0.0,-2.9048,-2.9757,-3.0398,-3.079,-3.0986,-3.0986,-3.0986,-3.0986,-3.0986,-3.0986,-3.1091,-3.13,-3.1862,-3.245,-3.3025,-3.3613,-3.4071,-3.4397,-3.4397,-3.4397,-3.4397,-3.4397,-3.4397,-3.4424,-3.462,-3.4959,-3.5456,-1.5853,0.0,0.0,0.0,0.0,0.0,0.0,0.0,0.0,0.0,-2.8372,0.0,-3.1608,0.0,-3.1397,0.0,-3.1589,-3.0572,-2.9386,-2.8005,0.0,-2.7626,-2.5851,0.0,0.0,0.0,0.0,0.0,0.0,-1.8741,0.0,0.0,0.0,0.0,0.0,0.0,0.0,0.0,-2.8077,0.0,0.0,-2.9962,0.0,0.0,-3.0986,-3.0986,0.0,-3.0986,-3.0986,-3.0986,-3.0887,-3.0784,-3.0944,-3.0794,-3.0575,-3.0709,-3.0847,-3.0977,-3.0876,-3.0942,0.0,-3.0059,-2.8806,0.0,-2.6232,0.0,0.0,0.0,0.0,0.0,0.0,0.0,-2.5304,-2.4313,-2.322,-2.2126,0.0,0.0,0.0,0.0,0.0,0.0,0.0,0.0,-2.1447,-2.366,0.0,0.0,0.0,0.0,-2.921,-3.0061,-3.0699,-3.0986,-3.0986,-3.0986,-3.0986,-3.0986,-3.0986,-3.0986,-3.0999,-3.1536,-3.2111,-3.2725,-3.3326,-3.3901,-3.4397,-3.4397,-3.4397,-3.4397,-3.4397,-3.4397,-3.4397,-3.4397,-3.4894,-3.5691,0.0,0.0,0.0,0.0,-1.844,0.0,0.0,0.0,-2.6465,0.0,-2.9742,-3.1073,-3.2266,-3.2425,-3.2425,-3.2399,-3.2068,-3.1158,-2.9549,-2.8891,0.0,0.0,-2.7075,-2.6449,-2.5859,0.0,0.0,0.0,0.0,0.0,0.0,0.0,0.0,0.0,-2.2996,0.0,-2.4961,-2.8229,-2.9802,-3.0179,-3.0764,-3.0986,-3.0986,-3.0986,-3.0986,-3.0986,-3.0986,-3.0986,-3.0986,-3.0986,-3.0986,-3.0986,-3.0986,-3.0986,-3.0986,-3.0986,-3.0986,-3.0944,-3.0672,-3.0635,-3.0401,-2.9373,0.0,0.0,0.0,0.0,-2.8929,0.0,0.0,0.0,0.0,0.0,0.0,-2.5141,-2.3755,-2.2223,0.0,0.0,0.0,0.0,0.0,0.0,0.0,0.0,-2.0222,-2.2377,-2.1949,0.0,0.0,0.0,-2.8609,-2.9957,-3.066,-3.0986,-3.0986,-3.0986,-3.0986,-3.0986,-3.0986,-3.0986,-3.0999,-3.151,-3.2084,-3.2725,-3.33,-3.3875,-3.4397,-3.4397,-3.4397,-3.4397,-3.4397,-3.4397,-3.4397,-3.4397,-3.5103,-3.607,-1.7682,-1.8816,-2.0044,0.0,-2.0635,-2.1341,0.0,0.0,0.0,0.0,-3.038,-3.1346,-3.2502,-3.2633,-3.2633,-3.262,-3.2516,0.0,0.0,0.0,0.0,-3.0688,-2.9363,-2.8302,-2.7729,-2.5905,0.0,-2.2473,0.0,0.0,-1.9378,0.0,0.0,0.0,0.0,0.0,-2.4395,-2.7308,-2.9381,-3.0777,-3.0934,-3.0986,0.0,0.0,-3.0986,-3.0986,-3.0986,-3.0986,-3.0986,-3.0986,-3.0986,-3.0986,-3.0986,-3.0986,-3.0986,-3.0986,-3.0986,-3.0985,-3.0915,-3.0913,-3.0906,-3.0949,-2.9872,-2.8778,0.0,0.0,0.0,0.0,0.0,0.0,0.0,0.0,0.0,-2.5055,-2.3637,-2.2476,0.0,0.0,0.0,0.0,0.0,0.0,0.0,-1.9906,-2.0448,-2.1414,-2.1595,0.0,0.0,0.0,0.0,-2.8791,-3.0228,-3.0986,-3.0986,-3.0986,-3.0986,-3.0986,-3.0986,-3.0986,-3.0986,-3.1143,-3.1744,-3.2698,-3.2855,-3.3483,-3.4397,-3.4397,-3.4397,-3.4397,-3.4397,-3.4397,-3.4397,-3.4397,-3.4868,-3.5561,-1.9235,0.0,0.0,-2.371,0.0,0.0,-2.5798,0.0,0.0,-3.0228,-3.1222,0.0,-3.262,-3.3143,-3.3339,-3.3104,-3.3091,0.0,-3.2346,0.0,0.0,-3.147,-3.0777,-3.0006,-2.9157,-2.7495,0.0,-2.3675,0.0,0.0,-1.9407,0.0,0.0,0.0,0.0,-2.2362,0.0,-2.6837,-2.9137,-3.0634,-3.0882,0.0,0.0,-3.0986,-3.0986,-3.0986,-3.0986,-3.0986,-3.0986,-3.0986,-3.0986,-3.0986,-3.0986,-3.0986,-3.0986,-3.0986,-3.0986,-3.0986,-3.0986,-3.0986,-3.1061,-3.1272,-3.0533,-2.9689,-2.9417,-2.9468,-2.9301,0.0,0.0,0.0,0.0,0.0,0.0,0.0,0.0,0.0,0.0,0.0,0.0,0.0,0.0,0.0,0.0,-1.9558,-2.0177,-2.0921,-2.1298,0.0,0.0,0.0,0.0,-2.8001,-2.9706,-3.0725,-3.0986,-3.0986,-3.0986,-3.0986,-3.0986,-3.0986,-3.0986,-3.0986,-3.1614,-3.2685,-3.2685,-3.3339,-3.4397,-3.4397,-3.4397,-3.4397,-3.4397,-3.4397,-3.4397,-3.4397,-3.4776,-3.5378,0.0,0.0,0.0,0.0,0.0,0.0,0.0,-2.8895,0.0,-3.1052,0.0,-3.2921,-3.2921,-3.3809,-3.4201,-3.3744,0.0,-3.326,-3.2202,-3.2568,-3.2372,-3.1365,-3.1628,-3.134,-3.0335,-2.928,-2.7324,0.0,0.0,0.0,0.0,0.0,0.0,0.0,0.0,0.0,0.0,-2.6794,-2.9104,0.0,-3.079,-3.0986,-3.0986,-3.0986,-3.0986,-3.0986,-3.0986,-3.0986,-3.0986,-3.0986,-3.0986,-3.0986,-3.0986,-3.0986,-3.0986,-3.0986,-3.0986,-3.0986,-3.0986,-3.0986,-3.0986,-3.0986,-3.0986,-3.0725,-2.9768,-2.971,-2.9804,-2.9568,-2.9122,-2.918,0.0,0.0,0.0,0.0,0.0,0.0,0.0,0.0,0.0,0.0,0.0,0.0,0.0,-1.9398,-1.9856,-2.0593,-2.0921,0.0,0.0,0.0,0.0,-2.7484,-2.9108,-3.0333,-3.0973,0.0,-3.0986,-3.0986,-3.0986,-3.0986,-3.0986,-3.0986,-3.1614,-3.2685,-3.2685,-3.3339,-3.4397,-3.4397,-3.4397,-3.4397,-3.4397,-3.4397,-3.4397,-3.4397,-3.4724,-3.526,0.0,0.0,0.0,0.0,0.0,-2.9839,-3.0884,-3.0856,-3.1091,-3.2241,-3.3391,-3.4097,-3.4097,-3.428,-3.4358,-3.4267,-3.4254,0.0,0.0,0.0,0.0,-3.3143,-3.2267,-3.1719,-3.151,-2.9035,-2.6804,0.0,-2.2286,-2.0057,-1.8292,0.0,0.0,0.0,0.0,0.0,-2.5651,-2.7564,0.0,-3.0843,-3.0947,-3.0986,-3.0986,-3.0986,-3.0986,-3.0986,-3.0986,-3.0986,-3.0986,-3.0986,-3.0986,-3.0986,-3.0986,-3.0986,-3.0986,-3.0986,-3.0986,-3.0986,-3.0986,-3.0986,-3.0986,-3.0986,-3.0986,-3.0934,-3.0738,-3.0723,-3.076,-3.0723,-3.0627,-3.0434,-2.9988,0.0,0.0,0.0,0.0,0.0,0.0,0.0,0.0,0.0,0.0,0.0,0.0,0.0,-2.0607,0.0,0.0,0.0,0.0,0.0,0.0,0.0,-2.8765,0.0,0.0,0.0,-3.0986,-3.0986,-3.0986,-3.0986,-3.0986,-3.0986,-3.1614,-3.2685,-3.2685,-3.3339,-3.4397,-3.4397,-3.4397,-3.4397,-3.4397,-3.4397,-3.4397,-3.4397,-3.4463,-3.4633,0.0,0.0,0.0,0.0,0.0,0.0,0.0,-3.343,0.0,-3.3208,-3.3888,-3.4293,-3.4018,-3.4502,-3.4737,-3.4424,-3.4397,-3.4397,-3.4397,-3.4162,-3.3888,-3.36,-3.3051,0.0,-3.181,-3.0189,-2.8177,-2.5882,-2.3278,-2.0949,-1.8963,-1.7761,0.0,0.0,0.0,-2.3063,0.0,0.0,0.0,-3.0568,-3.0869,-3.0986,-3.0986,-3.0986,-3.0986,-3.0986,-3.0986,-3.0986,-3.0986,-3.0986,-3.0986,-3.0986,-3.0986,-3.0986,-3.0986,-3.0986,-3.0986,-3.0986,-3.0986,-3.0986,-3.0986,-3.0986,-3.0986,-3.0986,-3.0986,-3.0986,-3.0986,-3.0986,-3.0986,-3.0745,-2.9861,-2.8645,0.0,0.0,0.0,0.0,0.0,0.0,0.0,0.0,0.0,0.0,0.0,0.0,0.0,0.0,0.0,0.0,0.0,0.0,0.0,0.0,0.0,0.0,0.0,0.0,0.0,-3.0986,-3.0986,-3.0986,-3.0986,-3.0986,-3.1444,-3.2267,-3.2555,-3.3182,-3.4005,-3.428,-3.4397,-3.4397,-3.4397,-3.4397,-3.4397,-3.4397,-3.4397,-3.4489,0.0,-2.9915,0.0,0.0,-3.279,0.0,-3.445,-3.5561,-3.577,-3.4319,-3.4502,-3.4593,-3.4175,-3.4933,-3.5273,-3.4803,-3.4659,-3.458,-3.458,-3.4463,-3.4201,-3.3783,-3.3652,-3.3156,-3.2189,-3.1405,-2.9729,0.0,-2.4726,0.0,0.0,-1.8636,-1.8388,-1.9316,0.0,0.0,0.0,0.0,-2.968,-3.0309,-3.0803,-3.0986,-3.0986,-3.0986,-3.0986,-3.0986,-3.0986,-3.0986,-3.0986,-3.0986,-3.0986,-3.0986,-3.0986,-3.0986,-3.0986,-3.0986,-3.0986,-3.0986,-3.0986,-3.0986,-3.0986,-3.0986,-3.0986,-3.0986,-3.0986,-3.0986,-3.0986,-3.0986,-3.0986,-3.0708,-2.9804,-2.908,0.0,0.0,0.0,0.0,0.0,0.0,0.0,0.0,0.0,0.0,0.0,0.0,0.0,0.0,0.0,0.0,0.0,0.0,0.0,0.0,0.0,-2.8582,-2.9709,0.0,-3.0986,-3.0986,-3.0986,-3.0986,-3.0986,-3.0986,-3.13,-3.1836,-3.245,-3.3104,-3.3796,-3.4228,-3.4397,-3.4397,-3.4397,-3.4397,-3.4397,-3.4397,-3.4397,-3.4463,0.0,0.0,0.0,0.0,0.0,0.0,-3.5195,-3.6188,-3.6671,-3.5966,-3.5913,-3.5926,-3.5874,-3.5966,-3.6005,-3.5953,-3.5495,-3.5221,-3.5221,-3.4698,-3.4371,-3.4332,-3.3849,-3.3535,-3.343,-3.1823,-3.0072,0.0,0.0,-2.3616,0.0,-2.0674,-2.1223,-2.2765,0.0,0.0,0.0,-2.8948,-2.9951,-3.0908,-3.096,-3.0986,-3.0986,-3.0986,-3.0986,-3.0986,-3.0986,-3.0986,-3.0986,-3.0986,-3.0986,-3.0986,-3.0986,-3.0986,-3.0986,-3.0986,-3.0986,-3.0986,-3.0986,-3.0986,-3.0986,-3.0986,-3.0986,-3.0986,-3.0986,-3.0986,-3.0986,-3.0986,-3.0986,-3.0671,-2.9519,-3.0105,-2.9856,0.0,0.0,0.0,0.0,0.0,0.0,0.0,0.0,0.0,0.0,0.0,0.0,0.0,0.0,0.0,0.0,0.0,0.0,-2.5009,0.0,-2.7413,-2.8564,-3.0163,-3.0986,-3.0986,-3.0986,-3.0986,-3.0986,-3.0986,-3.13,-3.1836,-3.245,-3.3313,-3.4332,-3.4384,-3.4397,-3.4397,-3.4397,-3.4397,-3.4397,-3.4397,-3.4397,-3.441,0.0,0.0,0.0,0.0,0.0,0.0,0.0,-3.7246,-3.7456,-3.722,-3.7181,-3.705,-3.6684,-3.6645,-3.6502,-3.6136,-3.59,-3.5783,-3.5783,-3.5247,-3.4933,-3.4933,-3.4384,-3.3927,-3.36,-3.2908,-3.1522,0.0,0.0,0.0,0.0,-2.3001,-2.3459,-2.4814,0.0,-2.7915,-2.9497,-3.0424,-3.1274,-3.2006,-3.2006,-3.2006,-3.2006,-3.2006,-3.2006,-3.2006,-3.2006,-3.2006,-3.2006,-3.2006,-3.1548,-3.0986,-3.0986,-3.0986,-3.0986,-3.0986,-3.0986,-3.0986,-3.0986,-3.0986,-3.0986,-3.0986,-3.0986,-3.0986,-3.0986,-3.0986,-3.0986,-3.0986,-3.0986,-3.0843,-3.0385,-3.0111,-2.9693,0.0,0.0,0.0,0.0,0.0,0.0,0.0,0.0,0.0,0.0,0.0,0.0,0.0,0.0,-1.9187,-2.021,0.0,0.0,-2.3396,0.0,-2.7406,-2.7863,-2.9941,-3.0986,-3.0986,-3.0986,-3.0986,-3.0986,-3.0986,-3.1483,-3.2359,-3.2594,-3.3339,-3.4397,-3.4397,-3.4397,-3.4397,-3.4397,-3.4397,-3.4397,-3.4397,-3.4397,-3.4397,-3.4503,0.0,-3.4816,0.0,-3.6319,-3.6488,-3.7717,-3.79,-3.79,-3.79,-3.79,-3.7743,-3.7312,-3.726,-3.709,-3.6671,-3.6475,-3.6358,-3.6358,-3.5848,-3.5534,-3.5534,-3.4972,0.0,-3.411,-3.3757,-3.279,-3.1119,-2.981,0.0,0.0,-2.5641,-2.6073,0.0,-2.8778,-2.9954,-3.0897,-3.1706,-3.2319,-3.2685,-3.2685,-3.2685,-3.2685,-3.2685,-3.2685,-3.2685,-3.2685,-3.2685,-3.2685,-3.2685,-3.215,-3.1483,-3.1483,-3.1378,-3.1235,-3.1235,-3.1117,-3.0986,-3.0986,-3.0986,-3.0986,-3.0986,-3.0986,-3.0986,-3.0986,-3.0986,-3.0986,-3.0986,-3.0986,-3.0986,-3.0986,-3.0333,-2.9693,-2.9382,0.0,0.0,0.0,0.0,0.0,0.0,-2.2557,-2.117,-2.0938,0.0,0.0,0.0,0.0,-1.9831,-2.0392,0.0,0.0,0.0,0.0,0.0,0.0,-2.9915,-3.0986,-3.0986,-3.0986,-3.0986,-3.0986,-3.0986,-3.1614,-3.2685,-3.2685,-3.3339,-3.4397,-3.4397,-3.4397,-3.4397,-3.4397,-3.4397,-3.4397,-3.4397,-3.4397,-3.4397,-3.4774,-3.5556,-3.6449,-3.7678,-3.7874,-3.7874,-3.79,-3.79,-3.79,-3.79,-3.79,-3.79,-3.79,-3.79,-3.7887,-3.7887,-3.7338,-3.6998,-3.6998,-3.6423,-3.6096,0.0,0.0,-3.5286,-3.5273,-3.4175,-3.3574,-3.3548,0.0,0.0,-2.9209,-2.8643,-2.9261,-3.0947,-3.1497,-3.2084,-3.2659,-3.2672,-3.2685,-3.2685,-3.2685,-3.2685,-3.2685,-3.2685,-3.2685,-3.2685,-3.2685,-3.2685,-3.2685,-3.2685,-3.2685,-3.2672,-3.2672,-3.228,-3.1797,-3.1797,-3.1431,-3.0986,-3.0986,-3.0986,-3.0986,-3.0986,-3.0986,-3.0986,-3.0986,-3.0986,-3.0986,-3.0986,-3.0986,-3.0986,-3.0986,-3.0973,-3.0215,-2.7894,0.0,0.0,0.0,0.0,0.0,0.0,-2.1747,-2.0712,-2.0699,0.0,0.0,0.0,0.0,-2.2422,-2.3014,0.0,0.0,-2.4874,-2.6621,0.0,-2.8394,-3.0147,-3.0986,-3.0986,-3.0986,-3.0986,-3.0986,-3.0986,-3.1614,-3.2685,-3.2685,-3.3339,-3.4397,-3.4397,-3.4397,-3.4397,-3.4397,-3.4397,-3.4397,-3.4397,-3.4397,-3.4397,-3.5323,-3.5991,-3.6742,-3.7544,-3.7811,-3.8031,-3.8397,-3.8135,-3.79,-3.79,-3.79,-3.79,-3.79,-3.79,-3.79,0.0,-3.773,-3.7612,0.0,-3.705,-3.6711,-3.6711,-3.6162,-3.5848,-3.5848,-3.5129,-3.4554,-3.4136,0.0,0.0,0.0,-3.1013,-3.1248,-3.215,-3.2346,-3.2751,-3.33,-3.33,-3.3522,-3.3807,-3.3366,-3.32,-3.3117,-3.2617,-3.2756,-3.3117,-3.2617,-3.2756,-3.3104,-3.2617,-3.2436,-3.2436,-3.2436,-3.2439,-3.2411,-3.2411,-3.2019,-3.1536,-3.1536,-3.1287,-3.0986,-3.0986,-3.0986,-3.0986,-3.0986,-3.0986,-3.0986,-3.0986,-3.0986,-3.0986,-3.0986,-3.0986,-3.049,-2.8974,-2.9039,0.0,0.0,0.0,0.0,0.0,-2.3223,-2.24,0.0,-2.2297,0.0,0.0,0.0,0.0,0.0,0.0,0.0,0.0,-2.6987,0.0,-2.842,-3.0111,-3.0986,-3.0986,-3.0986,-3.0986,-3.0999,-3.1392,-3.198,-3.2712,-3.3117,-3.3731,-3.4397,-3.4397,-3.4397,-3.4397,-3.4397,-3.4397,-3.4397,-3.4397,-3.4397,-3.4397,-3.5733,-3.6562,-3.7301,-3.74,-3.7789,-3.8161,-3.8497,-3.8265,-3.8152,-3.8494,-3.854,-3.854,-3.854,-3.8344,0.0,-3.7926,-3.79,-3.79,-3.79,-3.7547,-3.7351,-3.7351,-3.6763,-3.6449,-3.6449,-3.5887,0.0,-3.5038,-3.4267,-3.3705,-3.3326,-3.2764,-3.2803,-3.3326,-3.3326,-3.3548,-3.3888,-3.3654,-3.371,-3.3979,-3.3245,-3.2988,-3.2945,-3.2488,-3.2575,-3.2945,-3.2488,-3.2575,-3.2945,-3.2444,-3.2302,-3.2302,-3.2302,-3.2401,-3.2488,-3.2296,-3.201,-3.1719,-3.15,-3.1383,-3.1261,-3.1039,-3.0986,-3.0986,-3.0986,-3.0986,-3.0986,-3.0986,-3.0986,-3.0986,-3.0986,-3.0986,-3.0644,-2.9506,-2.931,-2.8595,-2.6634,0.0,0.0,0.0,0.0,0.0,0.0,-2.3913,-2.3961,0.0,0.0,0.0,0.0,0.0,0.0,-2.5145,-2.8046,0.0,-2.9401,-3.0474,-3.0986,-3.0986,-3.0986,-3.0986,-3.0999,-3.1536,-3.2111,-3.2725,-3.3326,-3.3901,-3.4397,-3.4397,-3.4397,-3.4397,-3.4397,-3.4397,-3.4397,-3.4397,-3.4397,-3.4397,-3.5801,-3.7069,0.0,0.0,-3.7705,0.0,-3.8287,-3.831,-3.8592,-3.9407,-3.9564,-3.9612,-3.9612,-3.9102,-3.8566,-3.807,0.0,0.0,0.0,-3.79,-3.79,-3.79,-3.7364,-3.7063,-3.7063,-3.6475,-3.6105,-3.6009,-3.4953,-3.4431,-3.4334,-3.3788,-3.3856,-3.4324,-3.4285,-3.4259,-3.4217,-3.3598,-3.3313,-3.3258,-3.2531,-3.2215,-3.2227,-3.2171,-3.2171,-3.2227,-3.2171,-3.2171,-3.2227,-3.2183,-3.2127,-3.2127,-3.2127,-3.2127,-3.2085,-3.1651,-3.161,-3.1552,-3.1008,-3.1278,-3.1603,-3.1069,-3.0937,-3.0949,-3.0949,-3.0986,-3.0986,-3.0949,-3.0949,-3.0949,-3.0949,-3.0949,-3.057,-2.947,-2.9284,-2.8425,-2.6106,0.0,0.0,0.0,0.0,0.0,0.0,-2.5323,-2.5923,0.0,0.0,0.0,0.0,0.0,-2.5654,-2.8394,-2.9588,-3.0451,-3.0973,-3.0986,-3.0986,-3.0986,-3.0986,-3.0986,-3.0999,-3.1588,-3.215,-3.2725,-3.3365,-3.3927,-3.4397,-3.4397,-3.4397,-3.4397,-3.4397,-3.4397,-3.4397,-3.4397,-3.4397,-3.4397,0.0,0.0,-3.6546,-3.6812,-3.7161,-3.753,-3.7938,-3.8154,-3.8383,-3.8579,-3.9201,-3.9612,-3.9612,-3.9481,-3.9351,-3.922,-3.841,-3.79,-3.79,-3.79,-3.79,-3.79,-3.7769,-3.7691,-3.7691,-3.7103,-3.63,-3.5271,-3.5015,-3.4553,-3.3936,-3.347,-3.3283,-3.3383,-3.2978,-3.2791,-3.2791,-3.2618,-3.2575,-3.2488,-3.1813,-3.156,-3.1472,-3.0925,-3.1059,-3.146,-3.0925,-3.1059,-3.146,-3.088,-3.0701,-3.0701,-3.0701,-3.0701,-3.089,-3.1807,-3.1846,-3.1499,-3.1363,-3.1088,-3.0764,-3.0269,-3.0211,-3.0241,-3.0241,-3.0621,-3.0861,-3.0355,-3.0241,-3.0241,-3.0241,-3.0241,-3.0021,-2.9386,-2.893,-2.7941,-2.6054,-2.5793,0.0,0.0,-2.6158,-2.6694,-2.6694,-2.7366,-2.7223,0.0,0.0,0.0,0.0,-2.7196,-2.7923,-2.9061,-3.0176,-3.0856,-3.0986,-3.0986,-3.0986,-3.0986,-3.0986,-3.0986,-3.1013,-3.2032,-3.2555,-3.2751,-3.377,-3.428,-3.4397,-3.4397,-3.4397,-3.4397,-3.4397,-3.4397,-3.4397,-3.4397,-3.4397,-3.4397,-3.5035,-3.5905,-3.6606,-3.6596,-3.6987,-3.7399,-3.7678,-3.7834,-3.8212,-3.8994,-3.9519,-3.999,-4.0334,-4.0135,-3.9978,-3.9978,-3.8932,-3.8279,-3.8279,-3.8044,-3.79,-3.79,-3.79,-3.79,-3.79,-3.724,-3.6228,-3.4836,-3.4836,-3.4516,-3.3787,-3.3551,-3.3428,-3.3404,-3.3097,-3.3007,-3.2962,-3.2661,-3.2381,-3.2107,-3.1437,-3.1037,-3.0758,-3.0352,-3.0442,-3.0758,-3.0352,-3.0442,-3.0758,-3.0352,-3.0216,-3.0216,-3.0216,-3.0216,-3.0352,-3.1137,-3.1388,-3.1342,-3.1088,-3.1022,-3.0817,-3.0086,-2.9948,-2.9886,-2.9624,-2.9871,-3.0037,-2.9678,-2.96,-2.96,-2.96,-2.963,-2.9376,-2.8592,-2.8421,-2.7785,-2.6059,-2.6237,0.0,-2.6576,-2.7379,-2.802,-2.8307,-2.8843,-2.8686,-2.7497,-2.8177,0.0,-2.8268,-2.9091,-2.9601,-2.9666,-3.0529,-3.0986,-3.0986,-3.0986,-3.0986,-3.0986,-3.0986,-3.0986,-3.1026,-3.2176,-3.2685,-3.2751,-3.3901,-3.4397,-3.4397,-3.4397,-3.4397,-3.4397,-3.4397,-3.4397,-3.4397,-3.4397,-3.4397,-3.4397,-3.5367,-3.6449,-3.7096,-3.6429,-3.6839,-3.7311,-3.7311,-3.7406,-3.8043,-3.948,-3.9801,-4.0173,-4.0846,-4.0493,-4.0132,-4.0132,-3.9332,-3.8739,-3.8723,-3.8186,-3.7794,-3.7703,-3.7703,-3.7657,-3.7564,-3.6862,-3.5918,-3.4647,-3.4647,-3.4322,-3.372,-3.3635,-3.3586,-3.3586,-3.3514,-3.3477,-3.3477,-3.291,-3.237,-3.1899,-3.1344,-3.0859,-3.0445,-3.0445,-3.0445,-3.0445,-3.0445,-3.0445,-3.0434,-3.0365,-3.0342,-3.0331,-3.025,-3.0216,-3.0216,-3.0216,-3.0623,-3.1021,-3.0516,-3.0786,-3.0992,-3.008,-2.9809,-2.9646,-2.9157,-2.9104,-2.9081,-2.8964,-2.8964,-2.8964,-2.8964,-2.8921,-2.8623,-2.7657,-2.7776,-2.7478,-2.5888,0.0,-2.7281,-2.7338,-2.8057,-2.8764,-2.9363,-2.9829,-2.9931,-2.9562,-3.0359,-3.0686,-3.0244,-3.0725,-3.0764,-3.0244,-3.0725,-3.0986,-3.0986,-3.0986,-3.0986,-3.0986,-3.0986,-3.1026,-3.1156,-3.2215,-3.2738,-3.2881,-3.394,-3.4397,-3.4397,-3.4397,-3.4397,-3.4397,-3.4397,-3.4397,-3.4397,-3.4397,-3.4397,-3.4397,-3.5323,-3.5982,-3.6429,-3.632,-3.6429,-3.6472,-3.6472,-3.7042,-3.7619,-3.7885,-3.853,-3.9065,-3.9156,-3.9082,-3.9032,-3.9032,-3.9108,-3.8989,-3.8729,-3.8041,-3.7406,-3.6934,-3.6909,-3.6581,-3.5953,-3.581,-3.533,-3.4461,-3.4461,-3.4097,-3.3375,-3.2911,-3.269,-3.2679,-3.2273,-3.2134,-3.2075,-3.2004,-3.191,-3.1829,-3.1698,-3.1652,-3.1572,-3.1572,-3.1513,-3.1454,-3.1513,-3.1572,-3.1467,-3.1031,-3.0893,-3.0813,-3.0354,-3.0216,-3.0216,-3.0216,-3.0261,-3.0329,-3.0248,-3.0026,-2.9755,-2.9593,-2.931,-2.9027,-2.8944,-2.9015,-2.8976,-2.8435,-2.8327,-2.8327,-2.8327,-2.7975,-2.7648,-2.7515,-2.6819,-2.6036,-2.5229,0.0,-2.6243,-2.6678,-2.8131,-2.9273,-2.9846,-3.0014,-3.0257,-3.0686,-3.0438,-3.0438,-3.083,-3.0934,-3.0947,-3.0856,-3.0934,-3.0986,-3.0986,-3.0986,-3.0986,-3.0986,-3.0986,-3.1248,-3.1693,-3.2398,-3.2973,-3.3483,-3.4123,-3.4397,-3.4397,-3.4397,-3.4397,-3.4397,-3.4397,-3.4397,-3.4397,-3.4397,-3.4397,-3.4397,-3.4814,-3.5312,-3.5763,-3.6211,-3.632,-3.632,-3.632,-3.6634,-3.7,-3.7459,-3.7832,-3.8255,-3.8739,-3.8792,-3.8792,-3.8792,-3.8921,-3.8805,-3.8288,-3.7828,-3.7276,-3.6497,-3.6258,-3.5763,-3.4981,-3.4969,-3.4605,-3.3793,-3.3793,-3.3656,-3.3281,-3.3028,-3.2914,-3.2902,-3.2684,-3.263,-3.263,-3.263,-3.242,-3.2204,-3.2204,-3.2043,-3.1813,-3.1813,-3.1766,-3.1754,-3.1813,-3.1813,-3.1779,-3.149,-3.1237,-3.0973,-3.0721,-3.0445,-3.0216,-3.0216,-3.0216,-3.0216,-3.0216,-3.0055,-2.9825,-2.9561,-2.9135,-2.8729,-2.8472,-2.8251,-2.8007,-2.7696,-2.7667,-2.7667,-2.7667,-2.7502,-2.7236,-2.6943,-2.6797,0.0,0.0,-2.6536,-2.7189,-2.7434,-2.8461,-2.9363,-2.9935,-3.0036,-3.0312,-3.096,-3.0738,-3.0712,-3.0973,-3.0986,-3.0986,-3.0986,-3.0986,-3.0986,-3.0986,-3.0986,-3.0986,-3.0986,-3.0986,-3.1287,-3.1823,-3.2424,-3.3025,-3.3626,-3.4162,-3.4397,-3.4397,-3.4397,-3.4397,-3.4397,-3.4397,-3.4397,-3.4397,-3.4397,-3.4397,-3.4397,-3.4368,-3.4869,-3.5422,-3.6157,-3.632,-3.632,-3.632,-3.632,-3.6538,-3.715,-3.7203,-3.7471,-3.8161,-3.8214,-3.8214,-3.8214,-3.8372,-3.8202,-3.7581,-3.748,-3.7035,-3.6221,-3.56,-3.4968,-3.4385,-3.425,-3.388,-3.3281,-3.3281,-3.3281,-3.3281,-3.3281,-3.3281,-3.3281,-3.3281,-3.3281,-3.3281,-3.3281,-3.304,-3.2673,-3.2673,-3.2454,-3.217,-3.217,-3.217,-3.217,-3.217,-3.217,-3.2147,-3.202,-3.1674,-3.1341,-3.1226,-3.0824,-3.0399,-3.0399,-3.0308,-3.0216,-3.0216,-3.0216,-3.0124,-2.9757,-2.9274,-2.8758,-2.8264,-2.7759,-2.7328,-2.7213,-2.719,-2.719,-2.719,-2.7144,-2.6971,-2.6491,0.0,0.0,0.0,-2.7158,-2.7796,-2.7796,-2.8451,-2.9055,-2.9535,-2.9845,-3.019,-3.071,-3.0911,-3.0986,-3.0986,-3.0986,-3.0986,-3.0986,-3.0986,-3.0986,-3.0986,-3.0986,-3.0986,-3.0986,-3.0986,-3.1352,-3.2006,-3.2489,-3.3091,-3.3809,-3.4214,-3.4397,-3.4397,-3.4397,-3.4397,-3.4397,-3.4397,-3.4397,-3.4397,-3.4397,-3.4397,-3.4397,-3.4368,-3.498,-3.5598,-3.6211,-3.632,-3.632,-3.632,-3.632,-3.632,-3.6375,-3.6375,-3.6429,-3.6483,-3.6483,-3.6483,-3.6483,-3.715,-3.7245,-3.648,-3.6702,-3.6586,-3.597,-3.4762,-3.421,-3.4397,-3.3744,-3.3331,-3.3281,-3.3281,-3.3281,-3.3281,-3.3281,-3.3281,-3.3281,-3.3281,-3.3281,-3.3281,-3.3281,-3.3258,-3.3224,-3.3224,-3.3201,-3.3178,-3.3178,-3.3178,-3.3178,-3.3178,-3.3178,-3.3097,-3.2604,-3.2408,-3.2294,-3.1905,-3.1364,-3.0962,-3.0962,-3.0606,-3.0216,-3.0216,-3.0216,-3.0204,-3.017,-2.9802,-2.9297,-2.8769,-2.8276,-2.7793,-2.7282,-2.719,-2.719,-2.719,-2.6846,-2.6526,-2.6415,0.0,0.0,-2.5774,-2.627,-2.662,-2.662,-2.762,-2.8287,-2.8327,-2.9341,-3.0037,-3.0075,-3.0672,-3.0986,-3.0986,-3.0986,-3.0986,-3.0986,-3.0986,-3.0986,-3.0986,-3.0986,-3.0986,-3.0986,-3.0986,-3.1561,-3.2633,-3.2672,-3.33,-3.4345,-3.4384,-3.4397,-3.4397,-3.4397,-3.4397,-3.4397,-3.4397,-3.4397,-3.4397,-3.4397,-3.4397,-3.4397,-3.384,-3.4211,-3.4758,-3.5598,-3.5653,-3.5708,-3.6211,-3.632,-3.632,-3.632,-3.632,-3.632,-3.632,-3.632,-3.632,-3.632,-3.658,-3.6634,-3.632,-3.6406,-3.6091,-3.5276,-3.4434,-3.4053,-3.4148,-3.3569,-3.3281,-3.3281,-3.3281,-3.3281,-3.3281,-3.3281,-3.3281,-3.3281,-3.3281,-3.3281,-3.3281,-3.3281,-3.3281,-3.3281,-3.3281,-3.3281,-3.3281,-3.3281,-3.3281,-3.3281,-3.3281,-3.3281,-3.3258,-3.3051,-3.2764,-3.2454,-3.2271,-3.1869,-3.1421,-3.1111,-3.087,-3.0641,-3.0308,-3.0216,-3.0216,-3.0216,-2.986,-2.9447,-2.924,-2.8792,-2.8287,-2.7793,-2.7702,-2.7598,-2.7247,-2.707,-2.6915,-2.6908,0.0,-2.6616,-2.6618,-2.6811,-2.6932,-2.6932,-2.7308,-2.7748,-2.8179,-2.8593,-2.9028,-2.9406,-2.9678,-2.9999,-3.0355,-3.0785,-3.0823,-3.0394,-3.0394,-3.0596,-3.0986,-3.0986,-3.0986,-3.0986,-3.0986,-3.1588,-3.2685,-3.2685,-3.3313,-3.4397,-3.4397,-3.4397,-3.4397,-3.4397,-3.4397,-3.4397,-3.4397,-3.4397,-3.4397,-3.4397,-3.4397,-3.4397,-3.3455,-3.3727,-3.4099,-3.498,-3.498,-3.5146,-3.5872,-3.6048,-3.6102,-3.6277,-3.632,-3.632,-3.632,-3.632,-3.6211,-3.6048,-3.6211,-3.6211,-3.6048,-3.6048,-3.5737,-3.506,-3.467,-3.4326,-3.4004,-3.3671,-3.343,-3.3281,-3.3281,-3.3281,-3.3281,-3.3281,-3.3281,-3.3281,-3.3281,-3.3281,-3.3281,-3.3281,-3.3281,-3.3281,-3.3119,-3.3119,-3.3281,-3.3069,-3.3119,-3.3281,-3.3281,-3.3281,-3.3281,-3.3069,-3.2769,-3.2412,-3.2275,-3.1995,-3.1652,-3.1115,-3.0994,-3.0939,-3.056,-3.0342,-3.0216,-3.0216,-2.9963,-2.9688,-2.9527,-2.9217,-2.8804,-2.831,-2.8092,-2.7874,-2.7529,-2.7293,-2.719,-2.719,-2.719,-2.719,-2.719,-2.719,-2.719,-2.719,-2.7056,-2.7208,-2.7817,-2.7926,-2.8195,-2.8779,-2.8976,-2.9277,-2.9678,-3.0152,-3.019,-2.9716,-2.9716,-2.996,-3.0394,-3.0394,-3.0394,-3.0394,-3.0394,-3.0984,-3.2061,-3.2061,-3.2677,-3.3742,-3.3742,-3.3882,-3.4063,-3.3839,-3.4008,-3.4356,-3.3911,-3.4008,-3.4356,-3.4147,-3.423,-3.4397,-3.3455,-3.3568,-3.3784,-3.4368,-3.448,-3.4703,-3.5323,-3.5367,-3.5598,-3.6211,-3.6266,-3.6266,-3.6266,-3.6266,-3.6048,-3.5433,-3.5938,-3.6048,-3.5433,-3.5367,-3.5438,-3.5489,-3.5466,-3.5049,-3.4039,-3.4004,-3.3775,-3.3292,-3.3281,-3.3281,-3.3281,-3.3281,-3.3281,-3.3281,-3.3281,-3.3281,-3.3281,-3.3281,-3.3281,-3.3231,-3.2633,-3.2745,-3.3231,-3.2633,-3.2796,-3.3281,-3.3281,-3.3281,-3.3181,-3.2583,-3.2409,-3.2308,-3.1772,-3.1655,-3.1576,-3.1084,-3.0936,-3.0973,-3.0973,-3.0583,-3.017,-3.0216,-3.0216,-3.0089,-2.9607,-2.9504,-2.9355,-2.8815,-2.8322,-2.7989,-2.7989,-2.7575,-2.7201,-2.7201,-2.719,-2.719,-2.719,-2.719,-2.719,-2.719,-2.6787,-2.6663,-2.7138,-2.7389,-2.7689,-2.8127,-2.874,-2.9081,-2.9081,-2.9081,-2.9081,-2.9081,-2.9081,-2.9081,-2.9081,-2.9081,-2.9081,-2.9081,-2.9081,-2.9659,-3.0692,-3.0704,-3.1294,-3.2302,-3.2302,-3.2717,-3.3356,-3.2575,-3.3134,-3.4217,-3.2834,-3.3134,-3.4314,-3.3654,-3.381,-3.4397,-3.2955,-3.2955,-3.3182,-3.3784,-3.3896,-3.4054,-3.4703,-3.4758,-3.4814,-3.5035,-3.5035,-3.5035,-3.5035,-3.5035,-3.498,-3.4758,-3.4925,-3.498,-3.4758,-3.4758,-3.4803,-3.477,-3.4437,-3.4278,-3.4426,-3.3727,-3.3515,-3.3786,-3.3453,-3.3281,-3.3281,-3.3281,-3.3281,-3.3281,-3.3281,-3.3281,-3.3281,-3.2846,-3.2684,-3.2633,-3.2471,-3.2269,-3.2139,-3.2319,-3.2269,-3.2088,-3.2088,-3.2088,-3.2088,-3.1874,-3.1823,-3.1823,-3.1669,-3.1622,-3.1627,-3.1488,-3.1183,-3.0867,-3.0521,-3.0066,-2.9724,-3.0125,-3.0216,-3.0181,-3.0032,-2.9998,-2.986,-2.9355,-2.9148,-2.893,-2.8551,-2.808,-2.7759,-2.7759,-2.7461,-2.7097,-2.6745,-2.6704,-2.658,-2.6313,-2.6146,-2.6135,-2.6271,-2.6343,-2.6528,-2.6981,-2.7914,-2.8303,-2.7988,-2.8676,-2.8897,-2.8474,-2.8474,-2.8247,-2.7765,-2.8661,-2.9081,-2.9081,-2.9487,-3.004,-3.0704,-3.1068,-3.162,-3.2302,-3.2302,-3.2444,-3.2618,-3.2389,-3.2575,-3.2877,-3.2476,-3.2562,-3.2907,-3.2704,-3.2747,-3.292,-3.2669,-3.2669,-3.2841,-3.3182,-3.3239,-3.3455,-3.4043,-3.4155,-3.4211,-3.448,-3.448,-3.448,-3.448,-3.448,-3.4424,-3.4155,-3.4155,-3.4155,-3.4155,-3.4155,-3.4054,-3.3829,-3.3495,-3.3581,-3.4206,-3.3673,-3.3443,-3.3578,-3.3146,-3.2909,-3.2898,-3.2696,-3.2757,-3.2946,-3.2706,-3.2757,-3.2908,-3.2331,-3.2066,-3.2066,-3.1852,-3.171,-3.1618,-3.171,-3.171,-3.1618,-3.1618,-3.1618,-3.1567,-3.1362,-3.1157,-3.0961,-3.0961,-3.1116,-3.1308,-3.1319,-3.1151,-3.0816,-3.0528,-2.9943,-2.9474,-2.9786,-2.9896,-2.9943,-2.9943,-3.008,-3.0135,-2.9848,-2.9441,-2.9068,-2.8761,-2.8155,-2.7698,-2.7698,-2.7408,-2.7054,-2.6612,-2.6537,-2.6398,-2.5959,-2.5728,-2.5686,-2.5895,-2.5728,-2.5801,-2.6249,-2.691,-2.7237,-2.711,-2.7718,-2.7983,-2.7817,-2.8017,-2.7825,-2.719,-2.8356,-2.8858,-2.8666,-2.9001,-2.954,-3.0247,-3.0539,-3.097,-3.148,-3.148,-3.1613,-3.1889,-3.1569,-3.1789,-3.2258,-3.1701,-3.1833,-3.2271,-3.2021,-3.2052,-3.2302,-3.2669,-3.2669,-3.2669,-3.2669,-3.2669,-3.2898,-3.3466,-3.3512,-3.3727,-3.4256,-3.4312,-3.4312,-3.4312,-3.4312,-3.4099,-3.3568,-3.3512,-3.3512,-3.3512,-3.3512,-3.3296,-3.2727,-3.2669,-3.2972,-3.3627,-3.3628,-3.3454,-3.3029,-3.2603,-3.2363,-3.2352,-3.1916,-3.1984,-3.2386,-3.1889,-3.1907,-3.2308,-3.1772,-3.1516,-3.1465,-3.1002,-3.1054,-3.1424,-3.095,-3.1054,-3.1476,-3.1476,-3.1476,-3.1362,-3.0899,-3.0391,-2.9994,-2.9994,-3.0349,-3.0744,-3.0785,-3.0794,-3.0802,-3.0808,-3.0106,-2.9363,-2.9287,-2.9363,-2.9449,-2.9451,-2.976,-3.008,-3.008,-2.9353,-2.8678,-2.8678,-2.791,-2.7259,-2.7259,-2.7216,-2.7053,-2.6661,-2.6606,-2.6443,-2.5954,-2.5508,-2.5359,-2.5793,-2.5444,-2.5369,-2.5728,-2.5853,-2.6052,-2.6362,-2.649,-2.6772,-2.7218,-2.774,-2.7828,-2.7328,-2.8253,-2.8459,-2.7977,-2.8069,-2.8597,-2.9504,-2.9538,-2.9802,-3.0216,-3.0216,-3.0578,-3.1172,-3.0487,-3.0958,-3.1952,-3.0689,-3.1003,-3.2052,-3.1427,-3.1593,-3.2127,-3.2669,-3.2669,-3.2669,-3.2669,-3.2669,-3.2727,-3.2898,-3.2898,-3.2955,-3.3058,-3.3115,-3.3115,-3.3115,-3.3115,-3.3058,-3.2898,-3.2898,-3.2898,-3.2898,-3.2898,-3.2841,-3.2737,-3.2669,-3.2789,-3.2912,-3.2992,-3.3234,-3.3563,-3.3094,-3.2865,-3.2865,-3.2767,-3.2558,-3.2301,-3.2186,-3.203,-3.1721,-3.1197,-3.0991,-3.094,-3.0836,-3.0599,-3.0401,-3.0692,-3.0588,-3.0349,-3.0349,-3.0349,-3.0349,-3.0193,-3.0099,-2.9994,-2.9994,-3.0099,-3.0245,-3.0692,-3.0525,-3.0222,-3.024,-2.9793,-2.9126,-2.8394,-2.8567,-2.8873,-2.8858,-2.8956,-2.9048,-2.9048,-2.8833,-2.871,-2.871,-2.8235,-2.7827,-2.7827,-2.7455,-2.7084,-2.6654,-2.6599,-2.6423,-2.5952,-2.5505,-2.5253,-2.534,-2.5252,-2.5073,-2.4839,-2.5475,-2.577,-2.5496,-2.6508,-2.7153,-2.7271,-2.8117,-2.8494,-2.8379,-2.8586,-2.8459,-2.7989,-2.8792,-2.9286,-2.9515,-2.9883,-3.0112,-3.0216,-3.0216,-3.0306,-3.0442,-3.0261,-3.0385,-3.0611,-3.0295,-3.0397,-3.0656,-3.0487,-3.0521,-3.0656,-3.2669,-3.2669,-3.2669,-3.2669,-3.2669,-3.2669,-3.2669,-3.2669,-3.2669,-3.2669,-3.2669,-3.2669,-3.2669,-3.2669,-3.2669,-3.2669,-3.2669,-3.2669,-3.2669,-3.2669,-3.2669,-3.2669,-3.2669,-3.2669,-3.2669,-3.2772,-3.2917,-3.3242,-3.2774,-3.2496,-3.2496,-3.2338,-3.2255,-3.2211,-3.1955,-3.1742,-3.1501,-3.0989,-3.059,-3.0443,-3.0443,-3.0245,-3.0047,-3.0297,-3.0245,-2.9994,-2.9994,-2.9994,-2.9994,-2.9994,-2.9994,-2.9994,-2.9994,-2.9994,-3.0047,-3.0349,-3.0193,-2.9995,-3.0046,-2.9661,-2.9187,-2.87,-2.8609,-2.8606,-2.843,-2.8538,-2.8678,-2.8678,-2.8538,-2.8362,-2.8362,-2.7982,-2.7693,-2.7693,-2.7423,-2.7098,-2.6659,-2.6582,-2.6407,-2.5951,-2.5678,-2.5544,-2.5544,-2.5537,-2.5434,-2.5181,-2.562,-2.5881,-2.5881,-2.6585,-2.7063,-2.7237,-2.8184,-2.8593,-2.8355,-2.9051,-2.9183,-2.8712,-2.924,-2.9619,-2.9848,-3.0101,-3.0216,-3.0216,-3.0216,-3.0216,-3.0216,-3.0216,-3.0216,-3.0216,-3.0216,-3.0216,-3.0216,-3.0216,-3.0216,-3.0216,-3.2669,-3.2669,-3.2669,-3.2669,-3.2669,-3.2669,-3.2669,-3.2669,-3.2669,-3.2669,-3.2669,-3.2669,-3.2669,-3.2669,-3.2669,-3.2669,-3.2669,-3.2669,-3.2669,-3.2669,-3.2669,-3.2669,-3.2669,-3.2669,-3.2669,-3.2669,-3.2669,-3.2669,-3.2287,-3.2101,-3.2091,-3.1785,-3.1832,-3.2175,-3.1704,-3.1498,-3.1466,-3.1006,-3.0584,-3.0222,-3.0149,-3.0118,-3.0098,-3.0025,-2.9994,-2.9994,-2.9994,-2.9994,-2.9994,-2.9994,-2.9994,-2.9994,-2.9994,-2.9994,-2.9994,-2.9994,-2.9994,-2.9994,-2.9994,-2.9715,-2.9404,-2.9321,-2.9021,-2.8603,-2.8195,-2.8346,-2.8542,-2.8466,-2.8128,-2.7857,-2.7857,-2.7584,-2.7309,-2.7309,-2.7309,-2.7175,-2.6781,-2.6739,-2.6594,-2.621,-2.6086,-2.6013,-2.593,-2.5875,-2.5875,-2.5875,-2.5875,-2.6066,-2.6481,-2.6645,-2.6856,-2.7236,-2.8209,-2.8545,-2.8121,-2.9342,-2.9783,-2.9485,-2.9485,-2.9747,-3.0216,-3.0216,-3.0216,-3.0216,-3.0216,-3.0216,-3.0216,-3.0216,-3.0216,-3.0216,-3.0216,-3.0216,-3.0216,-3.0216,-3.0216,-3.0216,-3.2669,-3.2669,-3.2669,-3.2669,-3.2669,-3.2669,-3.2669,-3.2669,-3.2669,-3.2669,-3.2669,-3.2669,-3.2669,-3.2669,-3.2669,-3.2669,-3.2669,-3.2669,-3.2669,-3.2669,-3.2669,-3.2669,-3.2669,-3.2669,-3.2669,-3.2669,-3.2669,-3.2669,-3.2607,-3.2633,-3.2576,-3.2571,-3.2333,-3.1996,-3.195,-3.1757,-3.1387,-3.1343,-3.1247,-3.1153,-3.076,-3.0594,-3.0553,-3.0149,-2.9994,-2.9994,-2.9994,-2.9994,-2.9994,-2.9994,-2.9994,-2.9994,-2.9994,-2.9994,-2.9994,-2.9994,-2.9994,-2.9994,-2.9994,-2.9953,-2.9808,-2.9404,-2.9259,-2.9073,-2.8595,-2.8258,-2.791,-2.7572,-2.7441,-2.7394,-2.7394,-2.7357,-2.7309,-2.7309,-2.7309,-2.7289,-2.7226,-2.7216,-2.7185,-2.7123,-2.677,-2.6366,-2.5962,-2.5875,-2.5875,-2.5875,-2.5875,-2.592,-2.5976,-2.675,-2.7235,-2.7281,-2.8259,-2.8707,-2.8631,-2.8797,-2.9108,-2.9487,-2.9487,-2.9738,-3.0216,-3.0216,-3.0216,-3.0216,-3.0216,-3.0216,-3.0216,-3.0216,-3.0216,-3.0216,-3.0216,-3.0216,-3.0216,-3.0216,-3.0216,-3.0216,-3.2669,-3.2669,-3.2669,-3.2669,-3.2669,-3.2669,-3.2669,-3.2669,-3.2669,-3.2669,-3.2669,-3.2669,-3.2669,-3.2669,-3.2669,-3.2669,-3.2669,-3.2669,-3.2669,-3.2669,-3.2669,-3.2669,-3.2669,-3.2669,-3.2669,-3.2669,-3.2669,-3.2669,-3.2669,-3.2669,-3.2669,-3.2669,-3.2566,-3.237,-3.237,-3.2168,-3.1743,-3.1743,-3.1609,-3.136,-3.1153,-3.1071,-3.1019,-3.0563,-3.0377,-3.0346,-3.0087,-2.9994,-2.9994,-2.9994,-2.9994,-2.9994,-2.9994,-2.9994,-2.9994,-2.9994,-2.9994,-2.9994,-2.9994,-2.9994,-2.9942,-2.9746,-2.9684,-2.957,-2.9104,-2.8835,-2.8493,-2.7779,-2.7486,-2.7309,-2.7309,-2.7309,-2.7309,-2.7309,-2.7309,-2.7309,-2.7309,-2.7309,-2.7309,-2.7309,-2.7123,-2.6926,-2.6718,-2.6698,-2.6698,-2.6698,-2.6698,-2.6698,-2.6698,-2.7071,-2.7316,-2.7316,-2.7985,-2.8326,-2.8315,-2.8585,-2.8817,-2.9059,-2.9059,-2.9474,-3.0216,-3.0216,-3.0216,-3.0216,-3.0216,-3.0216,-3.0216,-3.0216,-3.0216,-3.0216,-3.0216,-3.0216,-3.0216,-3.0216,-3.0216,-3.0216]}]]